[[{"header":{"parameterUnit":"m.s-1","parameterCategory":1,"la1":31.0,"la2":29.5877,"lo1":-88.7671,"lo2":-86.6584,"dy":0.0162,"dx":0.0185,"nx":115,"ny":88,"refTime":"2026-04-12T00:00:00:Z","depth":0,"parameterNumber":2,"parameterNumberName":"U-component_of_WINDS"},"data":[0.0,0.0,0.0,0.0,0.0,0.0,0.0,0.0,0.0,0.0,0.0,0.0,0.0,0.0,0.0,0.0,0.0,0.0,0.0,0.0,0.0,0.0,0.0,0.0,0.0,0.0,0.0,0.0,0.0,0.0,0.0,0.0,0.0,0.0,0.0,0.0,0.0,0.0,0.0,0.0,0.0,0.0,0.0,0.0,0.0,0.0,0.0,0.0,0.0,0.0,0.0,0.0,0.0,0.0,0.0,0.0,0.0,0.0,0.0,0.0,0.0,0.0,0.0,0.0,0.0,0.0,0.0,0.0,0.0,0.0,0.0,0.0,0.0,0.0,0.0,0.0,0.0,0.0,0.0,0.0,0.0,0.0,0.0,0.0,0.0,0.0,0.0,0.0,0.0,0.0,0.0,0.0,0.0,0.0,0.0,0.0,0.0,0.0,0.0,0.0,0.0,0.0,0.0,0.0,0.0,0.0,0.0,0.0,0.0,0.0,0.0,0.0,0.0,0.0,0.0,0.0,0.0,0.0,0.0,0.0,0.0,0.0,0.0,0.0,0.0,0.0,0.0,0.0,0.0,0.0,0.0,0.0,0.0,0.0,0.0,0.0,0.0,0.0,0.0,0.0,0.0,0.0,0.0,0.0,0.0,0.0,0.0,0.0,0.0,0.0,0.0,0.0,0.0,0.0,0.0,0.0,0.0,0.0,0.0,0.0,0.0,0.0,0.0,0.0,0.0,0.0,0.0,0.0,0.0,0.0,0.0,0.0,0.0,0.0,0.0,0.0,0.0,0.0,0.0,0.0,0.0,0.0,0.0,0.0,0.0,0.0,0.0,0.0,0.0,0.0,0.0,0.0,0.0,0.0,0.0,0.0,0.0,0.0,0.0,0.0,0.0,0.0,0.0,0.0,0.0,0.0,0.0,0.0,0.0,0.0,0.0,0.0,0.0,0.0,0.0,0.0,0.0,0.0,0.0,0.0,0.0,0.0,0.0,0.0,0.0,0.0,0.0,0.0,0.0,0.0,0.0,0.0,0.0,0.0,0.0,0.0,0.0,0.0,0.0,0.0,0.0,0.0,0.0,0.0,0.0,0.0,0.0,0.0,0.0,0.0,0.0,0.0,0.0,0.0,0.0,0.0,0.0,0.0,0.0,0.0,0.0,0.0,0.0,0.0,0.0,0.0,0.0,0.0,0.0,0.0,0.0,0.0,0.0,0.0,0.0,0.0,0.0,0.0,0.0,0.0,0.0,0.0,0.0,0.0,0.0,0.0,0.0,0.0,0.0,0.0,0.0,0.0,0.0,0.0,0.0,0.0,0.0,0.0,0.0,0.0,0.0,0.0,0.0,0.0,0.0,0.0,0.0,0.0,0.0,0.0,0.0,0.0,0.0,0.0,0.0,0.0,0.0,0.0,0.0,0.0,0.0,0.0,0.0,0.0,0.0,0.0,0.0,0.0,0.0,0.0,0.0,0.0,0.0,0.0,0.0,0.0,0.0,0.0,0.0,0.0,0.0,0.0,0.0,0.0,0.0,0.0,0.0,0.0,0.0,0.0,0.0,0.0,0.0,0.0,0.0,0.0,0.0,0.0,0.0,0.0,0.0,0.0,0.0,0.0,0.0,0.0,0.0,0.0,0.0,0.0,0.0,0.0,0.0,0.0,0.0,0.0,0.0,0.0,0.0,0.0,0.0,0.0,0.0,0.0,0.0,0.0,0.0,0.0,0.0,0.0,0.0,0.0,0.0,0.0,0.0,0.0,0.0,0.0,0.0,0.0,0.0,0.0,0.0,0.0,0.0,0.0,0.0,0.0,0.0,0.0,0.0,0.0,0.0,0.0,0.0,0.0,0.0,0.0,0.0,0.0,0.0,0.0,0.0,0.0,0.0,0.0,0.0,0.0,0.0,0.0,0.0,0.0,0.0,0.0,0.0,0.0,0.0,0.0,0.0,0.0,0.0,0.0,0.0,0.0,0.0,0.0,0.0,0.0,0.0,0.0,0.0,0.0,0.0,0.0,0.0,0.0,0.0,0.0,0.0,0.0,0.0,0.0,0.0,0.0,0.0,0.0,0.0,0.0,0.0,0.0,0.0,0.0,0.0,0.0,0.0,0.0,0.0,0.0,0.0,0.0,0.0,0.0,0.0,0.0,0.0,0.0,0.0,0.0,0.0,0.0,0.0,0.0,0.0,0.0,0.0,0.0,0.0,0.0,0.0,0.0,0.0,0.0,0.0,0.0,0.0,0.0,0.0,0.0,0.0,0.0,0.0,0.0,0.0,0.0,0.0,0.0,0.0,0.0,0.0,0.0,0.0,0.0,0.0,0.0,0.0,0.0,0.0,0.0,0.0,0.0,0.0,0.0,0.0,0.0,0.0,0.0,0.0,0.0,0.0,0.0,0.0,0.0,0.0,0.0,0.0,0.0,0.0,0.0,0.0,0.0,0.0,0.0,0.0,0.0,0.0,0.0,0.0,0.0,0.0,0.0,0.0,0.0,0.0,0.0,0.0,0.0,0.0,0.0,0.0,0.0,0.0,0.0,0.0,0.0,0.0,0.0,0.0,0.0,0.0,0.0,0.0,0.0,0.0,0.0,0.0,0.0,0.0,0.0,0.0,0.0,0.0,0.0,0.0,0.0,0.0,0.0,0.0,0.0,0.0,0.0,0.0,0.0,0.0,0.0,0.0,0.0,0.0,0.0,0.0,0.0,0.0,0.0,0.0,0.0,0.0,0.0,0.0,0.0,0.0,0.0,0.0,0.0,0.0,0.0,0.0,0.0,0.0,0.0,0.0,0.0,0.0,0.0,0.0,0.0,0.0,0.0,0.0,0.0,0.0,0.0,0.0,0.0,0.0,0.0,0.0,0.0,0.0,0.0,0.0,0.0,0.0,0.0,0.0,0.0,0.0,0.0,0.0,0.0,0.0,0.0,0.0,0.0,0.0,0.0,0.0,0.0,0.0,0.0,0.0,0.0,0.0,0.0,0.0,0.0,0.0,0.0,0.0,0.0,0.0,0.0,0.0,0.0,0.0,0.0,0.0,0.0,0.0,0.0,0.0,0.0,0.0,0.0,0.0,0.0,0.0,0.0,0.0,0.0,0.0,0.0,0.0,0.0,0.0,0.0,0.0,0.0,0.0,0.0,0.0,0.0,0.0,0.0,0.0,0.0,0.0,0.0,0.0,0.0,0.0,0.0,0.0,0.0,0.0,0.0,0.0,0.0,0.0,0.0,0.0,0.0,0.0,0.0,0.0,0.0,0.0,0.0,0.0,0.0,0.0,0.0,0.0,0.0,0.0,0.0,0.0,0.0,0.0,0.0,0.0,0.0,0.0,0.0,0.0,0.0,0.0,0.0,0.0,0.0,0.0,0.0,0.0,0.0,0.0,0.0,0.0,0.0,0.0,0.0,0.0,0.0,0.0,0.0,0.0,0.0,0.0,0.0,0.0,0.0,0.0,0.0,0.0,0.0,0.0,0.0,0.0,0.0,0.0,0.0,0.0,0.0,0.0,0.0,0.0,0.0,0.0,0.0,0.0,0.0,0.0,0.0,0.0,0.0,0.0,0.0,0.0,0.0,0.0,0.0,0.0,0.0,0.0,0.0,0.0,0.0,0.0,0.0,0.0,0.0,0.0,0.0,0.0,0.0,0.0,0.0,0.0,0.0,0.0,0.0,0.0,0.0,0.0,0.0,0.0,0.0,0.0,0.0,0.0,0.0,0.0,0.0,0.0,0.0,0.0,0.0,0.0,0.0,0.0,0.0,0.0,0.0,0.0,0.0,0.0,0.0,0.0,0.0,0.0,0.0,0.0,0.0,0.0,0.0,0.0,0.0,0.0,0.0,0.0,0.0,0.0,0.0,0.0,0.0,0.0,0.0,0.0,0.0,0.0,0.0,0.0,0.0,0.0,0.0,0.0,0.0,0.0,0.0,0.0,0.0,0.0,0.0,0.0,0.0,0.0,0.0,0.0,0.0,0.0,0.0,0.0,0.0,0.0,0.0,0.0,0.0,0.0,0.0,0.0,0.0,0.0,0.0,0.0,0.0,0.0,0.0,0.0,0.0,0.0,0.0,0.0,0.0,0.0,0.0,0.0,0.0,0.0,0.0,0.0,0.0,0.0,0.0,0.0,0.0,0.0,0.0,0.0,0.0,0.0,0.0,0.0,0.0,0.0,0.0,0.0,0.0,0.0,0.0,0.0,0.0,0.0,0.0,0.0,0.0,0.0,0.0,0.0,0.0,0.0,0.0,0.0,0.0,0.0,0.0,0.0,0.0,0.0,0.0,-0.95,0.0,0.0,0.0,0.0,0.0,0.0,0.0,0.0,0.0,0.0,0.0,0.0,0.0,0.0,0.0,0.0,0.0,0.0,0.0,0.0,0.0,0.0,0.0,0.0,0.0,0.0,0.0,0.0,0.0,0.0,0.0,0.0,0.0,0.0,0.0,0.0,0.0,0.0,0.0,0.0,0.0,0.0,0.0,0.0,0.0,0.0,0.0,0.0,0.0,0.0,0.0,0.0,0.0,0.0,0.0,0.0,0.0,0.0,0.0,0.0,0.0,0.0,0.0,0.0,0.0,0.0,0.0,0.0,0.0,0.0,0.0,0.0,0.0,0.0,0.0,0.0,0.0,0.0,0.0,0.0,0.0,0.0,0.0,0.0,0.0,0.0,0.0,0.0,0.0,0.0,0.0,0.0,0.0,0.0,0.0,0.0,0.0,0.0,0.0,0.0,0.0,0.0,0.0,0.0,0.0,0.0,0.0,0.0,0.0,0.0,-0.9516,-0.95,-0.95,-0.95,-0.95,0.0,0.0,0.0,0.0,0.0,0.0,0.0,0.0,0.0,0.0,0.0,0.0,0.0,0.0,0.0,0.0,0.0,0.0,0.0,0.0,0.0,0.0,0.0,0.0,0.0,0.0,0.0,0.0,0.0,0.0,0.0,0.0,0.0,0.0,0.0,0.0,0.0,0.0,0.0,0.0,0.0,0.0,0.0,0.0,0.0,0.0,0.0,0.0,0.0,0.0,0.0,0.0,0.0,0.0,0.0,0.0,0.0,0.0,0.0,0.0,0.0,0.0,0.0,0.0,0.0,0.0,0.0,0.0,0.0,0.0,0.0,0.0,0.0,0.0,0.0,0.0,0.0,0.0,0.0,0.0,0.0,0.0,0.0,0.0,0.0,0.0,0.0,0.0,0.0,0.0,0.0,0.0,0.0,0.0,0.0,0.0,0.0,0.0,0.0,0.0,0.0,0.0,0.0,0.0,0.0,0.0,0.0,0.0,0.0,0.0,0.0,0.0,-0.9784,-0.978,-0.9798,0.0,0.0,0.0,0.0,0.0,0.0,0.0,0.0,0.0,0.0,0.0,0.0,0.0,0.0,0.0,0.0,0.0,0.0,0.0,0.0,0.0,0.0,0.0,0.0,0.0,0.0,0.0,0.0,0.0,0.0,0.0,0.0,0.0,0.0,0.0,0.0,0.0,0.0,0.0,0.0,0.0,0.0,0.0,0.0,0.0,0.0,0.0,0.0,0.0,0.0,0.0,0.0,0.0,0.0,0.0,0.0,0.0,0.0,0.0,0.0,0.0,0.0,0.0,0.0,0.0,0.0,0.0,0.0,0.0,0.0,0.0,0.0,0.0,0.0,0.0,0.0,0.0,0.0,0.0,0.0,0.0,0.0,0.0,0.0,0.0,0.0,0.0,0.0,0.0,0.0,0.0,0.0,0.0,0.0,0.0,0.0,0.0,0.0,0.0,0.0,0.0,0.0,0.0,0.0,0.0,0.0,0.0,0.0,0.0,0.0,-0.9905,-1.0567,-1.058,0.0,-1.0639,0.0,0.0,0.0,0.0,0.0,0.0,0.0,0.0,0.0,0.0,0.0,0.0,0.0,0.0,0.0,0.0,0.0,0.0,0.0,0.0,0.0,0.0,0.0,0.0,0.0,0.0,0.0,0.0,0.0,0.0,0.0,0.0,0.0,0.0,0.0,0.0,0.0,0.0,0.0,0.0,0.0,0.0,0.0,0.0,0.0,0.0,0.0,0.0,0.0,0.0,0.0,0.0,0.0,0.0,0.0,0.0,0.0,0.0,0.0,0.0,0.0,0.0,0.0,0.0,0.0,0.0,0.0,0.0,0.0,0.0,0.0,0.0,0.0,0.0,0.0,0.0,0.0,0.0,0.0,0.0,0.0,0.0,0.0,0.0,0.0,0.0,0.0,0.0,0.0,0.0,0.0,0.0,0.0,0.0,0.0,0.0,0.0,0.0,0.0,0.0,0.0,0.0,0.0,0.0,0.0,0.0,0.0,0.0,0.0,0.0,-1.0875,-1.0712,-1.0712,-1.0712,0.0,0.0,0.0,0.0,0.0,0.0,0.0,0.0,0.0,0.0,0.0,0.0,0.0,0.0,0.0,0.0,0.0,0.0,0.0,0.0,0.0,0.0,0.0,0.0,0.0,0.0,0.0,0.0,0.0,0.0,0.0,0.0,0.0,0.0,0.0,0.0,0.0,0.0,0.0,0.0,0.0,0.0,0.0,0.0,0.0,0.0,0.0,0.0,0.0,0.0,0.0,0.0,0.0,0.0,0.0,0.0,0.0,0.0,0.0,0.0,0.0,0.0,0.0,0.0,0.0,0.0,0.0,0.0,0.0,0.0,0.0,0.0,0.0,0.0,0.0,0.0,0.0,0.0,0.0,0.0,0.0,0.0,0.0,0.0,0.0,0.0,0.0,0.0,0.0,0.0,0.0,0.0,0.0,0.0,0.0,0.0,0.0,0.0,0.0,0.0,0.0,0.0,0.0,0.0,0.0,0.0,0.0,0.0,0.0,0.0,-1.1422,-1.1717,-1.1359,-1.1107,-1.0876,-1.0687,0.0,0.0,0.0,0.0,0.0,0.0,0.0,0.0,0.0,0.0,0.0,0.0,0.0,0.0,0.0,0.0,0.0,0.0,0.0,0.0,0.0,0.0,0.0,0.0,0.0,0.0,0.0,0.0,0.0,0.0,0.0,0.0,0.0,0.0,0.0,0.0,0.0,0.0,0.0,0.0,0.0,0.0,0.0,0.0,0.0,0.0,0.0,0.0,0.0,0.0,0.0,0.0,0.0,0.0,0.0,0.0,0.0,0.0,0.0,0.0,0.0,0.0,0.0,0.0,0.0,0.0,0.0,0.0,0.0,0.0,0.0,0.0,0.0,0.0,0.0,0.0,0.0,0.0,0.0,0.0,0.0,0.0,0.0,0.0,0.0,0.0,0.0,0.0,0.0,0.0,0.0,0.0,0.0,0.0,0.0,0.0,0.0,0.0,0.0,0.0,0.0,0.0,0.0,0.0,0.0,0.0,0.0,0.0,0.0,-1.2224,-1.226,-1.2942,-1.2132,-1.1314,0.0,0.0,0.0,0.0,0.0,0.0,0.0,0.0,0.0,0.0,0.0,0.0,0.0,0.0,0.0,0.0,0.0,0.0,0.0,0.0,0.0,0.0,0.0,0.0,0.0,0.0,0.0,0.0,0.0,0.0,0.0,0.0,0.0,0.0,0.0,0.0,0.0,0.0,0.0,0.0,0.0,0.0,0.0,0.0,0.0,0.0,0.0,0.0,0.0,0.0,0.0,0.0,0.0,0.0,0.0,0.0,0.0,0.0,0.0,0.0,0.0,0.0,0.0,0.0,0.0,0.0,0.0,0.0,0.0,0.0,0.0,0.0,0.0,0.0,0.0,0.0,0.0,0.0,0.0,0.0,0.0,0.0,0.0,0.0,0.0,0.0,0.0,0.0,0.0,0.0,0.0,0.0,0.0,0.0,0.0,0.0,0.0,0.0,0.0,0.0,0.0,0.0,0.0,0.0,0.0,0.0,0.0,0.0,0.0,-1.0742,-1.101,-1.1969,-1.3578,-1.2004,-1.0872,0.0,0.0,0.0,0.0,0.0,0.0,0.0,0.0,0.0,0.0,0.0,0.0,0.0,0.0,0.0,0.0,0.0,0.0,0.0,0.0,0.0,0.0,0.0,0.0,0.0,0.0,0.0,0.0,0.0,0.0,0.0,0.0,0.0,0.0,0.0,0.0,0.0,0.0,0.0,0.0,0.0,0.0,0.0,0.0,0.0,0.0,0.0,0.0,0.0,0.0,0.0,0.0,0.0,0.0,0.0,0.0,0.0,0.0,0.0,0.0,0.0,0.0,0.0,0.0,0.0,0.0,0.0,0.0,0.0,0.0,0.0,0.0,0.0,0.0,0.0,0.0,0.0,0.0,0.0,0.0,0.0,0.0,0.0,0.0,0.0,0.0,0.0,0.0,0.0,0.0,0.0,0.0,0.0,0.0,0.0,0.0,0.0,0.0,0.0,0.0,0.0,0.0,0.0,0.0,0.0,0.0,0.0,0.0,0.0,-1.0584,0.0,-1.2591,0.0,-1.1872,-1.0625,0.0,0.0,0.0,0.0,0.0,0.0,0.0,0.0,0.0,0.0,0.0,0.0,0.0,0.0,0.0,0.0,0.0,0.0,0.0,0.0,0.0,0.0,0.0,0.0,0.0,0.0,0.0,0.0,0.0,0.0,0.0,0.0,0.0,0.0,0.0,0.0,0.0,0.0,0.0,0.0,0.0,0.0,0.0,0.0,0.0,0.0,0.0,0.0,0.0,0.0,0.0,0.0,0.0,0.0,0.0,0.0,0.0,0.0,0.0,0.0,0.0,0.0,0.0,0.0,0.0,0.0,0.0,0.0,0.0,0.0,0.0,0.0,0.0,0.0,0.0,0.0,0.0,0.0,0.0,0.0,0.0,0.0,0.0,0.0,0.0,0.0,0.0,0.0,0.0,0.0,0.0,0.0,0.0,0.0,0.0,0.0,0.0,0.0,0.0,0.0,0.0,0.0,0.0,0.0,0.0,0.0,0.0,0.0,-1.0628,-1.2792,-1.4131,-1.4111,-1.2778,-1.1779,-1.0623,0.0,0.0,0.0,0.0,0.0,0.0,0.0,0.0,0.0,0.0,0.0,0.0,0.0,0.0,0.0,0.0,0.0,0.0,0.0,0.0,0.0,0.0,0.0,0.0,0.0,0.0,0.0,0.0,0.0,0.0,0.0,0.0,0.0,0.0,0.0,0.0,0.0,0.0,0.0,0.0,0.0,0.0,0.0,0.0,0.0,0.0,0.0,0.0,0.0,0.0,0.0,0.0,0.0,0.0,0.0,0.0,0.0,0.0,0.0,0.0,0.0,0.0,0.0,0.0,0.0,0.0,0.0,0.0,0.0,0.0,0.0,0.0,0.0,0.0,0.0,0.0,0.0,0.0,0.0,0.0,0.0,0.0,0.0,0.0,0.0,0.0,0.0,0.0,0.0,0.0,0.0,0.0,0.0,0.0,0.0,0.0,0.0,0.0,0.0,0.0,0.0,0.0,0.0,0.0,0.0,0.0,0.0,0.0,0.0,-1.2086,-1.3122,-1.3555,-1.3221,-1.1671,-1.072,0.0,0.0,0.0,0.0,0.0,0.0,0.0,0.0,0.0,0.0,0.0,0.0,0.0,0.0,0.0,0.0,0.0,0.0,0.0,0.0,0.0,0.0,0.0,0.0,0.0,0.0,0.0,0.0,0.0,0.0,0.0,0.0,0.0,0.0,0.0,0.0,0.0,0.0,0.0,0.0,0.0,0.0,0.0,0.0,0.0,0.0,0.0,0.0,0.0,0.0,0.0,0.0,0.0,0.0,0.0,0.0,0.0,0.0,0.0,0.0,0.0,0.0,0.0,0.0,0.0,0.0,0.0,0.0,0.0,0.0,0.0,0.0,0.0,0.0,0.0,0.0,0.0,0.0,0.0,0.0,0.0,0.0,0.0,0.0,0.0,0.0,0.0,0.0,0.0,0.0,0.0,0.0,0.0,0.0,0.0,0.0,0.0,0.0,0.0,0.0,0.0,0.0,0.0,0.0,0.0,0.0,0.0,0.0,0.0,-1.3964,-1.4267,-1.4117,-1.3462,-1.2293,-1.1317,-1.0686,0.0,0.0,0.0,0.0,0.0,0.0,0.0,0.0,0.0,0.0,0.0,0.0,0.0,0.0,0.0,0.0,0.0,0.0,0.0,0.0,0.0,0.0,0.0,0.0,0.0,0.0,0.0,0.0,0.0,0.0,0.0,0.0,0.0,0.0,0.0,0.0,0.0,0.0,0.0,0.0,0.0,0.0,0.0,0.0,0.0,0.0,0.0,0.0,0.0,0.0,0.0,0.0,0.0,0.0,0.0,0.0,0.0,0.0,0.0,0.0,0.0,0.0,0.0,0.0,0.0,0.0,0.0,0.0,0.0,0.0,0.0,0.0,0.0,0.0,0.0,0.0,0.0,0.0,0.0,0.0,0.0,0.0,0.0,0.0,0.0,0.0,0.0,0.0,0.0,0.0,0.0,0.0,0.0,0.0,0.0,0.0,0.0,0.0,0.0,0.0,0.0,0.0,0.0,0.0,0.0,0.0,0.0,0.0,-1.7627,-1.7154,-1.5845,-1.3718,-1.3472,-1.2397,0.0,0.0,0.0,0.0,0.0,0.0,0.0,0.0,0.0,0.0,0.0,0.0,0.0,0.0,0.0,0.0,0.0,0.0,0.0,0.0,0.0,0.0,0.0,0.0,0.0,0.0,0.0,0.0,0.0,0.0,0.0,0.0,0.0,0.0,0.0,0.0,0.0,0.0,0.0,0.0,0.0,0.0,0.0,0.0,0.0,0.0,0.0,0.0,0.0,0.0,0.0,0.0,0.0,0.0,0.0,0.0,0.0,0.0,0.0,0.0,0.0,0.0,0.0,0.0,0.0,0.0,0.0,0.0,0.0,0.0,0.0,0.0,0.0,0.0,0.0,0.0,0.0,0.0,0.0,0.0,0.0,0.0,0.0,0.0,0.0,0.0,0.0,0.0,0.0,0.0,0.0,0.0,0.0,0.0,0.0,0.0,0.0,0.0,0.0,0.0,0.0,0.0,0.0,0.0,0.0,0.0,0.0,0.0,0.0,-1.7111,-1.8432,-1.8166,-1.6168,-1.4461,-1.3229,0.0,0.0,0.0,0.0,0.0,0.0,0.0,0.0,0.0,0.0,0.0,0.0,0.0,0.0,0.0,0.0,0.0,0.0,0.0,0.0,0.0,0.0,0.0,0.0,0.0,0.0,0.0,0.0,0.0,0.0,0.0,0.0,0.0,0.0,0.0,0.0,0.0,0.0,0.0,0.0,0.0,0.0,0.0,0.0,0.0,0.0,0.0,0.0,0.0,0.0,0.0,0.0,0.0,0.0,0.0,0.0,0.0,0.0,0.0,0.0,0.0,0.0,0.0,0.0,0.0,0.0,0.0,0.0,0.0,0.0,0.0,0.0,0.0,0.0,0.0,0.0,0.0,0.0,0.0,0.0,0.0,0.0,0.0,0.0,0.0,0.0,0.0,0.0,0.0,0.0,0.0,0.0,0.0,0.0,0.0,0.0,0.0,0.0,0.0,0.0,0.0,0.0,0.0,0.0,0.0,0.0,0.0,0.0,-1.7253,-1.8517,-1.9596,-1.9487,-1.8062,-1.6308,-1.4723,0.0,0.0,0.0,0.0,0.0,0.0,0.0,0.0,0.0,0.0,0.0,0.0,0.0,0.0,0.0,0.0,0.0,0.0,0.0,0.0,0.0,0.0,0.0,0.0,0.0,0.0,0.0,0.0,0.0,0.0,0.0,0.0,0.0,0.0,0.0,0.0,0.0,0.0,0.0,0.0,0.0,0.0,0.0,0.0,0.0,0.0,0.0,0.0,0.0,0.0,0.0,0.0,0.0,0.0,0.0,0.0,0.0,0.0,0.0,0.0,0.0,0.0,0.0,0.0,0.0,0.0,0.0,0.0,0.0,0.0,0.0,0.0,0.0,0.0,0.0,0.0,0.0,0.0,0.0,0.0,0.0,0.0,0.0,0.0,0.0,0.0,0.0,0.0,0.0,0.0,0.0,0.0,0.0,0.0,0.0,0.0,0.0,0.0,0.0,0.0,0.0,0.0,0.0,0.0,0.0,0.0,0.0,0.0,-1.8643,-2.0558,-2.0622,-2.021,-1.9377,-1.8353,-1.6447,0.0,0.0,0.0,0.0,0.0,0.0,0.0,0.0,0.0,0.0,0.0,0.0,0.0,0.0,0.0,0.0,0.0,0.0,0.0,0.0,0.0,0.0,0.0,0.0,0.0,0.0,0.0,0.0,0.0,0.0,0.0,0.0,0.0,0.0,0.0,0.0,0.0,0.0,0.0,0.0,0.0,0.0,0.0,0.0,0.0,0.0,0.0,0.0,0.0,0.0,0.0,0.0,0.0,0.0,0.0,0.0,0.0,0.0,0.0,0.0,0.0,0.0,0.0,0.0,0.0,0.0,0.0,0.0,0.0,0.0,0.0,0.0,0.0,0.0,0.0,0.0,0.0,0.0,0.0,0.0,0.0,0.0,0.0,0.0,0.0,0.0,0.0,0.0,0.0,0.0,0.0,0.0,0.0,0.0,0.0,0.0,0.0,0.0,0.0,0.0,0.0,0.0,0.0,0.0,0.0,0.0,0.0,0.0,-1.9065,-1.9544,-2.1071,-2.1257,-1.9881,-1.8528,-1.6701,0.0,0.0,0.0,0.0,0.0,0.0,0.0,0.0,0.0,0.0,0.0,0.0,0.0,0.0,0.0,0.0,0.0,0.0,0.0,0.0,0.0,0.0,0.0,0.0,0.0,0.0,0.0,0.0,0.0,0.0,0.0,0.0,0.0,0.0,0.0,0.0,0.0,0.0,0.0,0.0,0.0,0.0,0.0,0.0,0.0,0.0,0.0,0.0,-0.5573,0.0,0.0,0.0,0.0,0.0,0.0,0.0,0.0,0.0,0.0,0.0,0.0,0.0,0.0,0.0,0.0,0.0,0.0,0.0,0.0,0.0,0.0,0.0,0.0,0.0,0.0,0.0,0.0,0.0,0.0,0.0,0.0,0.0,0.0,0.0,0.0,0.0,0.0,0.0,0.0,0.0,0.0,0.0,0.0,0.0,0.0,0.0,0.0,0.0,0.0,0.0,0.0,0.0,0.0,0.0,0.0,0.0,0.0,0.0,-1.9515,-2.0155,-2.1569,-2.1552,-2.0052,-1.9241,-1.7631,0.0,0.0,0.0,0.0,0.0,0.0,0.0,0.0,0.0,0.0,0.0,0.0,0.0,0.0,0.0,0.0,0.0,0.0,0.0,0.0,0.0,0.0,0.0,0.0,0.0,0.0,0.0,0.0,0.0,0.0,0.0,0.0,0.0,0.0,0.0,0.0,0.0,0.0,0.0,0.0,0.0,0.0,0.0,0.0,0.0,0.0,0.0,0.0,0.0,0.0,0.0,0.0,0.0,0.0,0.0,0.0,0.0,0.0,0.0,0.0,0.0,0.0,0.0,0.0,0.0,0.0,0.0,0.0,0.0,0.0,0.0,0.0,0.0,0.0,0.0,0.0,0.0,0.0,0.0,0.0,0.0,0.0,0.0,0.0,0.0,0.0,0.0,0.0,0.0,0.0,0.0,0.0,0.0,0.0,0.0,0.0,0.0,0.0,0.0,0.0,0.0,0.0,0.0,0.0,0.0,0.0,0.0,-1.8062,-1.9826,-2.1153,-2.1921,-2.162,-2.0234,-2.0069,-1.8679,-1.5866,0.0,0.0,0.0,0.0,0.0,0.0,0.0,0.0,0.0,0.0,0.0,0.0,0.0,0.0,0.0,0.0,0.0,0.0,0.0,0.0,0.0,0.0,0.0,0.0,0.0,0.0,0.0,0.0,0.0,0.0,0.0,0.0,0.0,0.0,0.0,0.0,0.0,0.0,-0.4975,-0.5188,0.0,0.0,0.0,0.0,0.0,0.0,0.0,0.0,-0.5998,0.0,0.0,0.0,0.0,0.0,0.0,0.0,0.0,0.0,0.0,0.0,0.0,0.0,0.0,0.0,0.0,0.0,0.0,0.0,0.0,0.0,0.0,0.0,0.0,0.0,0.0,0.0,0.0,0.0,0.0,0.0,0.0,0.0,0.0,0.0,0.0,0.0,0.0,0.0,0.0,0.0,0.0,0.0,0.0,0.0,0.0,0.0,0.0,0.0,0.0,0.0,0.0,0.0,0.0,0.0,0.0,-1.7477,-1.8466,-1.9704,-2.1156,-2.1921,-2.1887,-2.1021,-2.0352,-1.8915,-1.6614,0.0,0.0,0.0,0.0,0.0,0.0,0.0,0.0,0.0,0.0,0.0,0.0,0.0,0.0,0.0,0.0,0.0,0.0,0.0,0.0,0.0,0.0,0.0,0.0,0.0,0.0,0.0,0.0,0.0,0.0,0.0,0.0,0.0,0.0,0.0,0.0,0.0,0.0,0.0,-0.6912,-0.8062,0.0,0.0,0.0,0.0,0.0,0.0,0.0,0.0,-0.6142,0.0,0.0,0.0,0.0,0.0,0.0,0.0,0.0,0.0,0.0,0.0,0.0,0.0,0.0,0.0,0.0,0.0,0.0,0.0,0.0,0.0,0.0,0.0,0.0,0.0,0.0,0.0,0.0,0.0,0.0,0.0,0.0,0.0,0.0,0.0,0.0,0.0,0.0,0.0,0.0,0.0,0.0,0.0,0.0,0.0,0.0,0.0,0.0,0.0,0.0,0.0,0.0,0.0,0.0,0.0,-1.7776,-1.8939,-2.0213,-2.1718,-2.211,-2.1955,-2.1207,-2.0061,-1.8572,0.0,0.0,0.0,0.0,0.0,0.0,0.0,0.0,0.0,0.0,0.0,0.0,0.0,0.0,0.0,0.0,0.0,0.0,0.0,0.0,0.0,0.0,0.0,0.0,0.0,0.0,0.0,0.0,0.0,0.0,0.0,0.0,0.0,0.0,0.0,0.0,0.0,0.0,0.0,0.0,-0.7041,-0.7831,-0.9287,0.0,0.0,0.0,0.0,0.0,0.0,-0.6716,-0.6202,0.0,0.0,0.0,0.0,0.0,0.0,0.0,0.0,0.0,0.0,0.0,0.0,0.0,0.0,0.0,0.0,0.0,0.0,0.0,0.0,0.0,0.0,0.0,0.0,0.0,0.0,0.0,0.0,0.0,0.0,0.0,0.0,0.0,0.0,0.0,0.0,0.0,0.0,0.0,0.0,0.0,0.0,0.0,0.0,0.0,0.0,0.0,0.0,0.0,0.0,0.0,0.0,0.0,0.0,0.0,-1.7827,-1.9142,-2.0538,-2.1992,-2.2212,-2.1887,-2.0987,-1.9756,-1.8352,0.0,0.0,0.0,0.0,0.0,0.0,0.0,0.0,0.0,0.0,0.0,0.0,0.0,0.0,0.0,0.0,0.0,0.0,0.0,0.0,0.0,0.0,0.0,0.0,0.0,0.0,0.0,0.0,0.0,0.0,0.0,0.0,0.0,0.0,0.0,0.0,0.0,0.0,0.0,0.0,0.0,-0.7527,-0.8825,-0.8439,0.0,0.0,0.0,0.0,-0.8453,-0.7354,0.0,0.0,0.0,0.0,0.0,0.0,0.0,0.0,0.0,0.0,0.0,0.0,0.0,0.0,0.0,0.0,0.0,0.0,0.0,0.0,0.0,0.0,0.0,0.0,0.0,0.0,0.0,0.0,0.0,0.0,0.0,0.0,0.0,0.0,0.0,0.0,0.0,0.0,0.0,0.0,0.0,0.0,0.0,0.0,0.0,0.0,0.0,0.0,0.0,0.0,0.0,0.0,0.0,0.0,0.0,0.0,-1.7837,-1.8658,-1.9786,-2.1258,-2.1972,-2.162,-2.02,-1.9968,-1.8865,0.0,0.0,0.0,0.0,0.0,0.0,0.0,0.0,0.0,0.0,0.0,0.0,0.0,0.0,0.0,0.0,0.0,0.0,0.0,0.0,0.0,0.0,0.0,0.0,0.0,0.0,0.0,0.0,0.0,0.0,0.0,0.0,0.0,0.0,0.0,0.0,0.0,0.0,0.0,0.0,0.0,-0.8798,-0.7627,-0.7966,-0.9043,0.0,0.0,-0.8552,-0.9324,-0.8694,0.0,0.0,0.0,0.0,0.0,0.0,0.0,0.0,0.0,0.0,0.0,0.0,0.0,0.0,0.0,0.0,0.0,0.0,0.0,0.0,0.0,0.0,0.0,0.0,0.0,0.0,0.0,0.0,0.0,0.0,0.0,0.0,0.0,0.0,0.0,0.0,0.0,0.0,0.0,0.0,0.0,0.0,0.0,0.0,0.0,0.0,0.0,0.0,0.0,0.0,0.0,0.0,0.0,0.0,0.0,-1.4628,-1.7882,-1.8602,-1.9638,-2.1123,-2.1512,-2.113,-2.0018,-1.9592,-1.8538,0.0,0.0,0.0,0.0,0.0,0.0,0.0,0.0,0.0,0.0,0.0,0.0,0.0,0.0,0.0,0.0,0.0,0.0,0.0,0.0,0.0,0.0,0.0,0.0,0.0,0.0,0.0,0.0,0.0,0.0,0.0,0.0,0.0,0.0,0.0,0.0,0.0,0.0,0.0,0.0,0.0,0.0,-0.859,-0.8805,0.0,0.0,0.0,-1.0017,-1.0253,0.0,0.0,0.0,0.0,0.0,0.0,0.0,0.0,0.0,0.0,0.0,0.0,0.0,0.0,0.0,0.0,0.0,0.0,0.0,0.0,0.0,0.0,0.0,0.0,0.0,0.0,0.0,0.0,0.0,0.0,0.0,0.0,0.0,0.0,0.0,0.0,0.0,0.0,0.0,0.0,0.0,0.0,0.0,0.0,0.0,0.0,0.0,0.0,0.0,0.0,0.0,0.0,0.0,0.0,0.0,0.0,0.0,-1.7916,-1.8602,-1.9638,-2.114,-2.1207,-2.0733,-1.9761,-1.9367,0.0,0.0,0.0,0.0,0.0,0.0,0.0,0.0,0.0,0.0,0.0,0.0,0.0,0.0,0.0,0.0,0.0,0.0,0.0,0.0,0.0,0.0,0.0,0.0,0.0,0.0,0.0,-0.1978,0.0,0.0,0.0,0.0,0.0,0.0,0.0,0.0,0.0,0.0,0.0,0.0,0.0,0.0,-0.9821,-0.9548,-0.9747,-1.059,0.0,0.0,-1.1126,-1.1118,-0.9747,-0.8432,0.0,0.0,0.0,0.0,0.0,0.0,0.0,0.0,0.0,0.0,0.0,0.0,0.0,0.0,0.0,0.0,0.0,0.0,0.0,0.0,0.0,0.0,0.0,0.0,0.0,0.0,0.0,0.0,0.0,0.0,0.0,0.0,0.0,0.0,0.0,0.0,0.0,0.0,0.0,0.0,0.0,0.0,0.0,0.0,0.0,0.0,0.0,0.0,0.0,0.0,0.0,0.0,0.0,0.0,0.0,-1.7899,-1.8585,-1.965,-2.114,-2.1207,-2.0496,-1.9041,-1.9592,-1.8594,0.0,0.0,0.0,0.0,0.0,0.0,0.0,0.0,0.0,0.0,0.0,0.0,0.0,0.0,0.0,0.0,0.0,0.0,0.0,0.0,0.0,0.0,0.0,0.0,0.0,0.0,0.0,0.0,0.0,0.0,0.0,0.0,0.0,0.0,0.0,0.0,0.0,0.0,0.0,0.0,0.0,-1.046,-0.9696,-1.0457,-1.1855,0.0,0.0,-1.1439,-1.185,-1.0565,-0.9253,-0.8524,0.0,0.0,0.0,0.0,0.0,0.0,0.0,0.0,0.0,0.0,0.0,0.0,0.0,0.0,0.0,0.0,0.0,0.0,0.0,0.0,0.0,0.0,0.0,0.0,0.0,0.0,0.0,0.0,0.0,0.0,0.0,0.0,0.0,0.0,0.0,0.0,0.0,0.0,0.0,0.0,0.0,0.0,0.0,0.0,0.0,0.0,0.0,0.0,0.0,0.0,0.0,0.0,0.0,-1.4951,-1.795,-1.8602,-1.965,-2.1123,-2.1207,-2.0683,-1.9592,-1.9833,-1.8831,0.0,0.0,0.0,0.0,0.0,0.0,0.0,0.0,0.0,0.0,0.0,0.0,0.0,0.0,0.0,0.0,0.0,0.0,0.0,0.0,0.0,0.0,0.0,0.0,0.0,0.0,0.0,0.0,-0.49,-0.5398,-0.4856,0.0,0.0,0.0,0.0,0.0,0.0,0.0,0.0,0.0,0.0,-1.1841,-1.2505,-1.2101,0.0,0.0,-1.4451,-1.3149,-1.284,-1.143,-1.0084,-0.9305,-0.8474,0.0,0.0,0.0,0.0,0.0,0.0,0.0,0.0,0.0,0.0,0.0,0.0,0.0,0.0,0.0,0.0,0.0,0.0,0.0,0.0,0.0,0.0,0.0,0.0,0.0,0.0,0.0,0.0,0.0,0.0,0.0,0.0,0.0,0.0,0.0,0.0,0.0,0.0,0.0,0.0,0.0,0.0,0.0,0.0,0.0,0.0,0.0,0.0,0.0,0.0,0.0,0.0,-1.5503,-1.828,-1.8912,-1.9976,-2.1495,-2.1309,-2.0936,-2.0386,-2.012,-1.8966,0.0,0.0,0.0,0.0,0.0,0.0,0.0,0.0,0.0,0.0,0.0,0.0,0.0,0.0,0.0,0.0,0.0,0.0,0.0,0.0,0.0,0.0,0.0,0.0,0.0,0.0,0.0,0.0,-0.5835,-0.5789,-0.4891,0.0,0.0,0.0,0.0,0.0,0.0,0.0,0.0,0.0,0.0,-1.268,-1.4249,-1.3763,-1.3922,-1.5912,-1.5221,-1.4231,-1.3424,-1.2117,-1.0921,-1.0125,0.0,0.0,0.0,0.0,0.0,0.0,0.0,0.0,0.0,0.0,0.0,0.0,0.0,0.0,0.0,0.0,0.0,0.0,0.0,0.0,0.0,0.0,0.0,0.0,0.0,0.0,0.0,0.0,0.0,0.0,-1.3456,0.0,0.0,0.0,0.0,0.0,0.0,0.0,0.0,0.0,0.0,0.0,0.0,0.0,0.0,0.0,0.0,0.0,0.0,0.0,0.0,0.0,0.0,-1.6658,-1.8942,-1.9633,-2.0724,-2.2178,-2.158,-2.1221,-2.1173,-2.042,-1.8949,-1.6749,0.0,0.0,0.0,0.0,0.0,0.0,0.0,0.0,0.0,0.0,0.0,0.0,0.0,0.0,0.0,0.0,0.0,0.0,0.0,0.0,0.0,0.0,0.0,0.0,0.0,0.0,-0.6829,-0.6384,-0.569,0.0,0.0,0.0,0.0,0.0,0.0,0.0,0.0,0.0,0.0,-1.2095,-1.2682,-1.4231,-1.5331,-1.5588,-1.4781,-1.4548,-1.4218,-1.3445,-1.2614,-1.1815,0.0,0.0,0.0,0.0,0.0,0.0,0.0,0.0,0.0,0.0,0.0,0.0,0.0,0.0,0.0,0.0,0.0,0.0,0.0,0.0,0.0,0.0,0.0,0.0,0.0,0.0,0.0,-1.7371,-1.6718,0.0,0.0,0.0,0.0,0.0,0.0,0.0,0.0,0.0,0.0,0.0,-2.0724,-1.9731,0.0,0.0,0.0,0.0,0.0,0.0,0.0,0.0,0.0,0.0,0.0,0.0,-1.6768,-1.8948,-2.0187,-2.1278,-2.2245,-2.2043,-2.1938,-2.1938,-2.1194,-1.9295,-1.6069,0.0,0.0,0.0,0.0,0.0,0.0,0.0,0.0,0.0,0.0,0.0,0.0,0.0,0.0,0.0,0.0,0.0,0.0,0.0,0.0,0.0,0.0,0.0,0.0,0.0,-0.7162,0.0,0.0,0.0,0.0,0.0,0.0,0.0,0.0,0.0,0.0,0.0,-1.1196,-1.1985,-1.3495,-1.4101,-1.3068,-1.4126,-1.5282,0.0,0.0,0.0,0.0,0.0,0.0,0.0,0.0,0.0,0.0,0.0,0.0,0.0,0.0,-1.0075,-0.8811,-0.7756,-0.7078,-0.7117,0.0,0.0,0.0,0.0,0.0,0.0,0.0,0.0,0.0,0.0,0.0,0.0,0.0,0.0,-1.9824,0.0,-1.9096,0.0,0.0,0.0,0.0,0.0,0.0,0.0,0.0,-2.0991,-2.187,-2.3021,-2.204,-2.1715,0.0,-2.1247,-1.9653,0.0,0.0,0.0,0.0,0.0,0.0,0.0,0.0,-1.7685,-1.9336,-2.0818,-2.182,-2.2279,-2.2313,-2.2313,-2.2279,-2.1072,-1.9113,-1.6441,-1.4496,-1.2973,0.0,0.0,0.0,0.0,0.0,0.0,0.0,0.0,0.0,0.0,0.0,0.0,0.0,0.0,0.0,0.0,0.0,0.0,0.0,0.0,0.0,0.0,0.0,-0.8045,0.0,0.0,0.0,0.0,0.0,0.0,0.0,0.0,0.0,-0.9731,-1.0879,-1.2095,-1.3201,-1.4138,-1.4297,-1.3104,0.0,0.0,0.0,0.0,0.0,0.0,0.0,-1.4033,-1.3752,-1.3036,-1.2362,-1.1893,-1.1549,-1.1347,-1.1292,0.0,0.0,-0.9622,-0.8566,-0.7902,-0.7938,-0.7991,-0.7831,-0.7272,-0.7417,-0.7788,0.0,0.0,0.0,0.0,0.0,0.0,0.0,0.0,-2.2818,-2.2482,0.0,-2.1681,0.0,0.0,0.0,0.0,0.0,-2.1329,0.0,0.0,-2.4898,-2.5253,-2.4643,-2.4525,-2.4152,-2.3594,-2.4133,-2.3695,-2.2175,-1.8093,0.0,0.0,0.0,0.0,0.0,0.0,-1.937,-2.0065,-2.1502,-2.2296,-2.2313,-2.2313,-2.2313,-2.2245,-2.0179,-1.8657,-1.7817,-1.6424,-1.4986,-1.354,-1.2711,0.0,0.0,0.0,0.0,0.0,0.0,0.0,0.0,0.0,0.0,0.0,0.0,0.0,0.0,0.0,0.0,0.0,0.0,0.0,0.0,-0.8242,0.0,0.0,0.0,0.0,0.0,0.0,0.0,0.0,0.0,0.0,-1.2095,-1.159,-1.2195,-1.5313,0.0,0.0,0.0,0.0,-1.6303,-1.6908,-1.7594,-1.7777,-1.6982,-1.6181,-1.5423,-1.4658,0.0,0.0,-1.1641,-1.3109,-1.3435,-1.0441,-0.9996,-1.0014,-1.0766,-0.9647,-0.8671,-0.8641,-0.8756,-0.8816,-0.884,-0.9199,-0.9804,-2.8738,0.0,0.0,0.0,0.0,-2.4966,-2.571,-2.7351,-2.6573,-2.593,-2.5406,-2.4661,0.0,0.0,0.0,0.0,0.0,0.0,-2.4541,-2.576,-2.6184,-2.6539,-2.681,-2.5778,-2.5456,-2.5726,-2.4944,-2.4618,-2.462,-2.2405,-2.0059,-1.7781,0.0,0.0,0.0,0.0,-2.0132,-2.0869,-2.182,-2.2313,-2.2313,-2.2313,-2.2313,-2.2296,-2.116,-1.9921,-1.8623,-1.7676,-1.6481,-1.502,-1.376,0.0,0.0,0.0,0.0,0.0,0.0,0.0,0.0,0.0,0.0,0.0,0.0,0.0,0.0,0.0,0.0,0.0,0.0,0.0,-0.9092,-0.9234,-0.9269,0.0,0.0,0.0,0.0,0.0,0.0,0.0,0.0,0.0,-1.4487,-1.4481,-1.4866,0.0,0.0,-1.6493,-1.6248,-1.6156,-1.6713,-1.8353,-1.8163,0.0,0.0,-1.6218,-1.5625,-1.538,-1.4676,-1.4026,-1.3653,-1.4121,-1.4088,-1.2567,-1.186,-1.1398,-1.0982,-1.0157,-0.9516,-0.9581,-0.9641,-0.9465,-0.8969,-0.9064,-0.9191,-3.3136,-3.0516,-2.8163,-2.7824,-2.8822,-2.8129,-2.8755,-3.0262,-2.9482,-2.889,-2.8433,-2.7723,-2.6556,-2.5084,-2.4054,0.0,0.0,0.0,-2.6471,-2.7604,-2.7622,-2.7858,-2.8197,-2.7368,-2.6996,-2.7063,-2.5962,-2.5672,-2.6063,-2.491,-2.3282,-2.1196,0.0,0.0,-1.8909,-2.002,-2.0828,-2.126,-2.1952,-2.2313,-2.2313,-2.2313,-2.2313,-2.2279,-2.1597,-2.0615,-1.9384,-1.864,-1.7557,-1.6096,-1.4911,-1.3599,0.0,0.0,0.0,0.0,0.0,0.0,0.0,0.0,0.0,0.0,0.0,-0.5738,-0.501,0.0,0.0,0.0,-0.7004,-0.8575,-1.0907,-1.0736,0.0,0.0,0.0,0.0,0.0,0.0,0.0,-1.5203,-1.5007,-1.5215,-1.6463,-1.6646,-1.683,-1.7319,-1.7697,-1.7924,-1.7876,0.0,-1.7839,-1.9113,-1.8757,-1.8236,-1.7887,-1.7211,-1.6477,-1.584,-1.5337,-1.4889,-1.4587,-1.4589,-1.4426,-1.3955,-1.3146,-1.229,-1.159,-1.107,-1.055,-1.0083,-0.9981,-0.983,-0.9355,-0.9322,-0.9323,-3.6948,-3.6609,-3.3152,-3.2022,-3.2395,-3.1681,-3.1749,-3.2327,-3.1667,-3.136,-3.1309,-3.0615,-2.9463,-2.7993,-2.659,0.0,-2.7097,-2.7689,-2.8399,-2.9162,-2.9179,-2.9145,-2.9094,-2.9094,-2.867,-2.7874,-2.7199,-2.686,-2.6759,-2.6116,-2.5388,-2.4589,-2.277,-2.1408,-2.0636,-2.1289,-2.1591,-2.147,-2.2084,-2.2364,-2.2313,-2.2313,-2.2313,-2.2296,-2.1597,-2.0822,-2.0018,-1.927,-1.8211,-1.6773,-1.6001,-1.4928,-1.3447,0.0,0.0,0.0,0.0,0.0,0.0,0.0,0.0,0.0,0.0,0.0,0.0,0.0,0.0,0.0,-0.8403,0.0,-1.2225,-1.2422,0.0,0.0,0.0,-1.2263,-1.0221,-1.2759,-1.5288,-1.6908,0.0,0.0,-1.7997,-1.817,-1.8207,-1.8199,-1.7979,-1.8199,-1.9168,-1.9224,-1.9279,-1.9279,-1.9279,-1.9279,-1.9132,-1.8544,-1.7584,-1.6233,-1.5852,-1.5526,-1.489,-1.4616,-1.4661,-1.4645,-1.3846,-1.2961,-1.2424,-1.2266,-1.1847,-1.0453,-1.0128,-1.0082,-0.9987,-0.9991,-1.0017,-3.8159,-3.7567,-3.6671,-3.5402,-3.3914,-3.3186,-3.2983,-3.3136,-3.2949,-3.2882,-3.2831,-3.2107,-3.1241,-3.0362,-2.943,-2.9431,-3.0127,-2.9736,-2.9956,-3.0649,-3.0666,-3.0362,-2.9854,-2.9837,-2.9448,-2.8739,-2.8589,-2.8235,-2.7691,-2.7555,-2.6872,-2.5704,-2.5641,-2.466,-2.2756,-2.3384,-2.3485,-2.2914,-2.3052,-2.2868,-2.233,-2.2313,-2.2313,-2.2296,-2.1597,-2.0822,-2.0018,-1.9299,-1.8211,-1.6773,-1.5984,-1.4928,-1.3464,-1.1773,0.0,0.0,0.0,0.0,0.0,0.0,0.0,0.0,0.0,-0.846,-0.6583,0.0,-0.9719,0.0,-1.1021,-1.183,-1.2399,-1.2505,0.0,0.0,-1.3993,-1.4076,-1.2833,-1.458,-1.6614,-1.8526,-1.807,-1.7715,-1.8056,-1.8629,-1.9022,-1.9022,-1.8959,-1.9022,-1.926,-1.9279,-1.9279,-1.9279,-1.9305,-1.9305,-1.9309,-1.872,-1.7881,-1.6885,-1.6269,-1.5806,-1.5608,-1.5075,-1.4677,-1.4706,-1.4516,-1.4028,-1.3323,-1.3211,-1.2877,-1.1982,-1.1342,-1.0752,-1.0212,-1.0107,-1.0094,-3.9242,-3.8853,-3.8531,-3.7652,-3.6457,-3.5723,-3.5216,-3.4928,-3.4895,-3.4523,-3.3846,-3.3102,-3.256,-3.2154,-3.1765,-3.1799,-3.2121,-3.141,-3.1292,-3.1684,-3.1343,-3.097,-3.0598,-3.0598,-3.0209,-2.9499,-2.9519,-2.9166,-2.8472,-2.849,-2.793,-2.6805,-2.7164,-2.652,-2.4948,-2.4996,-2.4826,-2.4437,-2.3729,-2.3054,-2.233,-2.2313,-2.2313,-2.2279,-2.1921,-2.116,-2.0035,-1.9608,-1.8707,-1.7264,-1.6485,-1.5723,-1.4887,-1.343,-1.2272,0.0,0.0,0.0,0.0,0.0,0.0,0.0,0.0,0.0,0.0,0.0,-1.1052,-1.2187,-1.2984,-1.3754,-1.4451,-1.4528,-1.4742,-1.5202,-1.5756,-1.5736,-1.4907,-1.6086,-1.7781,-1.9882,-1.9152,-1.8643,-1.9109,-1.9253,-1.9279,-1.9279,-1.9279,-1.9279,-1.9305,-1.9312,-1.9338,-1.9323,-1.9338,-1.9379,-1.942,-1.9073,-1.8511,-1.7706,-1.6941,-1.6213,-1.5466,-1.4987,-1.4706,-1.4706,-1.4706,-1.4576,-1.4107,-1.4014,-1.3765,-1.3071,-1.2591,-1.1936,-1.0871,-1.0351,-1.0094,-4.0197,-4.0062,-3.9394,-3.9123,-3.9073,-3.8447,-3.7702,-3.6948,-3.6948,-3.6152,-3.4742,-3.3998,-3.3677,-3.3656,-3.3575,-3.3541,-3.3508,-3.2784,-3.2395,-3.2259,-3.1633,-3.1292,-3.119,-3.119,-3.0869,-3.026,-3.0224,-2.9854,-2.9162,-2.9182,-2.8757,-2.7994,-2.7977,-2.7656,-2.7013,-2.6317,-2.5909,-2.5807,-2.432,-2.3241,-2.2598,-2.2567,-2.2533,-2.2431,-2.2276,-2.1468,-2.0069,-1.99,-1.9186,-1.7749,-1.7145,-1.6739,-1.6563,-1.5341,-1.4318,0.0,-1.2923,0.0,0.0,0.0,0.0,0.0,0.0,0.0,0.0,-1.175,-1.2534,-1.3912,-1.4762,-1.5754,-1.7036,-1.7232,-1.7337,-1.7424,-1.7547,-1.7332,-1.6676,-1.7324,-1.8653,-2.071,-2.0035,-1.9674,-2.0301,-1.995,-1.9627,-1.9719,-1.9756,-1.9738,-1.9525,-1.9456,-1.9361,-1.9338,-1.9376,-1.9431,-1.9483,-1.9479,-1.9234,-1.854,-1.7794,-1.6768,-1.5416,-1.49,-1.4706,-1.4706,-1.4706,-1.4688,-1.4706,-1.4688,-1.444,-1.3815,-1.3605,-1.3043,-1.1634,-1.0777,-1.0267,-4.0629,-4.0096,-3.996,-3.9893,-3.9876,-3.9757,-3.8903,-3.7686,-3.7702,-3.7195,-3.6338,-3.5537,-3.5177,-3.5126,-3.4556,-3.4307,-3.4252,-3.3525,-3.2865,-3.2276,-3.2158,-3.1785,-3.1207,-3.119,-3.1123,-3.0987,-3.0987,-3.0615,-2.9905,-3.0073,-2.97,-2.888,-2.89,-2.8832,-2.8608,0.0,0.0,0.0,-2.5032,-2.422,-2.4101,-2.4085,-2.3797,-2.319,-2.2023,0.0,-2.0035,-1.9435,-1.842,-1.7027,-1.7337,0.0,0.0,0.0,0.0,0.0,0.0,0.0,0.0,0.0,0.0,0.0,-1.553,-1.4657,-1.2504,-1.4461,-1.6032,-1.635,-1.7094,-1.7666,-1.7959,-1.8528,-1.8642,-1.8139,-1.8737,-1.8875,-1.7983,-1.8026,-1.8555,-1.9504,-1.9784,-2.0047,-2.0498,-2.096,-2.128,-2.1225,-2.1317,-2.1115,-2.0647,-1.9929,-1.9424,-1.9526,-1.9526,-1.9482,-1.9497,-1.9533,-1.9525,-1.9261,-1.863,-1.7869,-1.7213,-1.5691,-1.4725,-1.4706,-1.4706,-1.4706,-1.4706,-1.4706,-1.467,-1.4629,-1.4057,-1.308,-1.1628,-1.123,-1.0966,-4.0967,0.0,-4.0265,-4.0113,0.0,-4.0113,-3.969,-3.8937,-3.8599,-3.8024,-3.7297,-3.6535,-3.6197,-3.6146,-3.5385,-3.5047,-3.5013,-3.4286,-3.3744,-3.3359,-3.2649,-3.2107,-3.1735,-3.1376,-3.119,-3.119,-3.119,-3.1004,-3.0649,-3.0745,-3.0391,-2.9624,-2.961,-2.9253,-2.8453,-2.7656,-2.6894,-2.6167,-2.5423,-2.4695,-2.3983,-2.3951,-2.3613,-2.2868,0.0,0.0,0.0,0.0,0.0,0.0,0.0,0.0,0.0,0.0,0.0,-1.6712,-1.7016,-1.7061,-1.6703,-1.6692,-1.6893,-1.7345,-1.7791,-1.7247,-1.5352,-1.7013,-1.8123,-1.8102,-1.8805,-1.9137,-1.8803,-1.9096,-1.901,-1.8338,-1.8648,-1.8821,-1.8573,-1.8753,-1.9265,-2.0074,-2.0508,-2.0942,-2.165,-2.1712,-2.1794,-2.1794,-2.1794,-2.1812,-2.1684,-2.1066,-2.0489,-2.0193,-1.9733,-1.9504,-1.9508,-1.9555,-1.9583,-1.949,-1.8859,-1.8247,-1.795,-1.6142,-1.4706,-1.4706,-1.4706,-1.4706,-1.4706,-1.4706,-1.4724,-1.4752,-1.4469,-1.3847,-1.2695,-1.1907,-1.1257,-4.1525,-4.1322,-4.0595,-4.0273,-4.0282,-4.0163,-4.0113,-4.0045,0.0,0.0,0.0,-3.7313,-3.6931,-3.6761,-3.6113,-3.5735,-3.5566,-3.4979,-3.4607,-3.4438,-3.3241,-3.2547,-3.2276,-3.1664,-3.1345,-3.119,-3.119,-3.119,-3.119,-3.121,-3.0905,-3.0345,-3.0194,-2.9347,-2.7874,-2.7199,-2.6522,-2.5845,-2.5795,-2.522,-2.4019,-2.3849,-2.346,-2.2702,-2.2431,-2.2023,-2.141,-2.1275,-2.0615,-1.9367,-1.9299,-1.8978,-1.8256,-1.8775,-1.9096,-1.9113,-1.9676,-1.9727,-1.9147,-1.9109,-1.897,-1.8552,-1.9195,-1.9235,-1.8388,-1.904,-1.947,-1.9401,-2.0141,-2.0412,-1.9958,-1.9906,-1.9665,-1.9062,-1.8752,-1.8843,-1.9449,-1.9911,-2.0593,-2.1302,-2.1465,-2.1819,-2.2684,-2.2493,-2.2181,-2.2244,-2.2363,-2.2363,-2.2684,-2.2297,-2.1555,-2.0731,-2.0148,-1.974,-1.9536,-1.9543,-1.9583,-1.9564,-1.9014,-1.8476,-1.8018,-1.6755,-1.5598,-1.5282,-1.4966,-1.4725,-1.4706,-1.4706,-1.4717,-1.4709,-1.4799,-1.4696,-1.4012,-1.2785,-1.1757,-4.2709,-4.2066,-4.1356,-4.1052,-4.1001,-4.0367,-4.0113,-4.0045,-3.9309,-3.892,-3.8785,-3.8075,-3.7398,-3.6812,-3.6677,-3.6248,-3.56,-3.5481,-3.5115,0.0,-3.4286,-3.3529,-3.2327,-3.2192,-3.1819,-3.1224,-3.119,-3.119,-3.121,-3.1271,-3.1203,-3.099,-3.0472,-2.9403,-2.7925,-2.7705,-2.7283,-2.6556,-2.6539,-2.6454,-2.6234,-2.5625,-2.4932,-2.4186,-2.2953,-2.2262,-2.2158,-2.1546,-2.1106,-2.0886,-2.0869,-2.0517,-1.9761,-1.9782,-1.9862,-1.9849,-1.9963,-1.9951,-1.9862,-1.9958,-2.0271,-2.0841,-2.1075,-2.0609,-1.9298,-1.9826,-2.0239,-2.0274,-2.0975,-2.1677,-2.2113,-2.2113,-2.1957,-2.1837,-2.0825,-2.0602,-2.1772,-2.2073,-2.2228,-2.2419,-2.2095,-2.2042,-2.2642,-2.3121,-2.3474,-2.3738,-2.3593,-2.3823,-2.3713,-2.3169,-2.2078,-2.0973,-2.0629,-2.0311,-1.9777,-1.9569,-1.9639,-1.9583,-1.9472,-1.9305,-1.9237,-1.8847,-1.8104,-1.7003,-1.5876,-1.5022,-1.4818,-1.4706,-1.4756,-1.4803,-1.4766,-1.4724,-1.4722,-1.3913,-1.289,-4.3189,-4.276,-4.1677,-4.1204,-4.1153,-4.0392,-4.0113,-4.0079,-3.974,-3.9622,-3.9512,-3.8819,-3.8294,-3.7946,-3.7168,-3.6609,-3.6248,-3.5785,-3.5414,-3.5081,-3.4675,-3.4134,-3.3478,-3.2682,-3.2124,-3.1785,-3.136,-3.119,-3.119,-3.1232,-3.1213,-3.1159,-3.0484,-2.9773,-2.9059,-2.8213,-2.7638,-2.7317,-2.6911,-2.6505,-2.6099,-2.5778,-2.505,-2.3949,-2.3224,-2.2702,-2.2313,-2.1972,-2.163,-2.1207,-2.1207,-2.0839,-2.0052,-2.0403,-2.067,-2.067,-2.1028,-2.1248,-2.1235,-2.1372,-2.1617,-2.1951,-2.2095,-2.1695,-2.0648,-2.1216,-2.1647,-2.1647,-2.1992,-2.2147,-2.213,-2.2095,-2.1953,-2.1492,-2.1014,-2.1118,-2.1785,-2.2423,-2.2833,-2.3134,-2.2941,-2.2841,-2.32,-2.3578,-2.3827,-2.3968,-2.4075,-2.419,-2.4199,-2.3815,-2.3141,-2.2145,-2.1649,-2.1093,-2.0367,-2.0225,-2.0066,-1.972,-1.9602,-1.9583,-1.9583,-1.9583,-1.9256,-1.8662,-1.7764,-1.6898,-1.5932,-1.5449,-1.5216,-1.4782,-1.4756,-1.4822,-1.4806,-1.4156,-1.2871,-4.3673,-4.3555,-4.2252,-4.1525,-4.1136,-4.0417,-4.0113,-4.0113,-4.0096,-4.0113,-4.0028,-3.9486,-3.9157,-3.887,-3.7794,-3.7117,-3.6745,-3.6163,-3.5752,-3.5549,-3.503,-3.4641,-3.4409,-3.3309,-3.2632,-3.2276,-3.1718,-3.1343,-3.1207,-3.119,-3.119,-3.1123,-3.0632,-3.026,-3.0055,-2.8906,-2.8145,-2.7807,-2.7232,-2.659,-2.5863,-2.5694,-2.5052,-2.4002,-2.3746,-2.3359,-2.282,-2.2632,-2.2276,-2.1749,-2.1546,-2.116,-2.0606,-2.1109,-2.1444,-2.1512,-2.1989,-2.231,-2.2324,-2.2405,-2.2487,-2.2484,-2.2605,-2.2414,-2.1979,-2.2354,-2.2612,-2.2492,-2.2526,-2.2457,-2.2026,-2.1888,-2.1578,-2.1014,-2.1285,-2.1578,-2.163,-2.2233,-2.2859,-2.3365,-2.3335,-2.3323,-2.3628,-2.3703,-2.3756,-2.3888,-2.4074,-2.419,-2.4199,-2.42,-2.3925,-2.3427,-2.2695,-2.1948,-2.1227,-2.0845,-2.053,-1.9924,-1.972,-1.962,-1.9583,-1.9583,-1.9583,-1.946,-1.9509,-1.8792,-1.7368,-1.6322,-1.5741,-1.5163,-1.4917,-1.4785,-1.4775,-1.4338,-1.3233,-4.4479,-4.435,-4.3521,-4.2395,-4.117,-4.0434,-4.013,-4.0113,-4.0113,-4.0113,-4.0079,-4.0028,-3.9622,-3.9039,-3.8819,-3.8041,-3.6914,-3.6728,-3.6299,-3.565,-3.5532,-3.5148,-3.4573,-3.4341,-3.3575,-3.2462,-3.2209,-3.1802,-3.1224,-3.119,-3.119,-3.119,-3.1123,-3.0751,-3.0159,-2.9956,-2.9176,-2.7841,-2.7722,-2.7334,-2.6607,-2.5947,-2.5525,-2.5406,-2.4745,-2.4389,-2.4186,-2.3661,-2.3274,-2.3156,-2.2533,-2.2161,-2.2093,-2.2161,-2.2195,-2.2178,-2.2262,-2.2324,-2.2377,-2.2391,-2.2449,-2.2501,-2.2552,-2.2588,-2.2485,-2.2607,-2.2406,-2.2078,-2.2371,-2.2612,-2.2612,-2.2574,-2.2488,-2.2319,-2.2406,-2.2561,-2.2509,-2.266,-2.2738,-2.2777,-2.2876,-2.2947,-2.3352,-2.3466,-2.3631,-2.4026,-2.4151,-2.4199,-2.4199,-2.4199,-2.4182,-2.3971,-2.35,-2.2792,-2.2017,-2.1243,-2.0919,-2.066,-2.0066,-1.9731,-1.9657,-1.9583,-1.9583,-1.9583,-1.9583,-1.936,-1.8692,-1.7622,-1.6019,-1.5611,-1.5173,-1.4721,-1.479,-1.4766,-1.4251,-4.4598,-4.453,-4.3741,-4.253,-4.1238,-4.0865,-4.0519,-4.0113,-4.0113,-4.0113,-4.0113,-4.0113,-3.9943,-3.9614,-3.9191,-3.8674,-3.8065,-3.7202,-3.662,-3.6282,-3.5842,-3.543,-3.5148,-3.4675,-3.3931,-3.2966,-3.253,-3.1921,-3.1292,-3.119,-3.119,-3.119,-3.119,-3.1038,-3.0734,-3.0328,-2.9583,-2.8535,-2.8027,-2.7435,-2.6759,-2.6404,-2.6031,-2.5626,-2.5304,-2.4931,-2.4525,-2.4203,-2.4068,-2.4,-2.3342,-2.2953,-2.2953,-2.2533,-2.2313,-2.2313,-2.2313,-2.2338,-2.2391,-2.2391,-2.2419,-2.2487,-2.2569,-2.2609,-2.2609,-2.2659,-2.2716,-2.2888,-2.2802,-2.2712,-2.2716,-2.2712,-2.2712,-2.2712,-2.2712,-2.2712,-2.2712,-2.2712,-2.2734,-2.2889,-2.2944,-2.299,-2.3188,-2.3329,-2.3555,-2.3907,-2.4102,-2.4217,-2.419,-2.4199,-2.419,-2.4173,-2.3943,-2.3536,-2.2838,-2.2481,-2.1848,-2.1049,-2.0548,-2.0233,-1.9713,-1.9602,-1.9583,-1.9583,-1.9583,-1.936,-1.8766,-1.8228,-1.7133,-1.6353,-1.5301,-1.4719,-1.478,-1.4836,-1.4699,-4.4598,-4.4479,-4.3758,-4.2811,-4.1813,-4.1576,-4.1068,-4.0451,-4.0417,-4.0299,-4.0113,-4.0113,-4.0113,-4.0028,-3.9537,-3.9208,-3.8853,-3.7692,-3.6981,-3.6745,-3.5977,-3.56,-3.5549,-3.5081,-3.4421,-3.3694,-3.2949,-3.2121,-3.1292,-3.119,-3.119,-3.119,-3.119,-3.119,-3.114,-3.0632,-3.004,-2.9296,-2.8518,-2.7774,-2.7097,-2.6793,-2.6437,-2.5964,-2.5913,-2.5558,-2.4846,-2.4812,-2.4694,-2.4491,-2.3983,-2.3697,-2.3663,-2.319,-2.2902,-2.2919,-2.2902,-2.2815,-2.2686,-2.2683,-2.2739,-2.2791,-2.2846,-2.3004,-2.3203,-2.3278,-2.3547,-2.3974,-2.3646,-2.3371,-2.3319,-2.3319,-2.3333,-2.3315,-2.3026,-2.2819,-2.3285,-2.3043,-2.2864,-2.3201,-2.3101,-2.3033,-2.3137,-2.346,-2.3851,-2.3857,-2.4148,-2.4315,-2.4225,-2.4199,-2.4199,-2.4191,-2.4192,-2.4017,-2.3599,-2.3198,-2.2574,-2.1866,-2.1254,-2.0537,-1.998,-1.985,-1.9602,-1.9583,-1.9583,-1.9472,-1.9082,-1.8599,-1.7912,-1.6632,-1.5616,-1.508,-1.519,-1.4983,-1.4818,-4.4598,-4.4468,-4.3741,-4.3341,-4.3206,-4.254,-4.1813,-4.1085,-4.1119,-4.0747,-4.0146,-4.0113,-4.0113,-4.0096,-4.0011,-3.9673,-3.8996,-3.8227,-3.7516,-3.6897,-3.6062,-3.5616,-3.5583,-3.5549,-3.5148,-3.4336,-3.3677,-3.2628,-3.1309,-3.119,-3.119,-3.119,-3.119,-3.119,-3.1173,-3.1123,-3.0768,-2.9973,-2.9314,-2.8552,-2.7773,-2.708,-2.6708,-2.6657,-2.6623,-2.6251,-2.5659,-2.5558,-2.5253,-2.4558,-2.4491,-2.444,-2.444,-2.4372,-2.4305,-2.4321,-2.4338,-2.4034,-2.3456,-2.3398,-2.3471,-2.3511,-2.3505,-2.3887,-2.4566,-2.4657,-2.4758,-2.4922,-2.4867,-2.4816,-2.4885,-2.4695,-2.4695,-2.4643,-2.3543,-2.3509,-2.4678,-2.3612,-2.3147,-2.3519,-2.3321,-2.3128,-2.3187,-2.3956,-2.4188,-2.414,-2.4444,-2.4744,-2.4403,-2.4271,-2.4244,-2.4199,-2.4219,-2.4211,-2.4228,-2.3838,-2.3328,-2.2677,-2.1766,-2.0908,-2.0537,-2.024,-1.9868,-1.962,-1.9602,-1.9546,-1.9379,-1.8878,-1.8079,-1.7114,-1.6242,-1.5806,-1.5591,-1.5135,-1.4883,-4.4598,-4.4581,-4.4282,-4.3876,-4.3375,-4.3115,-4.2337,-4.1238,-4.1204,-4.0781,-4.0197,-4.0113,-4.0113,-4.0113,-4.0113,-3.996,-3.9656,-3.892,-3.8447,-3.8082,-3.6941,-3.6366,-3.6332,-3.5853,-3.5216,-3.4561,-3.4218,-3.3339,-3.1989,-3.1444,-3.119,-3.119,-3.119,-3.119,-3.119,-3.119,-3.0835,-3.0159,-2.9803,-2.933,-2.8586,-2.7807,-2.7401,-2.7402,-2.6945,-2.6573,-2.6302,-2.6302,-2.6183,-2.5912,-2.5489,-2.5203,-2.5152,-2.4745,-2.4508,-2.4508,-2.4508,-2.4284,-2.3856,-2.3977,-2.4069,-2.3924,-2.385,-2.4137,-2.4817,-2.5222,-2.5493,-2.5646,-2.5712,-2.587,-2.6143,-2.5609,-2.5005,-2.4919,-2.4557,-2.4384,-2.4747,-2.4505,-2.4284,-2.4456,-2.4298,-2.4116,-2.3929,-2.4523,-2.4817,-2.4474,-2.4933,-2.5122,-2.4928,-2.4726,-2.4504,-2.4279,-2.4209,-2.4219,-2.4266,-2.4164,-2.3829,-2.3291,-2.2603,-2.2081,-2.167,-2.05,-1.9936,-2.0103,-1.9998,-1.9583,-1.9434,-1.9026,-1.8265,-1.795,-1.7083,-1.6359,-1.5895,-1.5485,-1.5022,-4.4598,-4.4598,-4.4598,-4.4282,-4.3826,-4.3792,-4.3081,-4.1948,-4.166,-4.1136,-4.0536,-4.0214,-4.0113,-4.0113,-4.0113,-4.0113,-4.0011,-3.9351,-3.8988,-3.8877,-3.7489,-3.6812,-3.6677,-3.5994,-3.5351,-3.4861,-3.4573,-3.3829,-3.2716,-3.1901,-3.1562,-3.1546,-3.1345,-3.119,-3.119,-3.119,-3.092,-3.0514,-3.0224,-2.9854,-2.9296,-2.8586,-2.8043,-2.7773,-2.7334,-2.6928,-2.6725,-2.6708,-2.6708,-2.6623,-2.6218,-2.5947,-2.5896,-2.5489,-2.5202,-2.5218,-2.5218,-2.4946,-2.4452,-2.4642,-2.4739,-2.4469,-2.4407,-2.4645,-2.5491,-2.5947,-2.6253,-2.6421,-2.6488,-2.6764,-2.6937,-2.635,-2.5747,-2.5747,-2.5747,-2.573,-2.5712,-2.5436,-2.5146,-2.4922,-2.4629,-2.4382,-2.4224,-2.453,-2.4484,-2.4187,-2.4749,-2.5131,-2.5302,-2.4827,-2.4498,-2.426,-2.4208,-2.4209,-2.4228,-2.4183,-2.4201,-2.3746,-2.3226,-2.2862,-2.246,-2.1161,-2.0437,-2.0593,-2.0296,-1.9824,-1.9397,-1.9045,-1.8822,-1.8618,-1.7968,-1.717,-1.6551,-1.5835,-1.5477,-4.4598,-4.4598,-4.4598,-4.4581,-4.4496,-4.4496,-4.4079,-4.3189,-4.2574,-4.1847,-4.1052,-4.0468,-4.0197,-4.0113,-4.0113,-4.0113,-3.9977,-3.9394,-3.9106,-3.8979,-3.7591,-3.6897,-3.6863,-3.6028,-3.5583,-3.5447,-3.4827,-3.4134,-3.3406,-3.2615,-3.2192,-3.2124,-3.1515,-3.119,-3.119,-3.119,-3.1173,-3.0987,-3.0514,-3.0159,-3.0023,-2.9381,-2.8687,-2.8043,-2.7858,-2.7519,-2.686,-2.6742,-2.6708,-2.6708,-2.6657,-2.6674,-2.6607,-2.6539,-2.6607,-2.6505,-2.659,-2.615,-2.539,-2.544,-2.549,-2.5302,-2.5204,-2.5687,-2.6592,-2.6931,-2.7031,-2.7128,-2.7178,-2.7297,-2.728,-2.7159,-2.7057,-2.7263,-2.7039,-2.7021,-2.6937,-2.6333,-2.5542,-2.5143,-2.4626,-2.3922,-2.3819,-2.405,-2.4,-2.368,-2.4024,-2.4725,-2.528,-2.4682,-2.4064,-2.4248,-2.43,-2.4199,-2.4209,-2.4209,-2.4284,-2.4219,-2.37,-2.3282,-2.3223,-2.2359,-2.1688,-2.1558,-2.024,-1.972,-1.9602,-1.9286,-1.9342,-1.91,-1.8469,-1.7931,-1.738,-1.6762,-1.6188,-4.4598,-4.4598,-4.4598,-4.4598,-4.4598,-4.4598,-4.413,-4.3409,-4.3149,-4.2388,-4.1322,-4.095,-4.0578,-4.0197,-4.0113,-4.0113,-4.0079,-3.9859,-3.9757,-3.9486,-3.8227,-3.755,-3.7313,-3.6208,-3.5616,-3.5481,-3.4844,-3.4387,-3.3981,-3.2936,-3.2293,-3.2141,-3.1582,-3.1207,-3.119,-3.119,-3.119,-3.1193,-3.0987,-3.0869,-3.0784,-3.0142,-2.9634,-2.9362,-2.8907,-2.8484,-2.8248,-2.7283,-2.6725,-2.6725,-2.6708,-2.6708,-2.6708,-2.6708,-2.6708,-2.6708,-2.6708,-2.6623,-2.6336,-2.6268,-2.6302,-2.6234,-2.6218,-2.6485,-2.7002,-2.7185,-2.7234,-2.7282,-2.7315,-2.7315,-2.7315,-2.7315,-2.7315,-2.7315,-2.7315,-2.7315,-2.7297,-2.6988,-2.6506,-2.5902,-2.554,-2.4974,-2.4198,-2.4129,-2.4154,-2.3682,-2.4143,-2.4819,-2.4954,-2.4592,-2.4878,-2.5588,-2.5019,-2.4151,-2.4151,-2.4167,-2.4241,-2.4237,-2.3916,-2.3747,-2.369,-2.3603,-2.2969,-2.193,-2.0604,-1.9824,-1.9694,-1.9583,-1.9583,-1.9397,-1.8785,-1.8426,-1.8221,-1.7683,-1.6966,-4.4598,-4.4598,-4.4598,-4.4598,-4.4598,-4.4598,-4.4316,-4.3842,-4.3521,-4.2851,-4.21,-4.1728,-4.1204,-4.0612,-4.0519,-4.035,-4.013,-4.0113,-4.0113,-3.9943,-3.8903,-3.8311,-3.8108,-3.6755,-3.5859,-3.5566,-3.5148,-3.4912,-3.4827,-3.3728,-3.3004,-3.2628,-3.1989,-3.1444,-3.1224,-3.119,-3.119,-3.119,-3.1173,-3.119,-3.1106,-3.0751,-3.0378,-3.0072,-2.9651,-2.9297,-2.8959,-2.8045,-2.7418,-2.7131,-2.6877,-2.6708,-2.6708,-2.6708,-2.6708,-2.6708,-2.6708,-2.6691,-2.6708,-2.6657,-2.6708,-2.6708,-2.6708,-2.6791,-2.7023,-2.717,-2.7234,-2.7299,-2.7315,-2.7315,-2.7315,-2.7315,-2.7315,-2.7315,-2.7315,-2.7315,-2.7315,-2.7315,-2.6919,-2.6232,-2.5799,-2.5077,-2.4336,-2.3802,-2.3991,-2.3578,-2.3819,-2.416,-2.4133,-2.4006,-2.4607,-2.4954,-2.4353,-2.3904,-2.4032,-2.4103,-2.4198,-2.4162,-2.4031,-2.4072,-2.4108,-2.415,-2.3803,-2.2341,-2.0971,-2.0192,-1.9951,-1.9687,-1.9564,-1.9267,-1.9087,-1.9012,-1.8758,-1.8118,-1.7475,-4.4598,-4.4598,-4.4598,-4.4598,-4.4598,-4.4598,-4.4564,-4.4445,-4.3842,-4.3426,-4.3183,-4.2608,-4.188,-4.1305,-4.1085,-4.0688,-4.0164,-3.9969,-3.9969,-3.98,-3.9227,-3.8856,-3.8497,-3.7286,-3.6366,-3.5842,-3.56,-3.5549,-3.5414,-3.4675,-3.415,-3.344,-3.2713,-3.2005,-3.1495,-3.1275,-3.1292,-3.1207,-3.119,-3.119,-3.119,-3.1157,-3.0886,-3.026,-3.0176,-2.9888,-2.9416,-2.9077,-2.8619,-2.7908,-2.7232,-2.6877,-2.6793,-2.6742,-2.6708,-2.6708,-2.6708,-2.6708,-2.6708,-2.6708,-2.6708,-2.6708,-2.6725,-2.6775,-2.6992,-2.7089,-2.7153,-2.725,-2.7299,-2.7315,-2.7315,-2.7315,-2.7315,-2.7315,-2.7315,-2.7315,-2.7315,-2.7315,-2.6919,-2.6214,-2.5488,-2.4798,-2.4095,-2.3474,-2.3095,-2.2957,-2.2992,-2.2992,-2.3005,-2.3075,-2.2828,-2.3012,-2.3443,-2.3647,-2.3761,-2.389,-2.3967,-2.3985,-2.3929,-2.4009,-2.4247,-2.4357,-2.4186,-2.2743,-2.185,-2.0988,-2.0233,-2.0018,-1.971,-1.9444,-1.9418,-1.9492,-1.9186,-1.8571,-1.8229,-4.4598,-4.4598,-4.4598,-4.4598,-4.4598,-4.4598,-4.4598,-4.4581,-4.4395,-4.3899,-4.346,-4.3189,-4.2368,-4.1279,-4.1169,-4.0557,-3.9707,-3.9461,-3.9444,-3.9428,-3.9268,-3.8757,-3.8138,-3.728,-3.6705,-3.6377,-3.5858,-3.5616,-3.5532,-3.4912,-3.4421,-3.4201,-3.3457,-3.2747,-3.2124,-3.1989,-3.1701,-3.1258,-3.119,-3.119,-3.119,-3.119,-3.1123,-3.097,-3.0869,-3.0784,-3.0548,-3.0091,-2.9465,-2.8704,-2.7943,-2.7537,-2.7402,-2.7046,-2.6826,-2.6759,-2.6742,-2.6708,-2.6725,-2.6708,-2.6708,-2.6708,-2.6708,-2.6758,-2.6926,-2.7041,-2.7104,-2.7185,-2.725,-2.7315,-2.7315,-2.7315,-2.7315,-2.7315,-2.7315,-2.7315,-2.7315,-2.7297,-2.6988,-2.6232,-2.5887,-2.5404,-2.4698,-2.4026,-2.3543,-2.3457,-2.3147,-2.2729,-2.2746,-2.2712,-2.2712,-2.2816,-2.3107,-2.3313,-2.3497,-2.3632,-2.3735,-2.3797,-2.3746,-2.3703,-2.3999,-2.4275,-2.3896,-2.3063,-2.3104,-2.2497,-2.1274,-2.0492,-2.0122,-1.9767,-1.9641,-1.9671,-1.9527,-1.911,-1.9015,-4.4598,-4.4598,-4.4598,-4.4598,-4.4598,-4.4598,-4.4598,-4.4598,-4.4581,-4.4148,-4.3574,-4.3451,-4.2629,-4.1338,-4.0978,-4.0293,-3.9314,-3.8953,-3.8838,-3.8876,-3.9065,-3.8888,-3.831,-3.767,-3.7055,-3.6417,-3.5951,-3.5582,-3.5293,-3.5037,-3.4805,-3.4472,-3.4083,-3.3474,-3.2763,-3.2412,-3.2124,-3.1664,-3.1376,-3.119,-3.119,-3.119,-3.119,-3.119,-3.119,-3.119,-3.1106,-3.0768,-3.0108,-2.9161,-2.8535,-2.8044,-2.7435,-2.7638,-2.7503,-2.7215,-2.7148,-2.7182,-2.7097,-2.6911,-2.6708,-2.6708,-2.6708,-2.6758,-2.6876,-2.7008,-2.7055,-2.7119,-2.7217,-2.7299,-2.7315,-2.7315,-2.7315,-2.7315,-2.7315,-2.7315,-2.7315,-2.7315,-2.6919,-2.6385,-2.6057,-2.5833,-2.5126,-2.4577,-2.437,-2.4198,-2.3784,-2.325,-2.2836,-2.2767,-2.2712,-2.279,-2.289,-2.31,-2.3401,-2.359,-2.3606,-2.3645,-2.3628,-2.3544,-2.3798,-2.4144,-2.4017,-2.3777,-2.4035,-2.3731,-2.2204,-2.1,-2.0562,-2.0229,-2.0011,-1.9774,-1.9649,-1.9438,-1.9387,-4.4525,-4.4598,-4.4514,-4.4542,-4.457,-4.4598,-4.4598,-4.4598,-4.4598,-4.4191,-4.3593,-4.3479,-4.2683,-4.136,-4.0769,-3.9965,-3.9166,-3.8472,-3.8258,-3.8379,-3.8723,-3.8887,-3.8698,-3.8194,-3.7444,-3.6514,-3.6051,-3.544,-3.5114,-3.5274,-3.5116,-3.4734,-3.4575,-3.4201,-3.3508,-3.2831,-3.2429,-3.2107,-3.1515,-3.1207,-3.119,-3.119,-3.119,-3.119,-3.119,-3.119,-3.119,-3.1072,-3.0601,-2.9314,-2.9162,-2.8433,-2.7435,-2.835,-2.8281,-2.7689,-2.7452,-2.7486,-2.7536,-2.6962,-2.6708,-2.6708,-2.6708,-2.6742,-2.6859,-2.6942,-2.7007,-2.7055,-2.7252,-2.749,-2.7489,-2.7402,-2.7282,-2.7266,-2.7299,-2.7315,-2.7315,-2.7315,-2.7006,-2.6352,-2.6247,-2.5885,-2.5471,-2.516,-2.5109,-2.4991,-2.4422,-2.3543,-2.3164,-2.3095,-2.2905,-2.2712,-2.2833,-2.2942,-2.3274,-2.3601,-2.3555,-2.3534,-2.3502,-2.35,-2.3703,-2.3969,-2.4163,-2.4238,-2.4209,-2.3639,-2.2482,-2.1623,-2.1205,-2.0689,-2.0444,-2.0097,-1.9776,-1.9482,-1.9338,-4.4076,-4.4542,-4.3956,-4.4076,-4.4542,-4.4598,-4.457,-4.457,-4.457,-4.4076,-4.3571,-4.3466,-4.2652,-4.1346,-4.0591,-3.9746,-3.8656,-3.7943,-3.7608,-3.7679,-3.8226,-3.8469,-3.8417,-3.8146,-3.7921,-3.718,-3.5852,-3.5136,-3.4986,-3.4994,-3.4908,-3.4812,-3.506,-3.5013,-3.4252,-3.3525,-3.2831,-3.2293,-3.1633,-3.1275,-3.1258,-3.1207,-3.119,-3.119,-3.119,-3.119,-3.119,-3.119,-3.1038,-3.0666,-3.0125,-2.9397,-2.8637,-2.8315,-2.801,-2.7486,-2.7165,-2.708,-2.6962,-2.6996,-2.6742,-2.686,-2.6911,-2.6708,-2.6742,-2.6944,-2.6977,-2.7094,-2.7602,-2.8028,-2.8045,-2.7594,-2.7405,-2.7355,-2.7353,-2.7366,-2.7315,-2.7315,-2.7161,-2.704,-2.6971,-2.6954,-2.6745,-2.6109,-2.5919,-2.5747,-2.4991,-2.3888,-2.3698,-2.3733,-2.3733,-2.375,-2.3402,-2.3594,-2.3501,-2.3706,-2.352,-2.3419,-2.3336,-2.3375,-2.3584,-2.3732,-2.3868,-2.4046,-2.4209,-2.3456,-2.2638,-2.2666,-2.2343,-2.1618,-2.0892,-2.069,-2.0388,-1.9885,-1.9481,-4.3512,-4.3591,-4.3183,-4.3423,-4.3972,-4.3768,-4.3798,-4.3972,-4.3739,-4.3213,-4.2676,-4.2583,-4.1948,-4.0941,-3.9961,-3.9062,-3.8372,-3.7405,-3.6983,-3.7118,-3.7562,-3.7867,-3.7879,-3.7782,-3.7626,-3.7177,-3.6258,-3.5363,-3.4886,-3.5036,-3.5173,-3.4857,-3.5316,-3.5374,-3.4979,-3.4247,-3.3778,-3.3241,-3.2259,-3.1718,-3.1698,-3.1343,-3.119,-3.119,-3.119,-3.119,-3.119,-3.119,-3.119,-3.1089,-3.0801,-3.0228,-2.9619,-2.9364,-2.9008,-2.845,-2.8298,-2.8298,-2.8298,-2.7977,-2.7825,-2.7757,-2.7791,-2.7774,-2.7792,-2.7878,-2.7912,-2.8032,-2.8391,-2.8716,-2.8699,-2.8594,-2.8164,-2.7753,-2.7854,-2.7816,-2.7453,-2.7315,-2.7315,-2.7315,-2.7263,-2.728,-2.7075,-2.6747,-2.6713,-2.6523,-2.654,-2.5592,-2.5712,-2.573,-2.5592,-2.5367,-2.4678,-2.4295,-2.4022,-2.3819,-2.3522,-2.333,-2.3121,-2.3212,-2.3365,-2.3457,-2.3547,-2.3813,-2.4105,-2.3758,-2.3144,-2.3263,-2.3079,-2.2143,-2.1482,-2.1382,-2.1088,-2.0564,-2.0189,-4.2923,-4.2489,-4.2395,-4.2738,-4.3196,-4.2784,-4.2862,-4.3243,-4.2769,-4.23,-4.1624,-4.1492,-4.1262,-4.0371,-3.9177,-3.8492,-3.7894,-3.7185,-3.6616,-3.6693,-3.7028,-3.7222,-3.7266,-3.7202,-3.7026,-3.6463,-3.6135,-3.543,-3.4999,-3.5117,-3.5027,-3.4824,-3.5062,-3.5197,-3.52,-3.4751,-3.4184,-3.3893,-3.2883,-3.2277,-3.2143,-3.1621,-3.1271,-3.119,-3.119,-3.119,-3.119,-3.119,-3.119,-3.119,-3.119,-3.0753,-3.0398,-3.0429,-3.0717,-2.9888,-2.955,-2.9431,-2.9279,-2.9128,-2.884,-2.8993,-2.8942,-2.8874,-2.8791,-2.8775,-2.8913,-2.9017,-2.9156,-2.9193,-2.9365,-2.9179,-2.8939,-2.8596,-2.8646,-2.8335,-2.7764,-2.7453,-2.7315,-2.7315,-2.7315,-2.7315,-2.7315,-2.7126,-2.7246,-2.7315,-2.7315,-2.7315,-2.7315,-2.7246,-2.6816,-2.6644,-2.5937,-2.4988,-2.46,-2.442,-2.4037,-2.3833,-2.3462,-2.3468,-2.3462,-2.3198,-2.3354,-2.3803,-2.3946,-2.3646,-2.3601,-2.3702,-2.3281,-2.2437,-2.2189,-2.2171,-2.1785,-2.1253,-2.0904,-4.2078,-4.2458,-4.1901,-4.2046,-4.2614,-4.2504,-4.252,-4.2645,-4.2489,-4.2109,-4.1525,-4.1459,-4.1091,-4.0322,-3.9123,-3.7984,-3.7215,-3.6645,-3.6492,-3.6492,-3.6693,-3.6723,-3.6754,-3.6769,-3.6631,-3.6383,-3.6058,-3.5561,-3.512,-3.4821,-3.475,-3.4398,-3.441,-3.4611,-3.4674,-3.427,-3.3983,-3.391,-3.3095,-3.2668,-3.2381,-3.1953,-3.1399,-3.1294,-3.1269,-3.1238,-3.1171,-3.1171,-3.119,-3.119,-3.119,-3.1072,-3.0835,-3.0581,-3.0108,-2.967,-2.9534,-2.96,-2.9501,-2.9264,-2.9044,-2.8993,-2.9145,-2.8873,-2.8721,-2.8857,-2.9384,-2.9539,-2.9474,-2.9463,-3.0134,-2.9828,-2.9367,-2.9128,-2.9042,-2.8767,-2.8455,-2.8127,-2.7522,-2.7368,-2.7349,-2.7315,-2.7315,-2.7315,-2.7315,-2.7315,-2.7315,-2.7315,-2.7315,-2.7315,-2.7194,-2.7126,-2.7092,-2.6057,-2.516,-2.5017,-2.4812,-2.4715,-2.4478,-2.4321,-2.4051,-2.325,-2.32,-2.3562,-2.3852,-2.383,-2.386,-2.3973,-2.38,-2.3205,-2.3079,-2.2988,-2.2611,-2.2152,-2.1492,-4.1492,-4.1426,-4.1109,-4.1376,-4.1868,-4.1575,-4.1689,-4.1885,-4.1608,-4.1309,-4.1057,-4.0972,-4.0802,-4.0281,-3.9524,-3.8292,-3.723,-3.6599,-3.6507,-3.6492,-3.6492,-3.6492,-3.6492,-3.6492,-3.6492,-3.643,-3.6138,-3.5814,-3.5521,-3.5457,-3.4825,-3.4365,-3.4374,-3.4493,-3.4423,-3.436,-3.4034,-3.3798,-3.3383,-3.2971,-3.276,-3.2258,-3.1893,-3.1566,-3.1577,-3.1446,-3.0949,-3.1131,-3.119,-3.119,-3.119,-3.119,-3.1089,-3.0869,-3.0514,-3.0142,-3.0076,-3.011,-3.0127,-3.0144,-3.0194,-3.0161,-3.0091,-3.004,-2.9888,-3.0074,-3.0159,-3.0332,-3.0423,-3.0394,-3.0768,-3.0488,-3.0235,-2.9946,-2.995,-2.9816,-2.9472,-2.9437,-2.8713,-2.7747,-2.7402,-2.7368,-2.7315,-2.7315,-2.7315,-2.7315,-2.7315,-2.7315,-2.7315,-2.7315,-2.7315,-2.7315,-2.7264,-2.6713,-2.5868,-2.571,-2.5537,-2.545,-2.5386,-2.5229,-2.4958,-2.4268,-2.3514,-2.3232,-2.35,-2.3685,-2.3795,-2.3769,-2.3858,-2.3945,-2.3648,-2.3405,-2.3363,-2.3033,-2.2373,-4.099,-4.0489,-4.0489,-4.0802,-4.1192,-4.0749,-4.0802,-4.1109,-4.0783,-4.0558,-4.0489,-4.0524,-4.0524,-4.0274,-3.9567,-3.8567,-3.7477,-3.6784,-3.6522,-3.6492,-3.6492,-3.6492,-3.6492,-3.6492,-3.6492,-3.6492,-3.643,-3.6245,-3.5906,-3.5801,-3.5363,-3.4773,-3.4781,-3.4529,-3.4191,-3.4177,-3.4184,-3.3957,-3.3689,-3.3315,-3.2862,-3.277,-3.2419,-3.1797,-3.2101,-3.1788,-3.0832,-3.0912,-3.1026,-3.1022,-3.1035,-3.1075,-3.1171,-3.119,-3.119,-3.119,-3.119,-3.119,-3.114,-3.1089,-3.0954,-3.092,-3.1106,-3.114,-3.1106,-3.0903,-3.1072,-3.121,-3.1164,-3.1138,-3.1152,-3.1278,-3.1064,-3.0829,-3.1043,-3.1346,-3.0729,-3.0351,-2.9903,-2.8954,-2.7938,-2.7438,-2.742,-2.7315,-2.7315,-2.7315,-2.7315,-2.7315,-2.7315,-2.7315,-2.7315,-2.7315,-2.723,-2.7006,-2.6609,-2.6419,-2.6262,-2.6102,-2.6081,-2.6011,-2.5791,-2.5468,-2.4667,-2.3841,-2.3042,-2.3242,-2.3393,-2.3584,-2.3649,-2.3721,-2.3795,-2.3818,-2.3737,-2.3648,-2.3226,-4.0593,-4.0489,-4.0489,-4.0543,-4.0612,-4.0524,-4.0524,-4.0627,-4.0558,-4.0489,-4.0489,-4.0489,-4.0489,-4.0228,-3.9213,-3.8277,-3.7523,-3.6923,-3.6569,-3.6507,-3.6492,-3.6492,-3.6492,-3.6492,-3.6492,-3.6492,-3.6492,-3.6476,-3.623,-3.5905,-3.561,-3.5158,-3.439,-3.3786,-3.4195,-3.3952,-3.3381,-3.3329,-3.3286,-3.2952,-3.2526,-3.3071,-3.2756,-3.2236,-3.2173,-3.1989,-3.0965,-3.0924,-3.0937,-3.0734,-3.0659,-3.0831,-3.1095,-3.119,-3.119,-3.119,-3.119,-3.119,-3.119,-3.119,-3.119,-3.119,-3.119,-3.119,-3.119,-3.119,-3.119,-3.119,-3.1193,-3.1232,-3.1252,-3.1252,-3.1242,-3.121,-3.1232,-3.1487,-3.1325,-3.1127,-3.0679,-3.0041,-2.9007,-2.8059,-2.7559,-2.742,-2.7315,-2.7315,-2.7315,-2.7315,-2.7315,-2.7315,-2.7315,-2.7315,-2.7315,-2.7109,-2.7023,-2.6885,-2.6799,-2.6676,-2.6676,-2.6661,-2.6506,-2.623,-2.5784,-2.4922,-2.3994,-2.3172,-2.3325,-2.3484,-2.3458,-2.3522,-2.3639,-2.3886,-2.4114,-2.3987,-2.3812,-4.0489,-4.0489,-4.0489,-4.0489,-4.0489,-4.0489,-4.0489,-4.0489,-4.0489,-4.0489,-4.0489,-4.0489,-4.0489,-4.0259,-3.9428,-3.8723,-3.8031,-3.7353,-3.683,-3.6553,-3.6507,-3.6492,-3.6492,-3.6492,-3.6492,-3.6492,-3.6492,-3.6492,-3.6368,-3.6215,-3.5907,-3.5444,-3.4921,-3.4529,-3.4423,-3.3983,-3.3634,-3.3326,-3.2979,-3.277,-3.2819,-3.3086,-3.2988,-3.21,-3.2514,-3.2038,-3.1318,-3.1259,-3.1325,-3.124,-3.124,-3.1232,-3.1349,-3.1362,-3.1344,-3.119,-3.119,-3.119,-3.119,-3.1207,-3.119,-3.119,-3.119,-3.119,-3.119,-3.119,-3.119,-3.119,-3.119,-3.121,-3.1232,-3.1193,-3.1249,-3.1286,-3.1249,-3.1308,-3.1481,-3.1709,-3.1386,-3.073,-3.004,-2.9007,-2.8044,-2.7649,-2.7475,-2.7299,-2.7299,-2.7315,-2.7315,-2.7315,-2.7315,-2.7315,-2.7315,-2.728,-2.723,-2.7177,-2.7125,-2.7039,-2.7039,-2.7056,-2.7092,-2.6833,-2.6385,-2.6197,-2.5722,-2.4861,-2.3919,-2.3309,-2.3244,-2.3354,-2.35,-2.3732,-2.3955,-2.4113,-2.3929,-4.0489,-4.0489,-4.0489,-4.0489,-4.0489,-4.0489,-4.0489,-4.0489,-4.0489,-4.0489,-4.0489,-4.0489,-4.0489,-4.0336,-3.9782,-3.9185,-3.869,-3.7892,-3.7277,-3.6861,-3.6584,-3.6492,-3.6492,-3.6492,-3.6492,-3.6492,-3.6492,-3.6492,-3.6492,-3.6415,-3.6168,-3.5737,-3.5445,-3.5198,-3.4807,-3.4359,-3.3964,-3.3373,-3.2977,-3.2831,-3.2922,-3.3082,-3.283,-3.2598,-3.2565,-3.2435,-3.1464,-3.1422,-3.1628,-3.1534,-3.1486,-3.1431,-3.1548,-3.1561,-3.1539,-3.1487,-3.1546,-3.1691,-3.1567,-3.1443,-3.1255,-3.119,-3.119,-3.119,-3.119,-3.119,-3.119,-3.119,-3.119,-3.119,-3.119,-3.119,-3.121,-3.121,-3.121,-3.119,-3.123,-3.1445,-3.1582,-3.1172,-3.0467,-2.9746,-2.8853,-2.8116,-2.7686,-2.7355,-2.7266,-2.7299,-2.7315,-2.7315,-2.7315,-2.7315,-2.7315,-2.7315,-2.7315,-2.7315,-2.7315,-2.7315,-2.7315,-2.7315,-2.7264,-2.7195,-2.6885,-2.6851,-2.6868,-2.6156,-2.4985,-2.3946,-2.3033,-2.3167,-2.3324,-2.3495,-2.37,-2.3886,-2.4026,-4.0489,-4.0489,-4.0489,-4.0489,-4.0489,-4.0489,-4.0489,-4.0489,-4.0489,-4.0489,-4.0489,-4.0489,-4.0489,-4.0351,-3.992,-3.9521,-3.9321,-3.806,-3.76,-3.723,-3.6846,-3.6599,-3.6522,-3.6492,-3.6492,-3.6492,-3.6492,-3.6492,-3.6492,-3.6492,-3.6445,-3.6368,-3.5876,-3.5584,-3.526,-3.4885,-3.4218,-3.3721,-3.3383,-3.2998,-3.292,-3.2908,-3.2922,-3.2617,-3.275,-3.262,-3.1473,-3.1543,-3.1566,-3.1419,-3.146,-3.154,-3.1733,-3.1763,-3.1735,-3.173,-3.1957,-3.2089,-3.2022,-3.1791,-3.1357,-3.1241,-3.1326,-3.1512,-3.1596,-3.136,-3.1258,-3.141,-3.1512,-3.1326,-3.1292,-3.119,-3.119,-3.119,-3.119,-3.119,-3.119,-3.121,-3.1317,-3.1327,-3.0905,-3.0222,-2.9709,-2.899,-2.8391,-2.8063,-2.7318,-2.7315,-2.7315,-2.7315,-2.7315,-2.7315,-2.7315,-2.7315,-2.7315,-2.7315,-2.7315,-2.7315,-2.7315,-2.7315,-2.7315,-2.7213,-2.7144,-2.7161,-2.7075,-2.6575,-2.6042,-2.4954,-2.4005,-2.3349,-2.3157,-2.3318,-2.3461,-2.3649,-2.3845,-4.0489,-4.0489,-4.0489,-4.0489,-4.0489,-4.0489,-4.0489,-4.0489,-4.0489,-4.0489,-4.0489,-4.0489,-4.0489,-4.0397,-4.0274,-3.9844,-3.949,-3.9077,-3.8308,-3.7661,-3.7215,-3.6876,-3.6692,-3.6522,-3.6492,-3.6492,-3.6492,-3.6492,-3.6492,-3.6492,-3.6492,-3.6368,-3.6153,-3.6168,-3.5891,-3.5399,-3.4737,-3.426,-3.3998,-3.3706,-3.318,-3.3107,-3.302,-3.2508,-3.252,-3.252,-3.2056,-3.1997,-3.1963,-3.1885,-3.1856,-3.1919,-3.1924,-3.1967,-3.1925,-3.1855,-3.2131,-3.2208,-3.2344,-3.2319,-3.2557,-3.256,-3.2577,-3.251,-3.2405,-3.251,-3.2544,-3.2476,-3.2087,-3.1867,-3.185,-3.1495,-3.119,-3.119,-3.119,-3.119,-3.119,-3.119,-3.1193,-3.1244,-3.1151,-3.0815,-3.0336,-2.9892,-2.9315,-2.8768,-2.7958,-2.7366,-2.7522,-2.7591,-2.7661,-2.7712,-2.7729,-2.7522,-2.7505,-2.7418,-2.7349,-2.7299,-2.7299,-2.7299,-2.7282,-2.7315,-2.7263,-2.7315,-2.7283,-2.6907,-2.6409,-2.5758,-2.4867,-2.38,-2.3262,-2.3109,-2.3254,-2.3387,-2.3518,-4.0489,-4.0489,-4.0489,-4.0489,-4.0489,-4.0489,-4.0489,-4.0489,-4.0489,-4.0489,-4.0489,-4.0489,-4.0489,-4.0489,-4.0459,-4.0274,-3.9859,-3.9474,-3.8908,-3.8369,-3.7923,-3.7415,-3.6999,-3.6784,-3.6769,-3.6584,-3.6492,-3.6492,-3.6492,-3.6492,-3.6492,-3.6492,-3.6492,-3.6461,-3.6353,-3.603,-3.546,-3.4967,-3.4751,-3.4443,-3.3814,-3.3719,-3.3411,-3.2859,-3.2823,-3.2607,-3.2441,-3.229,-3.2305,-3.2329,-3.2311,-3.2292,-3.2231,-3.2181,-3.2116,-3.2085,-3.2117,-3.2175,-3.2393,-3.2489,-3.2932,-3.2531,-3.289,-3.3131,-3.3533,-3.3503,-3.3144,-3.2949,-3.2685,-3.257,-3.2474,-3.2113,-3.1813,-3.185,-3.1292,-3.119,-3.119,-3.119,-3.119,-3.1196,-3.1121,-3.1115,-3.0923,-3.05,-2.9945,-2.9401,-2.8819,-2.8352,-2.8368,-2.8385,-2.8316,-2.8316,-2.8282,-2.8006,-2.7713,-2.7799,-2.7799,-2.7217,-2.7217,-2.7233,-2.7249,-2.7282,-2.7299,-2.7299,-2.725,-2.7186,-2.6742,-2.6076,-2.5062,-2.3955,-2.3482,-2.304,-2.2884,-2.2987,-2.3086,-4.0489,-4.0489,-4.0489,-4.0489,-4.0489,-4.0489,-4.0489,-4.0489,-4.0489,-4.0489,-4.0489,-4.0489,-4.0489,-4.0489,-4.0489,-4.0413,-4.0259,-3.9813,-3.9382,-3.9154,-3.8662,-3.8092,-3.7692,-3.7415,-3.72,-3.663,-3.6599,-3.6661,-3.6492,-3.6492,-3.6492,-3.6492,-3.6492,-3.6492,-3.6492,-3.6476,-3.6107,-3.5568,-3.5521,-3.509,-3.4628,-3.4459,-3.4044,-3.3567,-3.3244,-3.2967,-3.2705,-3.2444,-3.2413,-3.2398,-3.2398,-3.2388,-3.2381,-3.235,-3.2342,-3.2338,-3.2751,-3.2982,-3.3077,-3.2344,-3.2147,-3.2327,-3.296,-3.3328,-3.3842,-3.3777,-3.348,-3.3395,-3.317,-3.3053,-3.2998,-3.2864,-3.2563,-3.2341,-3.1799,-3.1309,-3.1326,-3.1529,-3.1613,-3.1292,-3.1235,-3.1259,-3.1237,-3.1053,-3.0505,-2.9999,-2.9573,-2.9351,-2.9265,-2.9024,-2.8869,-2.8818,-2.8766,-2.8422,-2.8181,-2.8334,-2.8196,-2.7562,-2.7322,-2.7512,-2.7389,-2.725,-2.7283,-2.7283,-2.7154,-2.7006,-2.675,-2.6424,-2.54,-2.4411,-2.3454,-2.2941,-2.2745,-2.2615,-2.273,-4.0489,-4.0489,-4.0489,-4.0489,-4.0489,-4.0489,-4.0489,-4.0489,-4.0489,-4.0489,-4.0489,-4.0489,-4.0489,-4.0489,-4.0489,-4.0489,-4.0428,-4.0366,-4.0043,-3.949,-3.9228,-3.8785,-3.8354,-3.8092,-3.7815,-3.7323,-3.7138,-3.6892,-3.6492,-3.663,-3.6553,-3.6492,-3.6538,-3.6492,-3.6492,-3.6492,-3.6307,-3.6184,-3.6107,-3.5876,-3.526,-3.5121,-3.4844,-3.4181,-3.3737,-3.3383,-3.3075,-3.2798,-3.2567,-3.2505,-3.249,-3.2459,-3.2413,-3.2398,-3.2398,-3.2398,-3.2668,-3.2641,-3.2637,-3.2363,-3.2621,-3.2917,-3.3258,-3.3716,-3.4426,-3.4445,-3.423,-3.3922,-3.3632,-3.351,-3.3449,-3.2929,-3.2705,-3.2951,-3.2527,-3.1833,-3.1698,-3.207,-3.2188,-3.1512,-3.1213,-3.1232,-3.1213,-3.123,-3.0819,-3.0605,-3.0218,-3.012,-3.0055,-2.9557,-2.9231,-2.9231,-2.9128,-2.8819,-2.8681,-2.8905,-2.8699,-2.8065,-2.803,-2.8235,-2.7977,-2.7477,-2.7234,-2.7234,-2.7023,-2.6808,-2.667,-2.6414,-2.5789,-2.4921,-2.4069,-2.3151,-2.2709,-2.2521,-2.2432,-4.0489,-4.0489,-4.0489,-4.0489,-4.0489,-4.0489,-4.0489,-4.0489,-4.0489,-4.0489,-4.0489,-4.0489,-4.0489,-4.0489,-4.0489,-4.0489,-4.0489,-4.0474,-4.0397,-3.9844,-3.9844,-3.9413,-3.9046,-3.88,-3.8446,-3.8015,-3.7815,-3.76,-3.7353,-3.723,-3.7107,-3.6923,-3.663,-3.6522,-3.6492,-3.6476,-3.6476,-3.6415,-3.6353,-3.6261,-3.5953,-3.5768,-3.5521,-3.4936,-3.4474,-3.4075,-3.3752,-3.3396,-3.3011,-3.2844,-3.2736,-3.2628,-3.2521,-3.2413,-3.2398,-3.2398,-3.2398,-3.2425,-3.2407,-3.2407,-3.2654,-3.3092,-3.3563,-3.3919,-3.4309,-3.4284,-3.4373,-3.4201,-3.4003,-3.3888,-3.3634,-3.3069,-3.3129,-3.3395,-3.3074,-3.2387,-3.256,-3.2983,-3.2425,-3.1732,-3.1241,-3.1224,-3.119,-3.121,-3.1097,-3.0983,-3.0904,-3.0812,-3.0753,-3.0327,-2.9916,-2.995,-2.9933,-2.9796,-2.9624,-2.9572,-2.9247,-2.8613,-2.8699,-2.8956,-2.8305,-2.7758,-2.7464,-2.7169,-2.7024,-2.6858,-2.6707,-2.6385,-2.5979,-2.5505,-2.4893,-2.3943,-2.2902,-2.255,-2.2431,-4.0489,-4.0489,-4.0489,-4.0489,-4.0489,-4.0489,-4.0489,-4.0489,-4.0489,-4.0489,-4.0489,-4.0489,-4.0489,-4.0489,-4.0489,-4.0489,-4.0489,-4.0489,-4.0443,-4.0413,-4.0305,-3.992,-3.9708,-3.9474,-3.9123,-3.8754,-3.8492,-3.8415,-3.8446,-3.8169,-3.7892,-3.7507,-3.6969,-3.6784,-3.6692,-3.6569,-3.6538,-3.6492,-3.6476,-3.6415,-3.6276,-3.6322,-3.6014,-3.5598,-3.526,-3.4921,-3.4613,-3.4274,-3.3935,-3.3688,-3.3429,-3.3013,-3.269,-3.2444,-3.2428,-3.2398,-3.2398,-3.2398,-3.2398,-3.2398,-3.2425,-3.2749,-3.2975,-3.324,-3.3553,-3.3843,-3.3944,-3.3969,-3.3792,-3.3872,-3.3808,-3.3729,-3.3649,-3.362,-3.3469,-3.3434,-3.3727,-3.3495,-3.2679,-3.2019,-3.1495,-3.1309,-3.1207,-3.119,-3.121,-3.1162,-3.1082,-3.1123,-3.1083,-3.1194,-3.0904,-3.0919,-3.0921,-3.0907,-3.0681,-3.0235,-2.9909,-2.931,-2.9448,-2.9569,-2.88,-2.8271,-2.8101,-2.781,-2.7213,-2.6891,-2.6724,-2.6572,-2.6369,-2.5912,-2.5455,-2.4677,-2.363,-2.2885,-2.2632,-4.0489,-4.0489,-4.0489,-4.0489,-4.0489,-4.0489,-4.0489,-4.0489,-4.0489,-4.0489,-4.0489,-4.0489,-4.0489,-4.0489,-4.0489,-4.0489,-4.0489,-4.0489,-4.0489,-4.0489,-4.0489,-4.0366,-4.0243,-4.009,-3.9751,-3.9413,-3.9185,-3.9031,-3.8616,-3.8554,-3.8523,-3.8123,-3.7538,-3.7292,-3.7061,-3.6753,-3.663,-3.6538,-3.6553,-3.6492,-3.6492,-3.6492,-3.6292,-3.6122,-3.5768,-3.546,-3.5275,-3.4828,-3.4474,-3.4274,-3.4197,-3.3858,-3.3198,-3.309,-3.3013,-3.2444,-3.2398,-3.2398,-3.2398,-3.2413,-3.2413,-3.2413,-3.2602,-3.2868,-3.3161,-3.3355,-3.3433,-3.3511,-3.3475,-3.3475,-3.3501,-3.3508,-3.3623,-3.3639,-3.36,-3.3893,-3.423,-3.4428,-3.3567,-3.2273,-3.1749,-3.1292,-3.119,-3.119,-3.119,-3.119,-3.121,-3.1249,-3.1223,-3.1268,-3.1408,-3.137,-3.1168,-3.095,-3.0912,-3.0551,-3.0362,-3.0139,-3.0226,-3.0209,-2.9746,-2.9269,-2.8931,-2.8218,-2.7283,-2.6893,-2.6725,-2.6606,-2.6505,-2.6353,-2.5913,-2.5169,-2.4408,-2.368,-2.3105,-4.0489,-4.0489,-4.0489,-4.0489,-4.0489,-4.0489,-4.0489,-4.0489,-4.0489,-4.0489,-4.0489,-4.0489,-4.0489,-4.0489,-4.0489,-4.0489,-4.0489,-4.0489,-4.0489,-4.0489,-4.0489,-4.0474,-4.0489,-4.0474,-4.0228,-3.9967,-3.9844,-3.9721,-3.9228,-3.897,-3.8893,-3.8846,-3.8246,-3.7969,-3.7723,-3.7323,-3.6969,-3.683,-3.6707,-3.6553,-3.6492,-3.6492,-3.6492,-3.6415,-3.5999,-3.5907,-3.583,-3.5367,-3.5198,-3.4967,-3.4905,-3.4566,-3.3983,-3.3814,-3.3767,-3.3365,-3.3365,-3.3136,-3.2967,-3.2844,-3.2659,-3.249,-3.2456,-3.2574,-3.2722,-3.2884,-3.3055,-3.3188,-3.3055,-3.2949,-3.3002,-3.3108,-3.3355,-3.3582,-3.3862,-3.4153,-3.4695,-3.5311,-3.4271,-3.2763,-3.1952,-3.1393,-3.119,-3.119,-3.119,-3.119,-3.119,-3.121,-3.1046,-3.0868,-3.1072,-3.124,-3.097,-3.0736,-3.0698,-3.0696,-3.0575,-3.0525,-3.0794,-3.0707,-3.0463,-3.0025,-2.9453,-2.8352,-2.7114,-2.6877,-2.6742,-2.6708,-2.6623,-2.6471,-2.6387,-2.5964,-2.527,-2.4525,-2.4034,-4.0489,-4.0489,-4.0489,-4.0489,-4.0489,-4.0489,-4.0489,-4.0489,-4.0489,-4.0489,-4.0489,-4.0489,-4.0489,-4.0489,-4.0489,-4.0489,-4.0489,-4.0489,-4.0489,-4.0489,-4.0489,-4.0489,-4.0489,-4.0474,-4.0397,-4.0459,-4.0413,-4.0213,-4.0228,-3.989,-3.9551,-3.9554,-3.8908,-3.8585,-3.8492,-3.7908,-3.7584,-3.7523,-3.7169,-3.6876,-3.6569,-3.6492,-3.6492,-3.6492,-3.6445,-3.643,-3.6445,-3.6338,-3.6215,-3.5814,-3.5506,-3.5244,-3.4813,-3.4412,-3.4382,-3.4335,-3.4181,-3.3829,-3.3521,-3.3413,-3.3136,-3.2844,-3.2548,-3.2792,-3.303,-3.2683,-3.2765,-3.2857,-3.2749,-3.2749,-3.2803,-3.2749,-3.2911,-3.3029,-3.3172,-3.3588,-3.4153,-3.4551,-3.4102,-3.2769,-3.1933,-3.1395,-3.0975,-3.0918,-3.0918,-3.1035,-3.1055,-3.1055,-3.0836,-3.054,-3.0666,-3.0934,-3.0707,-3.0421,-3.03,-3.0349,-3.062,-3.077,-3.0855,-3.0601,-2.9905,-2.9803,-2.9854,-2.8469,-2.7029,-2.6894,-2.6776,-2.6742,-2.6708,-2.6657,-2.6607,-2.6657,-2.6133,-2.5354,-2.4814,-4.0489,-4.0489,-4.0489,-4.0489,-4.0489,-4.0489,-4.0489,-4.0489,-4.0489,-4.0489,-4.0489,-4.0489,-4.0489,-4.0489,-4.0489,-4.0489,-4.0489,-4.0489,-4.0489,-4.0489,-4.0489,-4.0489,-4.0489,-4.0489,-4.0489,-4.0489,-4.0489,-4.0489,-4.0428,-4.029,-4.0213,-4.0151,-3.9601,-3.9277,-3.9231,-3.86,-3.8277,-3.8246,-3.7954,-3.7338,-3.6784,-3.6569,-3.6492,-3.6507,-3.6522,-3.6492,-3.6492,-3.6476,-3.6415,-3.6292,-3.6261,-3.5876,-3.5321,-3.4828,-3.4566,-3.4505,-3.4628,-3.4366,-3.406,-3.4014,-3.3906,-3.3644,-3.3475,-3.3706,-3.3581,-3.2829,-3.2514,-3.2582,-3.2574,-3.2574,-3.2574,-3.2492,-3.2437,-3.2465,-3.2532,-3.3066,-3.3582,-3.3608,-3.3632,-3.2857,-3.1945,-3.1362,-3.0858,-3.0658,-3.0662,-3.0642,-3.0658,-3.0588,-3.0397,-3.0155,-3.023,-3.0404,-3.0326,-3.011,-3.0006,-2.9856,-3.0025,-2.9907,-2.9805,-2.9551,-2.933,-2.9399,-2.9348,-2.8112,-2.7029,-2.7046,-2.6962,-2.6725,-2.6708,-2.6708,-2.6708,-2.6708,-2.6691,-2.6083,-2.5592,-4.0228,-4.0474,-4.0489,-4.0489,-4.0489,-4.0489,-4.0489,-4.0489,-4.0489,-4.0489,-4.0489,-4.0489,-4.0489,-4.0489,-4.0489,-4.0489,-4.0489,-4.0489,-4.0489,-4.0489,-4.0489,-4.0489,-4.0489,-4.0489,-4.0489,-4.0489,-4.0489,-4.0489,-4.0489,-4.0474,-4.0443,-4.0443,-4.0043,-3.9874,-3.9813,-3.9305,-3.8936,-3.8906,-3.8739,-3.8138,-3.7307,-3.7153,-3.6984,-3.6923,-3.6707,-3.6599,-3.6492,-3.6492,-3.6492,-3.6492,-3.6445,-3.6368,-3.5938,-3.566,-3.5475,-3.546,-3.5398,-3.5106,-3.4706,-3.4614,-3.4782,-3.4491,-3.3921,-3.3952,-3.4289,-3.3673,-3.3383,-3.336,-3.2604,-3.2496,-3.248,-3.2425,-3.2425,-3.2437,-3.252,-3.2815,-3.3191,-3.3364,-3.3057,-3.2397,-3.156,-3.0888,-3.0456,-3.0182,-3.0166,-3.0166,-3.0182,-3.0251,-3.0044,-2.9866,-2.9922,-2.9889,-2.9838,-2.9943,-2.9989,-2.9617,-2.9281,-2.9077,-2.8942,-2.9061,-2.9162,-2.9077,-2.8739,-2.8518,-2.8095,-2.7452,-2.7317,-2.6962,-2.6725,-2.6708,-2.6708,-2.6691,-2.6674,-2.6624,-2.6067,-3.989,-4.0459,-4.0489,-4.0489,-4.0489,-4.0489,-4.0489,-4.0489,-4.0489,-4.0489,-4.0489,-4.0489,-4.0489,-4.0489,-4.0489,-4.0489,-4.0489,-4.0489,-4.0489,-4.0489,-4.0489,-4.0489,-4.0489,-4.0489,-4.0489,-4.0489,-4.0489,-4.0489,-4.0489,-4.0489,-4.0489,-4.0489,-4.0489,-4.0474,-4.032,-3.9997,-3.9613,-3.949,-3.9308,-3.8939,-3.8477,-3.8031,-3.7754,-3.74,-3.703,-3.6661,-3.663,-3.6522,-3.6538,-3.6492,-3.6492,-3.6445,-3.6415,-3.623,-3.6276,-3.6199,-3.6168,-3.583,-3.5522,-3.546,-3.5445,-3.5168,-3.446,-3.4352,-3.4782,-3.4751,-3.446,-3.3875,-3.3121,-3.2521,-3.2505,-3.2398,-3.2398,-3.2425,-3.2508,-3.2656,-3.2903,-3.307,-3.2561,-3.1999,-3.1368,-3.0651,-3.0167,-2.9899,-2.9722,-2.9722,-2.975,-2.9821,-2.981,-2.968,-2.9637,-2.9538,-2.9447,-2.9595,-2.9542,-2.9242,-2.8617,-2.8756,-2.8705,-2.8874,-2.9027,-2.9145,-2.9568,-3.0277,-2.977,-2.8483,-2.7587,-2.7114,-2.6928,-2.6708,-2.6691,-2.6657,-2.664,-2.6539,-2.6219,-3.9874,-4.0489,-4.0489,-4.0489,-4.0489,-4.0489,-4.0489,-4.0489,-4.0489,-4.0489,-4.0489,-4.0489,-4.0489,-4.0489,-4.0489,-4.0489,-4.0489,-4.0489,-4.0489,-4.0489,-4.0489,-4.0489,-4.0489,-4.0489,-4.0489,-4.0489,-4.0489,-4.0489,-4.0489,-4.0489,-4.0489,-4.0489,-4.0489,-4.0489,-4.0474,-4.0243,-4.0166,-4.0059,-4.0074,-3.9859,-3.9613,-3.9123,-3.8431,-3.8046,-3.7661,-3.743,-3.72,-3.6753,-3.6569,-3.6492,-3.6492,-3.6492,-3.6492,-3.6492,-3.6492,-3.6492,-3.6492,-3.6368,-3.6107,-3.6091,-3.6014,-3.603,-3.5568,-3.566,-3.5891,-3.5907,-3.5491,-3.4905,-3.4089,-3.3059,-3.2813,-3.249,-3.2398,-3.2398,-3.2453,-3.2695,-3.2966,-3.2762,-3.2384,-3.1972,-3.1498,-3.0783,-3.0045,-2.972,-2.933,-2.9291,-2.9227,-2.928,-2.909,-2.9166,-2.9325,-2.9208,-2.9073,-2.8347,-2.7951,-2.8318,-2.8039,-2.8227,-2.8465,-2.8629,-2.8933,-2.9397,-2.9888,-3.0142,-3.0006,-2.9025,-2.823,-2.7215,-2.6911,-2.6691,-2.664,-2.6606,-2.6589,-2.6504,-2.6267]},{"header":{"parameterUnit":"m.s-1","parameterCategory":1,"la1":31.0,"la2":29.5877,"lo1":-88.7671,"lo2":-86.6584,"dy":0.0162,"dx":0.0185,"nx":115,"ny":88,"refTime":"2026-04-12T00:00:00:Z","depth":0,"parameterNumber":3,"parameterNumberName":"V-component_of_WINDS"},"data":[0.0,0.0,0.0,0.0,0.0,0.0,0.0,0.0,0.0,0.0,0.0,0.0,0.0,0.0,0.0,0.0,0.0,0.0,0.0,0.0,0.0,0.0,0.0,0.0,0.0,0.0,0.0,0.0,0.0,0.0,0.0,0.0,0.0,0.0,0.0,0.0,0.0,0.0,0.0,0.0,0.0,0.0,0.0,0.0,0.0,0.0,0.0,0.0,0.0,0.0,0.0,0.0,0.0,0.0,0.0,0.0,0.0,0.0,0.0,0.0,0.0,0.0,0.0,0.0,0.0,0.0,0.0,0.0,0.0,0.0,0.0,0.0,0.0,0.0,0.0,0.0,0.0,0.0,0.0,0.0,0.0,0.0,0.0,0.0,0.0,0.0,0.0,0.0,0.0,0.0,0.0,0.0,0.0,0.0,0.0,0.0,0.0,0.0,0.0,0.0,0.0,0.0,0.0,0.0,0.0,0.0,0.0,0.0,0.0,0.0,0.0,0.0,0.0,0.0,0.0,0.0,0.0,0.0,0.0,0.0,0.0,0.0,0.0,0.0,0.0,0.0,0.0,0.0,0.0,0.0,0.0,0.0,0.0,0.0,0.0,0.0,0.0,0.0,0.0,0.0,0.0,0.0,0.0,0.0,0.0,0.0,0.0,0.0,0.0,0.0,0.0,0.0,0.0,0.0,0.0,0.0,0.0,0.0,0.0,0.0,0.0,0.0,0.0,0.0,0.0,0.0,0.0,0.0,0.0,0.0,0.0,0.0,0.0,0.0,0.0,0.0,0.0,0.0,0.0,0.0,0.0,0.0,0.0,0.0,0.0,0.0,0.0,0.0,0.0,0.0,0.0,0.0,0.0,0.0,0.0,0.0,0.0,0.0,0.0,0.0,0.0,0.0,0.0,0.0,0.0,0.0,0.0,0.0,0.0,0.0,0.0,0.0,0.0,0.0,0.0,0.0,0.0,0.0,0.0,0.0,0.0,0.0,0.0,0.0,0.0,0.0,0.0,0.0,0.0,0.0,0.0,0.0,0.0,0.0,0.0,0.0,0.0,0.0,0.0,0.0,0.0,0.0,0.0,0.0,0.0,0.0,0.0,0.0,0.0,0.0,0.0,0.0,0.0,0.0,0.0,0.0,0.0,0.0,0.0,0.0,0.0,0.0,0.0,0.0,0.0,0.0,0.0,0.0,0.0,0.0,0.0,0.0,0.0,0.0,0.0,0.0,0.0,0.0,0.0,0.0,0.0,0.0,0.0,0.0,0.0,0.0,0.0,0.0,0.0,0.0,0.0,0.0,0.0,0.0,0.0,0.0,0.0,0.0,0.0,0.0,0.0,0.0,0.0,0.0,0.0,0.0,0.0,0.0,0.0,0.0,0.0,0.0,0.0,0.0,0.0,0.0,0.0,0.0,0.0,0.0,0.0,0.0,0.0,0.0,0.0,0.0,0.0,0.0,0.0,0.0,0.0,0.0,0.0,0.0,0.0,0.0,0.0,0.0,0.0,0.0,0.0,0.0,0.0,0.0,0.0,0.0,0.0,0.0,0.0,0.0,0.0,0.0,0.0,0.0,0.0,0.0,0.0,0.0,0.0,0.0,0.0,0.0,0.0,0.0,0.0,0.0,0.0,0.0,0.0,0.0,0.0,0.0,0.0,0.0,0.0,0.0,0.0,0.0,0.0,0.0,0.0,0.0,0.0,0.0,0.0,0.0,0.0,0.0,0.0,0.0,0.0,0.0,0.0,0.0,0.0,0.0,0.0,0.0,0.0,0.0,0.0,0.0,0.0,0.0,0.0,0.0,0.0,0.0,0.0,0.0,0.0,0.0,0.0,0.0,0.0,0.0,0.0,0.0,0.0,0.0,0.0,0.0,0.0,0.0,0.0,0.0,0.0,0.0,0.0,0.0,0.0,0.0,0.0,0.0,0.0,0.0,0.0,0.0,0.0,0.0,0.0,0.0,0.0,0.0,0.0,0.0,0.0,0.0,0.0,0.0,0.0,0.0,0.0,0.0,0.0,0.0,0.0,0.0,0.0,0.0,0.0,0.0,0.0,0.0,0.0,0.0,0.0,0.0,0.0,0.0,0.0,0.0,0.0,0.0,0.0,0.0,0.0,0.0,0.0,0.0,0.0,0.0,0.0,0.0,0.0,0.0,0.0,0.0,0.0,0.0,0.0,0.0,0.0,0.0,0.0,0.0,0.0,0.0,0.0,0.0,0.0,0.0,0.0,0.0,0.0,0.0,0.0,0.0,0.0,0.0,0.0,0.0,0.0,0.0,0.0,0.0,0.0,0.0,0.0,0.0,0.0,0.0,0.0,0.0,0.0,0.0,0.0,0.0,0.0,0.0,0.0,0.0,0.0,0.0,0.0,0.0,0.0,0.0,0.0,0.0,0.0,0.0,0.0,0.0,0.0,0.0,0.0,0.0,0.0,0.0,0.0,0.0,0.0,0.0,0.0,0.0,0.0,0.0,0.0,0.0,0.0,0.0,0.0,0.0,0.0,0.0,0.0,0.0,0.0,0.0,0.0,0.0,0.0,0.0,0.0,0.0,0.0,0.0,0.0,0.0,0.0,0.0,0.0,0.0,0.0,0.0,0.0,0.0,0.0,0.0,0.0,0.0,0.0,0.0,0.0,0.0,0.0,0.0,0.0,0.0,0.0,0.0,0.0,0.0,0.0,0.0,0.0,0.0,0.0,0.0,0.0,0.0,0.0,0.0,0.0,0.0,0.0,0.0,0.0,0.0,0.0,0.0,0.0,0.0,0.0,0.0,0.0,0.0,0.0,0.0,0.0,0.0,0.0,0.0,0.0,0.0,0.0,0.0,0.0,0.0,0.0,0.0,0.0,0.0,0.0,0.0,0.0,0.0,0.0,0.0,0.0,0.0,0.0,0.0,0.0,0.0,0.0,0.0,0.0,0.0,0.0,0.0,0.0,0.0,0.0,0.0,0.0,0.0,0.0,0.0,0.0,0.0,0.0,0.0,0.0,0.0,0.0,0.0,0.0,0.0,0.0,0.0,0.0,0.0,0.0,0.0,0.0,0.0,0.0,0.0,0.0,0.0,0.0,0.0,0.0,0.0,0.0,0.0,0.0,0.0,0.0,0.0,0.0,0.0,0.0,0.0,0.0,0.0,0.0,0.0,0.0,0.0,0.0,0.0,0.0,0.0,0.0,0.0,0.0,0.0,0.0,0.0,0.0,0.0,0.0,0.0,0.0,0.0,0.0,0.0,0.0,0.0,0.0,0.0,0.0,0.0,0.0,0.0,0.0,0.0,0.0,0.0,0.0,0.0,0.0,0.0,0.0,0.0,0.0,0.0,0.0,0.0,0.0,0.0,0.0,0.0,0.0,0.0,0.0,0.0,0.0,0.0,0.0,0.0,0.0,0.0,0.0,0.0,0.0,0.0,0.0,0.0,0.0,0.0,0.0,0.0,0.0,0.0,0.0,0.0,0.0,0.0,0.0,0.0,0.0,0.0,0.0,0.0,0.0,0.0,0.0,0.0,0.0,0.0,0.0,0.0,0.0,0.0,0.0,0.0,0.0,0.0,0.0,0.0,0.0,0.0,0.0,0.0,0.0,0.0,0.0,0.0,0.0,0.0,0.0,0.0,0.0,0.0,0.0,0.0,0.0,0.0,0.0,0.0,0.0,0.0,0.0,0.0,0.0,0.0,0.0,0.0,0.0,0.0,0.0,0.0,0.0,0.0,0.0,0.0,0.0,0.0,0.0,0.0,0.0,0.0,0.0,0.0,0.0,0.0,0.0,0.0,0.0,0.0,0.0,0.0,0.0,0.0,0.0,0.0,0.0,0.0,0.0,0.0,0.0,0.0,0.0,0.0,0.0,0.0,0.0,0.0,0.0,0.0,0.0,0.0,0.0,0.0,0.0,0.0,0.0,0.0,0.0,0.0,0.0,0.0,0.0,0.0,0.0,0.0,0.0,0.0,0.0,0.0,0.0,0.0,0.0,0.0,0.0,0.0,0.0,0.0,0.0,0.0,0.0,0.0,0.0,0.0,0.0,0.0,0.0,0.0,0.0,0.0,0.0,0.0,0.0,0.0,0.0,0.0,0.0,0.0,0.0,0.0,0.0,0.0,0.0,0.0,0.0,0.0,0.0,0.0,0.0,0.0,0.0,0.0,0.0,0.0,0.0,0.0,0.0,0.0,0.0,0.0,0.0,0.0,0.0,0.0,0.0,0.0,0.0,0.0,0.0,0.0,0.0,0.0,0.0,0.0,0.0,0.0,0.0,0.0,0.0,0.0,0.0,0.0,0.3911,0.0,0.0,0.0,0.0,0.0,0.0,0.0,0.0,0.0,0.0,0.0,0.0,0.0,0.0,0.0,0.0,0.0,0.0,0.0,0.0,0.0,0.0,0.0,0.0,0.0,0.0,0.0,0.0,0.0,0.0,0.0,0.0,0.0,0.0,0.0,0.0,0.0,0.0,0.0,0.0,0.0,0.0,0.0,0.0,0.0,0.0,0.0,0.0,0.0,0.0,0.0,0.0,0.0,0.0,0.0,0.0,0.0,0.0,0.0,0.0,0.0,0.0,0.0,0.0,0.0,0.0,0.0,0.0,0.0,0.0,0.0,0.0,0.0,0.0,0.0,0.0,0.0,0.0,0.0,0.0,0.0,0.0,0.0,0.0,0.0,0.0,0.0,0.0,0.0,0.0,0.0,0.0,0.0,0.0,0.0,0.0,0.0,0.0,0.0,0.0,0.0,0.0,0.0,0.0,0.0,0.0,0.0,0.0,0.0,0.0,0.382,0.3911,0.3911,0.3911,0.3911,0.0,0.0,0.0,0.0,0.0,0.0,0.0,0.0,0.0,0.0,0.0,0.0,0.0,0.0,0.0,0.0,0.0,0.0,0.0,0.0,0.0,0.0,0.0,0.0,0.0,0.0,0.0,0.0,0.0,0.0,0.0,0.0,0.0,0.0,0.0,0.0,0.0,0.0,0.0,0.0,0.0,0.0,0.0,0.0,0.0,0.0,0.0,0.0,0.0,0.0,0.0,0.0,0.0,0.0,0.0,0.0,0.0,0.0,0.0,0.0,0.0,0.0,0.0,0.0,0.0,0.0,0.0,0.0,0.0,0.0,0.0,0.0,0.0,0.0,0.0,0.0,0.0,0.0,0.0,0.0,0.0,0.0,0.0,0.0,0.0,0.0,0.0,0.0,0.0,0.0,0.0,0.0,0.0,0.0,0.0,0.0,0.0,0.0,0.0,0.0,0.0,0.0,0.0,0.0,0.0,0.0,0.0,0.0,0.0,0.0,0.0,0.0,0.399,0.4001,0.4008,0.0,0.0,0.0,0.0,0.0,0.0,0.0,0.0,0.0,0.0,0.0,0.0,0.0,0.0,0.0,0.0,0.0,0.0,0.0,0.0,0.0,0.0,0.0,0.0,0.0,0.0,0.0,0.0,0.0,0.0,0.0,0.0,0.0,0.0,0.0,0.0,0.0,0.0,0.0,0.0,0.0,0.0,0.0,0.0,0.0,0.0,0.0,0.0,0.0,0.0,0.0,0.0,0.0,0.0,0.0,0.0,0.0,0.0,0.0,0.0,0.0,0.0,0.0,0.0,0.0,0.0,0.0,0.0,0.0,0.0,0.0,0.0,0.0,0.0,0.0,0.0,0.0,0.0,0.0,0.0,0.0,0.0,0.0,0.0,0.0,0.0,0.0,0.0,0.0,0.0,0.0,0.0,0.0,0.0,0.0,0.0,0.0,0.0,0.0,0.0,0.0,0.0,0.0,0.0,0.0,0.0,0.0,0.0,0.0,0.0,0.3952,0.4242,0.4261,0.0,0.4272,0.0,0.0,0.0,0.0,0.0,0.0,0.0,0.0,0.0,0.0,0.0,0.0,0.0,0.0,0.0,0.0,0.0,0.0,0.0,0.0,0.0,0.0,0.0,0.0,0.0,0.0,0.0,0.0,0.0,0.0,0.0,0.0,0.0,0.0,0.0,0.0,0.0,0.0,0.0,0.0,0.0,0.0,0.0,0.0,0.0,0.0,0.0,0.0,0.0,0.0,0.0,0.0,0.0,0.0,0.0,0.0,0.0,0.0,0.0,0.0,0.0,0.0,0.0,0.0,0.0,0.0,0.0,0.0,0.0,0.0,0.0,0.0,0.0,0.0,0.0,0.0,0.0,0.0,0.0,0.0,0.0,0.0,0.0,0.0,0.0,0.0,0.0,0.0,0.0,0.0,0.0,0.0,0.0,0.0,0.0,0.0,0.0,0.0,0.0,0.0,0.0,0.0,0.0,0.0,0.0,0.0,0.0,0.0,0.0,0.0,0.4366,0.4301,0.4301,0.4301,0.0,0.0,0.0,0.0,0.0,0.0,0.0,0.0,0.0,0.0,0.0,0.0,0.0,0.0,0.0,0.0,0.0,0.0,0.0,0.0,0.0,0.0,0.0,0.0,0.0,0.0,0.0,0.0,0.0,0.0,0.0,0.0,0.0,0.0,0.0,0.0,0.0,0.0,0.0,0.0,0.0,0.0,0.0,0.0,0.0,0.0,0.0,0.0,0.0,0.0,0.0,0.0,0.0,0.0,0.0,0.0,0.0,0.0,0.0,0.0,0.0,0.0,0.0,0.0,0.0,0.0,0.0,0.0,0.0,0.0,0.0,0.0,0.0,0.0,0.0,0.0,0.0,0.0,0.0,0.0,0.0,0.0,0.0,0.0,0.0,0.0,0.0,0.0,0.0,0.0,0.0,0.0,0.0,0.0,0.0,0.0,0.0,0.0,0.0,0.0,0.0,0.0,0.0,0.0,0.0,0.0,0.0,0.0,0.0,0.0,0.4629,0.4734,0.4575,0.4572,0.4519,0.4413,0.0,0.0,0.0,0.0,0.0,0.0,0.0,0.0,0.0,0.0,0.0,0.0,0.0,0.0,0.0,0.0,0.0,0.0,0.0,0.0,0.0,0.0,0.0,0.0,0.0,0.0,0.0,0.0,0.0,0.0,0.0,0.0,0.0,0.0,0.0,0.0,0.0,0.0,0.0,0.0,0.0,0.0,0.0,0.0,0.0,0.0,0.0,0.0,0.0,0.0,0.0,0.0,0.0,0.0,0.0,0.0,0.0,0.0,0.0,0.0,0.0,0.0,0.0,0.0,0.0,0.0,0.0,0.0,0.0,0.0,0.0,0.0,0.0,0.0,0.0,0.0,0.0,0.0,0.0,0.0,0.0,0.0,0.0,0.0,0.0,0.0,0.0,0.0,0.0,0.0,0.0,0.0,0.0,0.0,0.0,0.0,0.0,0.0,0.0,0.0,0.0,0.0,0.0,0.0,0.0,0.0,0.0,0.0,0.0,0.4939,0.4953,0.5245,0.5259,0.5082,0.0,0.0,0.0,0.0,0.0,0.0,0.0,0.0,0.0,0.0,0.0,0.0,0.0,0.0,0.0,0.0,0.0,0.0,0.0,0.0,0.0,0.0,0.0,0.0,0.0,0.0,0.0,0.0,0.0,0.0,0.0,0.0,0.0,0.0,0.0,0.0,0.0,0.0,0.0,0.0,0.0,0.0,0.0,0.0,0.0,0.0,0.0,0.0,0.0,0.0,0.0,0.0,0.0,0.0,0.0,0.0,0.0,0.0,0.0,0.0,0.0,0.0,0.0,0.0,0.0,0.0,0.0,0.0,0.0,0.0,0.0,0.0,0.0,0.0,0.0,0.0,0.0,0.0,0.0,0.0,0.0,0.0,0.0,0.0,0.0,0.0,0.0,0.0,0.0,0.0,0.0,0.0,0.0,0.0,0.0,0.0,0.0,0.0,0.0,0.0,0.0,0.0,0.0,0.0,0.0,0.0,0.0,0.0,0.0,0.4381,0.4448,0.4942,0.5851,0.5111,0.4727,0.0,0.0,0.0,0.0,0.0,0.0,0.0,0.0,0.0,0.0,0.0,0.0,0.0,0.0,0.0,0.0,0.0,0.0,0.0,0.0,0.0,0.0,0.0,0.0,0.0,0.0,0.0,0.0,0.0,0.0,0.0,0.0,0.0,0.0,0.0,0.0,0.0,0.0,0.0,0.0,0.0,0.0,0.0,0.0,0.0,0.0,0.0,0.0,0.0,0.0,0.0,0.0,0.0,0.0,0.0,0.0,0.0,0.0,0.0,0.0,0.0,0.0,0.0,0.0,0.0,0.0,0.0,0.0,0.0,0.0,0.0,0.0,0.0,0.0,0.0,0.0,0.0,0.0,0.0,0.0,0.0,0.0,0.0,0.0,0.0,0.0,0.0,0.0,0.0,0.0,0.0,0.0,0.0,0.0,0.0,0.0,0.0,0.0,0.0,0.0,0.0,0.0,0.0,0.0,0.0,0.0,0.0,0.0,0.0,0.4506,0.0,0.5622,0.0,0.5364,0.4898,0.0,0.0,0.0,0.0,0.0,0.0,0.0,0.0,0.0,0.0,0.0,0.0,0.0,0.0,0.0,0.0,0.0,0.0,0.0,0.0,0.0,0.0,0.0,0.0,0.0,0.0,0.0,0.0,0.0,0.0,0.0,0.0,0.0,0.0,0.0,0.0,0.0,0.0,0.0,0.0,0.0,0.0,0.0,0.0,0.0,0.0,0.0,0.0,0.0,0.0,0.0,0.0,0.0,0.0,0.0,0.0,0.0,0.0,0.0,0.0,0.0,0.0,0.0,0.0,0.0,0.0,0.0,0.0,0.0,0.0,0.0,0.0,0.0,0.0,0.0,0.0,0.0,0.0,0.0,0.0,0.0,0.0,0.0,0.0,0.0,0.0,0.0,0.0,0.0,0.0,0.0,0.0,0.0,0.0,0.0,0.0,0.0,0.0,0.0,0.0,0.0,0.0,0.0,0.0,0.0,0.0,0.0,0.0,0.4553,0.5746,0.6759,0.6844,0.6146,0.605,0.5648,0.0,0.0,0.0,0.0,0.0,0.0,0.0,0.0,0.0,0.0,0.0,0.0,0.0,0.0,0.0,0.0,0.0,0.0,0.0,0.0,0.0,0.0,0.0,0.0,0.0,0.0,0.0,0.0,0.0,0.0,0.0,0.0,0.0,0.0,0.0,0.0,0.0,0.0,0.0,0.0,0.0,0.0,0.0,0.0,0.0,0.0,0.0,0.0,0.0,0.0,0.0,0.0,0.0,0.0,0.0,0.0,0.0,0.0,0.0,0.0,0.0,0.0,0.0,0.0,0.0,0.0,0.0,0.0,0.0,0.0,0.0,0.0,0.0,0.0,0.0,0.0,0.0,0.0,0.0,0.0,0.0,0.0,0.0,0.0,0.0,0.0,0.0,0.0,0.0,0.0,0.0,0.0,0.0,0.0,0.0,0.0,0.0,0.0,0.0,0.0,0.0,0.0,0.0,0.0,0.0,0.0,0.0,0.0,0.0,0.546,0.5774,0.6285,0.6919,0.5787,0.5374,0.0,0.0,0.0,0.0,0.0,0.0,0.0,0.0,0.0,0.0,0.0,0.0,0.0,0.0,0.0,0.0,0.0,0.0,0.0,0.0,0.0,0.0,0.0,0.0,0.0,0.0,0.0,0.0,0.0,0.0,0.0,0.0,0.0,0.0,0.0,0.0,0.0,0.0,0.0,0.0,0.0,0.0,0.0,0.0,0.0,0.0,0.0,0.0,0.0,0.0,0.0,0.0,0.0,0.0,0.0,0.0,0.0,0.0,0.0,0.0,0.0,0.0,0.0,0.0,0.0,0.0,0.0,0.0,0.0,0.0,0.0,0.0,0.0,0.0,0.0,0.0,0.0,0.0,0.0,0.0,0.0,0.0,0.0,0.0,0.0,0.0,0.0,0.0,0.0,0.0,0.0,0.0,0.0,0.0,0.0,0.0,0.0,0.0,0.0,0.0,0.0,0.0,0.0,0.0,0.0,0.0,0.0,0.0,0.0,0.6235,0.6653,0.7096,0.75,0.6417,0.5923,0.6139,0.0,0.0,0.0,0.0,0.0,0.0,0.0,0.0,0.0,0.0,0.0,0.0,0.0,0.0,0.0,0.0,0.0,0.0,0.0,0.0,0.0,0.0,0.0,0.0,0.0,0.0,0.0,0.0,0.0,0.0,0.0,0.0,0.0,0.0,0.0,0.0,0.0,0.0,0.0,0.0,0.0,0.0,0.0,0.0,0.0,0.0,0.0,0.0,0.0,0.0,0.0,0.0,0.0,0.0,0.0,0.0,0.0,0.0,0.0,0.0,0.0,0.0,0.0,0.0,0.0,0.0,0.0,0.0,0.0,0.0,0.0,0.0,0.0,0.0,0.0,0.0,0.0,0.0,0.0,0.0,0.0,0.0,0.0,0.0,0.0,0.0,0.0,0.0,0.0,0.0,0.0,0.0,0.0,0.0,0.0,0.0,0.0,0.0,0.0,0.0,0.0,0.0,0.0,0.0,0.0,0.0,0.0,0.0,0.7756,0.9049,0.9079,0.7801,0.7681,0.7121,0.0,0.0,0.0,0.0,0.0,0.0,0.0,0.0,0.0,0.0,0.0,0.0,0.0,0.0,0.0,0.0,0.0,0.0,0.0,0.0,0.0,0.0,0.0,0.0,0.0,0.0,0.0,0.0,0.0,0.0,0.0,0.0,0.0,0.0,0.0,0.0,0.0,0.0,0.0,0.0,0.0,0.0,0.0,0.0,0.0,0.0,0.0,0.0,0.0,0.0,0.0,0.0,0.0,0.0,0.0,0.0,0.0,0.0,0.0,0.0,0.0,0.0,0.0,0.0,0.0,0.0,0.0,0.0,0.0,0.0,0.0,0.0,0.0,0.0,0.0,0.0,0.0,0.0,0.0,0.0,0.0,0.0,0.0,0.0,0.0,0.0,0.0,0.0,0.0,0.0,0.0,0.0,0.0,0.0,0.0,0.0,0.0,0.0,0.0,0.0,0.0,0.0,0.0,0.0,0.0,0.0,0.0,0.0,0.0,0.8836,1.0296,1.0252,0.8574,0.775,0.7276,0.0,0.0,0.0,0.0,0.0,0.0,0.0,0.0,0.0,0.0,0.0,0.0,0.0,0.0,0.0,0.0,0.0,0.0,0.0,0.0,0.0,0.0,0.0,0.0,0.0,0.0,0.0,0.0,0.0,0.0,0.0,0.0,0.0,0.0,0.0,0.0,0.0,0.0,0.0,0.0,0.0,0.0,0.0,0.0,0.0,0.0,0.0,0.0,0.0,0.0,0.0,0.0,0.0,0.0,0.0,0.0,0.0,0.0,0.0,0.0,0.0,0.0,0.0,0.0,0.0,0.0,0.0,0.0,0.0,0.0,0.0,0.0,0.0,0.0,0.0,0.0,0.0,0.0,0.0,0.0,0.0,0.0,0.0,0.0,0.0,0.0,0.0,0.0,0.0,0.0,0.0,0.0,0.0,0.0,0.0,0.0,0.0,0.0,0.0,0.0,0.0,0.0,0.0,0.0,0.0,0.0,0.0,0.0,0.8555,0.9562,1.0695,1.0691,0.9378,0.8809,0.8245,0.0,0.0,0.0,0.0,0.0,0.0,0.0,0.0,0.0,0.0,0.0,0.0,0.0,0.0,0.0,0.0,0.0,0.0,0.0,0.0,0.0,0.0,0.0,0.0,0.0,0.0,0.0,0.0,0.0,0.0,0.0,0.0,0.0,0.0,0.0,0.0,0.0,0.0,0.0,0.0,0.0,0.0,0.0,0.0,0.0,0.0,0.0,0.0,0.0,0.0,0.0,0.0,0.0,0.0,0.0,0.0,0.0,0.0,0.0,0.0,0.0,0.0,0.0,0.0,0.0,0.0,0.0,0.0,0.0,0.0,0.0,0.0,0.0,0.0,0.0,0.0,0.0,0.0,0.0,0.0,0.0,0.0,0.0,0.0,0.0,0.0,0.0,0.0,0.0,0.0,0.0,0.0,0.0,0.0,0.0,0.0,0.0,0.0,0.0,0.0,0.0,0.0,0.0,0.0,0.0,0.0,0.0,0.0,0.8867,1.011,1.0764,1.0831,1.0276,1.0278,0.952,0.0,0.0,0.0,0.0,0.0,0.0,0.0,0.0,0.0,0.0,0.0,0.0,0.0,0.0,0.0,0.0,0.0,0.0,0.0,0.0,0.0,0.0,0.0,0.0,0.0,0.0,0.0,0.0,0.0,0.0,0.0,0.0,0.0,0.0,0.0,0.0,0.0,0.0,0.0,0.0,0.0,0.0,0.0,0.0,0.0,0.0,0.0,0.0,0.0,0.0,0.0,0.0,0.0,0.0,0.0,0.0,0.0,0.0,0.0,0.0,0.0,0.0,0.0,0.0,0.0,0.0,0.0,0.0,0.0,0.0,0.0,0.0,0.0,0.0,0.0,0.0,0.0,0.0,0.0,0.0,0.0,0.0,0.0,0.0,0.0,0.0,0.0,0.0,0.0,0.0,0.0,0.0,0.0,0.0,0.0,0.0,0.0,0.0,0.0,0.0,0.0,0.0,0.0,0.0,0.0,0.0,0.0,0.0,1.0031,1.0337,1.174,1.2088,1.1306,1.0643,0.9667,0.0,0.0,0.0,0.0,0.0,0.0,0.0,0.0,0.0,0.0,0.0,0.0,0.0,0.0,0.0,0.0,0.0,0.0,0.0,0.0,0.0,0.0,0.0,0.0,0.0,0.0,0.0,0.0,0.0,0.0,0.0,0.0,0.0,0.0,0.0,0.0,0.0,0.0,0.0,0.0,0.0,0.0,0.0,0.0,0.0,0.0,0.0,0.0,0.2366,0.0,0.0,0.0,0.0,0.0,0.0,0.0,0.0,0.0,0.0,0.0,0.0,0.0,0.0,0.0,0.0,0.0,0.0,0.0,0.0,0.0,0.0,0.0,0.0,0.0,0.0,0.0,0.0,0.0,0.0,0.0,0.0,0.0,0.0,0.0,0.0,0.0,0.0,0.0,0.0,0.0,0.0,0.0,0.0,0.0,0.0,0.0,0.0,0.0,0.0,0.0,0.0,0.0,0.0,0.0,0.0,0.0,0.0,0.0,1.0679,1.1258,1.2328,1.2475,1.1636,1.1165,1.0205,0.0,0.0,0.0,0.0,0.0,0.0,0.0,0.0,0.0,0.0,0.0,0.0,0.0,0.0,0.0,0.0,0.0,0.0,0.0,0.0,0.0,0.0,0.0,0.0,0.0,0.0,0.0,0.0,0.0,0.0,0.0,0.0,0.0,0.0,0.0,0.0,0.0,0.0,0.0,0.0,0.0,0.0,0.0,0.0,0.0,0.0,0.0,0.0,0.0,0.0,0.0,0.0,0.0,0.0,0.0,0.0,0.0,0.0,0.0,0.0,0.0,0.0,0.0,0.0,0.0,0.0,0.0,0.0,0.0,0.0,0.0,0.0,0.0,0.0,0.0,0.0,0.0,0.0,0.0,0.0,0.0,0.0,0.0,0.0,0.0,0.0,0.0,0.0,0.0,0.0,0.0,0.0,0.0,0.0,0.0,0.0,0.0,0.0,0.0,0.0,0.0,0.0,0.0,0.0,0.0,0.0,0.0,1.0038,1.1046,1.2151,1.2656,1.2514,1.1712,1.1645,1.0811,0.916,0.0,0.0,0.0,0.0,0.0,0.0,0.0,0.0,0.0,0.0,0.0,0.0,0.0,0.0,0.0,0.0,0.0,0.0,0.0,0.0,0.0,0.0,0.0,0.0,0.0,0.0,0.0,0.0,0.0,0.0,0.0,0.0,0.0,0.0,0.0,0.0,0.0,0.0,0.1972,0.207,0.0,0.0,0.0,0.0,0.0,0.0,0.0,0.0,0.2515,0.0,0.0,0.0,0.0,0.0,0.0,0.0,0.0,0.0,0.0,0.0,0.0,0.0,0.0,0.0,0.0,0.0,0.0,0.0,0.0,0.0,0.0,0.0,0.0,0.0,0.0,0.0,0.0,0.0,0.0,0.0,0.0,0.0,0.0,0.0,0.0,0.0,0.0,0.0,0.0,0.0,0.0,0.0,0.0,0.0,0.0,0.0,0.0,0.0,0.0,0.0,0.0,0.0,0.0,0.0,0.0,0.9963,1.0554,1.1262,1.2184,1.2656,1.2637,1.2106,1.178,1.0948,0.9544,0.0,0.0,0.0,0.0,0.0,0.0,0.0,0.0,0.0,0.0,0.0,0.0,0.0,0.0,0.0,0.0,0.0,0.0,0.0,0.0,0.0,0.0,0.0,0.0,0.0,0.0,0.0,0.0,0.0,0.0,0.0,0.0,0.0,0.0,0.0,0.0,0.0,0.0,0.0,0.281,0.3298,0.0,0.0,0.0,0.0,0.0,0.0,0.0,0.0,0.2576,0.0,0.0,0.0,0.0,0.0,0.0,0.0,0.0,0.0,0.0,0.0,0.0,0.0,0.0,0.0,0.0,0.0,0.0,0.0,0.0,0.0,0.0,0.0,0.0,0.0,0.0,0.0,0.0,0.0,0.0,0.0,0.0,0.0,0.0,0.0,0.0,0.0,0.0,0.0,0.0,0.0,0.0,0.0,0.0,0.0,0.0,0.0,0.0,0.0,0.0,0.0,0.0,0.0,0.0,0.0,1.0108,1.0907,1.167,1.2539,1.2798,1.2676,1.2213,1.1582,1.0723,0.0,0.0,0.0,0.0,0.0,0.0,0.0,0.0,0.0,0.0,0.0,0.0,0.0,0.0,0.0,0.0,0.0,0.0,0.0,0.0,0.0,0.0,0.0,0.0,0.0,0.0,0.0,0.0,0.0,0.0,0.0,0.0,0.0,0.0,0.0,0.0,0.0,0.0,0.0,0.0,0.2854,0.3194,0.3811,0.0,0.0,0.0,0.0,0.0,0.0,0.2773,0.2585,0.0,0.0,0.0,0.0,0.0,0.0,0.0,0.0,0.0,0.0,0.0,0.0,0.0,0.0,0.0,0.0,0.0,0.0,0.0,0.0,0.0,0.0,0.0,0.0,0.0,0.0,0.0,0.0,0.0,0.0,0.0,0.0,0.0,0.0,0.0,0.0,0.0,0.0,0.0,0.0,0.0,0.0,0.0,0.0,0.0,0.0,0.0,0.0,0.0,0.0,0.0,0.0,0.0,0.0,0.0,1.0137,1.1024,1.1888,1.2729,1.2856,1.2637,1.2086,1.1406,1.0596,0.0,0.0,0.0,0.0,0.0,0.0,0.0,0.0,0.0,0.0,0.0,0.0,0.0,0.0,0.0,0.0,0.0,0.0,0.0,0.0,0.0,0.0,0.0,0.0,0.0,0.0,0.0,0.0,0.0,0.0,0.0,0.0,0.0,0.0,0.0,0.0,0.0,0.0,0.0,0.0,0.0,0.306,0.3599,0.3409,0.0,0.0,0.0,0.0,0.3426,0.3018,0.0,0.0,0.0,0.0,0.0,0.0,0.0,0.0,0.0,0.0,0.0,0.0,0.0,0.0,0.0,0.0,0.0,0.0,0.0,0.0,0.0,0.0,0.0,0.0,0.0,0.0,0.0,0.0,0.0,0.0,0.0,0.0,0.0,0.0,0.0,0.0,0.0,0.0,0.0,0.0,0.0,0.0,0.0,0.0,0.0,0.0,0.0,0.0,0.0,0.0,0.0,0.0,0.0,0.0,0.0,0.0,1.004,1.0691,1.1394,1.2242,1.2686,1.2514,1.1692,1.1587,1.0919,0.0,0.0,0.0,0.0,0.0,0.0,0.0,0.0,0.0,0.0,0.0,0.0,0.0,0.0,0.0,0.0,0.0,0.0,0.0,0.0,0.0,0.0,0.0,0.0,0.0,0.0,0.0,0.0,0.0,0.0,0.0,0.0,0.0,0.0,0.0,0.0,0.0,0.0,0.0,0.0,0.0,0.351,0.3072,0.3118,0.3528,0.0,0.0,0.3283,0.3614,0.3403,0.0,0.0,0.0,0.0,0.0,0.0,0.0,0.0,0.0,0.0,0.0,0.0,0.0,0.0,0.0,0.0,0.0,0.0,0.0,0.0,0.0,0.0,0.0,0.0,0.0,0.0,0.0,0.0,0.0,0.0,0.0,0.0,0.0,0.0,0.0,0.0,0.0,0.0,0.0,0.0,0.0,0.0,0.0,0.0,0.0,0.0,0.0,0.0,0.0,0.0,0.0,0.0,0.0,0.0,0.0,0.8255,1.004,1.0632,1.1338,1.2164,1.2389,1.223,1.1616,1.134,1.0703,0.0,0.0,0.0,0.0,0.0,0.0,0.0,0.0,0.0,0.0,0.0,0.0,0.0,0.0,0.0,0.0,0.0,0.0,0.0,0.0,0.0,0.0,0.0,0.0,0.0,0.0,0.0,0.0,0.0,0.0,0.0,0.0,0.0,0.0,0.0,0.0,0.0,0.0,0.0,0.0,0.0,0.0,0.3503,0.3546,0.0,0.0,0.0,0.3933,0.3974,0.0,0.0,0.0,0.0,0.0,0.0,0.0,0.0,0.0,0.0,0.0,0.0,0.0,0.0,0.0,0.0,0.0,0.0,0.0,0.0,0.0,0.0,0.0,0.0,0.0,0.0,0.0,0.0,0.0,0.0,0.0,0.0,0.0,0.0,0.0,0.0,0.0,0.0,0.0,0.0,0.0,0.0,0.0,0.0,0.0,0.0,0.0,0.0,0.0,0.0,0.0,0.0,0.0,0.0,0.0,0.0,0.0,1.0059,1.0632,1.1338,1.2174,1.2213,1.194,1.1438,1.1182,0.0,0.0,0.0,0.0,0.0,0.0,0.0,0.0,0.0,0.0,0.0,0.0,0.0,0.0,0.0,0.0,0.0,0.0,0.0,0.0,0.0,0.0,0.0,0.0,0.0,0.0,0.0,0.0839,0.0,0.0,0.0,0.0,0.0,0.0,0.0,0.0,0.0,0.0,0.0,0.0,0.0,0.0,0.3844,0.3845,0.3926,0.4131,0.0,0.0,0.4369,0.4282,0.3766,0.3268,0.0,0.0,0.0,0.0,0.0,0.0,0.0,0.0,0.0,0.0,0.0,0.0,0.0,0.0,0.0,0.0,0.0,0.0,0.0,0.0,0.0,0.0,0.0,0.0,0.0,0.0,0.0,0.0,0.0,0.0,0.0,0.0,0.0,0.0,0.0,0.0,0.0,0.0,0.0,0.0,0.0,0.0,0.0,0.0,0.0,0.0,0.0,0.0,0.0,0.0,0.0,0.0,0.0,0.0,0.0,1.005,1.0622,1.1316,1.2174,1.2213,1.1804,1.0966,1.134,1.0762,0.0,0.0,0.0,0.0,0.0,0.0,0.0,0.0,0.0,0.0,0.0,0.0,0.0,0.0,0.0,0.0,0.0,0.0,0.0,0.0,0.0,0.0,0.0,0.0,0.0,0.0,0.0,0.0,0.0,0.0,0.0,0.0,0.0,0.0,0.0,0.0,0.0,0.0,0.0,0.0,0.0,0.3924,0.3734,0.3988,0.4432,0.0,0.0,0.4206,0.4445,0.3977,0.3471,0.3134,0.0,0.0,0.0,0.0,0.0,0.0,0.0,0.0,0.0,0.0,0.0,0.0,0.0,0.0,0.0,0.0,0.0,0.0,0.0,0.0,0.0,0.0,0.0,0.0,0.0,0.0,0.0,0.0,0.0,0.0,0.0,0.0,0.0,0.0,0.0,0.0,0.0,0.0,0.0,0.0,0.0,0.0,0.0,0.0,0.0,0.0,0.0,0.0,0.0,0.0,0.0,0.0,0.0,0.8438,1.0078,1.0632,1.1316,1.2164,1.2213,1.1911,1.134,1.1508,1.0899,0.0,0.0,0.0,0.0,0.0,0.0,0.0,0.0,0.0,0.0,0.0,0.0,0.0,0.0,0.0,0.0,0.0,0.0,0.0,0.0,0.0,0.0,0.0,0.0,0.0,0.0,0.0,0.0,0.2246,0.2425,0.1901,0.0,0.0,0.0,0.0,0.0,0.0,0.0,0.0,0.0,0.0,0.4413,0.4644,0.4554,0.0,0.0,0.5295,0.4818,0.4753,0.4231,0.3758,0.3444,0.3158,0.0,0.0,0.0,0.0,0.0,0.0,0.0,0.0,0.0,0.0,0.0,0.0,0.0,0.0,0.0,0.0,0.0,0.0,0.0,0.0,0.0,0.0,0.0,0.0,0.0,0.0,0.0,0.0,0.0,0.0,0.0,0.0,0.0,0.0,0.0,0.0,0.0,0.0,0.0,0.0,0.0,0.0,0.0,0.0,0.0,0.0,0.0,0.0,0.0,0.0,0.0,0.0,0.8771,1.0289,1.0837,1.1533,1.2379,1.2272,1.2057,1.18,1.1675,1.0978,0.0,0.0,0.0,0.0,0.0,0.0,0.0,0.0,0.0,0.0,0.0,0.0,0.0,0.0,0.0,0.0,0.0,0.0,0.0,0.0,0.0,0.0,0.0,0.0,0.0,0.0,0.0,0.0,0.2598,0.2457,0.1865,0.0,0.0,0.0,0.0,0.0,0.0,0.0,0.0,0.0,0.0,0.4678,0.5222,0.5129,0.5205,0.585,0.5578,0.5215,0.4919,0.4455,0.4029,0.376,0.0,0.0,0.0,0.0,0.0,0.0,0.0,0.0,0.0,0.0,0.0,0.0,0.0,0.0,0.0,0.0,0.0,0.0,0.0,0.0,0.0,0.0,0.0,0.0,0.0,0.0,0.0,0.0,0.0,0.0,0.7749,0.0,0.0,0.0,0.0,0.0,0.0,0.0,0.0,0.0,0.0,0.0,0.0,0.0,0.0,0.0,0.0,0.0,0.0,0.0,0.0,0.0,0.0,0.9545,1.0744,1.1307,1.1995,1.2837,1.2428,1.219,1.2194,1.1819,1.0968,0.9622,0.0,0.0,0.0,0.0,0.0,0.0,0.0,0.0,0.0,0.0,0.0,0.0,0.0,0.0,0.0,0.0,0.0,0.0,0.0,0.0,0.0,0.0,0.0,0.0,0.0,0.0,0.3148,0.2604,0.2127,0.0,0.0,0.0,0.0,0.0,0.0,0.0,0.0,0.0,0.0,0.4402,0.4616,0.5215,0.5618,0.5712,0.5416,0.5313,0.5193,0.486,0.4575,0.4315,0.0,0.0,0.0,0.0,0.0,0.0,0.0,0.0,0.0,0.0,0.0,0.0,0.0,0.0,0.0,0.0,0.0,0.0,0.0,0.0,0.0,0.0,0.0,0.0,0.0,0.0,0.0,1.0029,0.9676,0.0,0.0,0.0,0.0,0.0,0.0,0.0,0.0,0.0,0.0,0.0,1.1995,1.1449,0.0,0.0,0.0,0.0,0.0,0.0,0.0,0.0,0.0,0.0,0.0,0.0,0.9511,1.0775,1.1597,1.2285,1.2876,1.2758,1.2666,1.2666,1.2236,1.1112,0.9277,0.0,0.0,0.0,0.0,0.0,0.0,0.0,0.0,0.0,0.0,0.0,0.0,0.0,0.0,0.0,0.0,0.0,0.0,0.0,0.0,0.0,0.0,0.0,0.0,0.0,0.3669,0.0,0.0,0.0,0.0,0.0,0.0,0.0,0.0,0.0,0.0,0.0,0.4075,0.4362,0.4895,0.5115,0.4756,0.5159,0.5581,0.0,0.0,0.0,0.0,0.0,0.0,0.0,0.0,0.0,0.0,0.0,0.0,0.0,0.0,0.3555,0.2778,0.2215,0.1806,0.1643,0.0,0.0,0.0,0.0,0.0,0.0,0.0,0.0,0.0,0.0,0.0,0.0,0.0,0.0,1.1445,0.0,1.1025,0.0,0.0,0.0,0.0,0.0,0.0,0.0,0.0,1.2119,1.2627,1.3291,1.2725,1.2506,0.0,1.2144,1.1233,0.0,0.0,0.0,0.0,0.0,0.0,0.0,0.0,1.0031,1.1079,1.1989,1.2598,1.2895,1.2915,1.2915,1.2895,1.2135,1.1035,0.9492,0.8369,0.749,0.0,0.0,0.0,0.0,0.0,0.0,0.0,0.0,0.0,0.0,0.0,0.0,0.0,0.0,0.0,0.0,0.0,0.0,0.0,0.0,0.0,0.0,0.0,0.4044,0.0,0.0,0.0,0.0,0.0,0.0,0.0,0.0,0.0,0.353,0.3973,0.4402,0.4789,0.5128,0.5204,0.477,0.0,0.0,0.0,0.0,0.0,0.0,0.0,0.5073,0.4988,0.4729,0.4469,0.4329,0.4189,0.4116,0.4096,0.0,0.0,0.3126,0.2507,0.2053,0.1906,0.1671,0.1478,0.1381,0.135,0.1382,0.0,0.0,0.0,0.0,0.0,0.0,0.0,0.0,1.3174,1.3013,0.0,1.2486,0.0,0.0,0.0,0.0,0.0,1.2314,0.0,0.0,1.4375,1.458,1.4192,1.4124,1.3909,1.3588,1.3863,1.3646,1.2803,1.0263,0.0,0.0,0.0,0.0,0.0,0.0,1.1099,1.1614,1.2445,1.2905,1.2915,1.2915,1.2915,1.2876,1.165,1.0771,1.0312,0.9482,0.8652,0.7798,0.732,0.0,0.0,0.0,0.0,0.0,0.0,0.0,0.0,0.0,0.0,0.0,0.0,0.0,0.0,0.0,0.0,0.0,0.0,0.0,0.0,0.4302,0.0,0.0,0.0,0.0,0.0,0.0,0.0,0.0,0.0,0.0,0.4402,0.4247,0.4469,0.5554,0.0,0.0,0.0,0.0,0.5974,0.6196,0.6425,0.6492,0.6223,0.5909,0.5594,0.5353,0.0,0.0,0.4222,0.4755,0.489,0.3749,0.3601,0.3608,0.3826,0.3111,0.2497,0.2386,0.2011,0.1734,0.1708,0.1705,0.1762,1.6592,0.0,0.0,0.0,0.0,1.4414,1.4844,1.5751,1.5342,1.4971,1.4668,1.4238,0.0,0.0,0.0,0.0,0.0,0.0,1.4133,1.4835,1.5117,1.5322,1.5517,1.4883,1.4697,1.4816,1.4256,1.3999,1.4036,1.2676,1.1349,1.006,0.0,0.0,0.0,0.0,1.1536,1.2018,1.2598,1.2915,1.2915,1.2915,1.2915,1.2905,1.2217,1.1472,1.0752,1.0205,0.9539,0.8672,0.7924,0.0,0.0,0.0,0.0,0.0,0.0,0.0,0.0,0.0,0.0,0.0,0.0,0.0,0.0,0.0,0.0,0.0,0.0,0.0,0.4783,0.4679,0.4521,0.0,0.0,0.0,0.0,0.0,0.0,0.0,0.0,0.0,0.5255,0.5271,0.5411,0.0,0.0,0.6023,0.5954,0.592,0.6104,0.668,0.6633,0.0,0.0,0.5923,0.5668,0.5598,0.5305,0.5036,0.4919,0.5001,0.492,0.4358,0.4069,0.3911,0.3741,0.3312,0.2808,0.2422,0.2171,0.1969,0.1764,0.168,0.1641,1.9131,1.7574,1.6219,1.6064,1.6641,1.624,1.6602,1.7428,1.7021,1.668,1.6416,1.6006,1.5332,1.4482,1.3923,0.0,0.0,0.0,1.5245,1.5937,1.5907,1.6084,1.6279,1.5801,1.5586,1.5625,1.4876,1.4636,1.4896,1.4237,1.3307,1.2115,0.0,0.0,1.0644,1.1298,1.1814,1.2121,1.2642,1.2915,1.2915,1.2915,1.2915,1.2895,1.2437,1.1872,1.1191,1.0762,1.0137,0.927,0.8587,0.7812,0.0,0.0,0.0,0.0,0.0,0.0,0.0,0.0,0.0,0.0,0.0,0.3304,0.2885,0.0,0.0,0.0,0.3882,0.4632,0.5738,0.5559,0.0,0.0,0.0,0.0,0.0,0.0,0.0,0.5571,0.5481,0.5538,0.5992,0.6059,0.6126,0.6325,0.6485,0.6546,0.6506,0.0,0.6493,0.6933,0.6827,0.666,0.6533,0.6222,0.5896,0.5648,0.5488,0.5291,0.5148,0.5023,0.4897,0.4703,0.4414,0.4142,0.3892,0.3664,0.3301,0.2666,0.235,0.2134,0.1925,0.1791,0.1675,2.1278,2.1083,1.9141,1.8442,1.8656,1.8291,1.833,1.8617,1.8237,1.8105,1.8076,1.7676,1.7054,1.6202,1.539,0.0,1.5605,1.6026,1.6396,1.6794,1.6804,1.6785,1.6755,1.6755,1.6553,1.6134,1.5703,1.5469,1.541,1.504,1.4621,1.4089,1.2784,1.1897,1.1438,1.1831,1.2091,1.2147,1.2686,1.2944,1.2915,1.2915,1.2915,1.2905,1.2437,1.2021,1.1616,1.1154,1.0488,0.9659,0.9238,0.8597,0.7725,0.0,0.0,0.0,0.0,0.0,0.0,0.0,0.0,0.0,0.0,0.0,0.0,0.0,0.0,0.0,0.4622,0.0,0.6586,0.6675,0.0,0.0,0.0,0.5348,0.3949,0.4802,0.5678,0.6196,0.0,0.0,0.6573,0.6613,0.6627,0.6646,0.6566,0.6646,0.6953,0.6973,0.6993,0.6993,0.6993,0.6993,0.694,0.6612,0.6162,0.5649,0.5555,0.5422,0.5109,0.4944,0.487,0.4794,0.4599,0.4352,0.4172,0.4089,0.3864,0.3084,0.2572,0.2258,0.2146,0.1931,0.1789,2.2031,2.1689,2.1172,2.0439,1.958,1.916,1.9043,1.9131,1.9023,1.8984,1.8955,1.849,1.8037,1.7529,1.7034,1.6992,1.735,1.7168,1.7295,1.7695,1.7705,1.7529,1.7236,1.7227,1.7002,1.6551,1.634,1.6056,1.5707,1.5511,1.4972,1.4138,1.4213,1.3846,1.3006,1.3365,1.3423,1.3163,1.3276,1.3203,1.2925,1.2915,1.2915,1.2905,1.2437,1.2021,1.1616,1.1143,1.0488,0.9659,0.9228,0.8597,0.7734,0.6797,0.0,0.0,0.0,0.0,0.0,0.0,0.0,0.0,0.0,0.4799,0.3753,0.0,0.5429,0.0,0.6062,0.6373,0.6593,0.6475,0.0,0.0,0.6731,0.6601,0.6346,0.6721,0.6946,0.6834,0.6936,0.6933,0.6639,0.678,0.69,0.69,0.6901,0.69,0.6986,0.6993,0.6993,0.6993,0.6979,0.6979,0.6909,0.6583,0.6201,0.5793,0.5542,0.5327,0.5241,0.4989,0.4822,0.4796,0.4751,0.4609,0.4377,0.4341,0.4106,0.3492,0.3026,0.2569,0.202,0.1839,0.1803,2.2656,2.2432,2.2246,2.1738,2.0995,2.0625,2.0332,2.0166,2.0146,1.9932,1.9541,1.9111,1.8799,1.8564,1.834,1.8359,1.8545,1.8135,1.8066,1.8247,1.8096,1.7881,1.7666,1.7666,1.7441,1.7031,1.6957,1.667,1.6232,1.6119,1.5722,1.5012,1.533,1.5119,1.4367,1.4323,1.4225,1.4002,1.3665,1.3311,1.2925,1.2915,1.2915,1.2895,1.2656,1.2217,1.1626,1.1349,1.0801,0.9942,0.9494,0.9055,0.8552,0.7754,0.7103,0.0,0.0,0.0,0.0,0.0,0.0,0.0,0.0,0.0,0.0,0.0,0.6126,0.6738,0.7031,0.7332,0.7684,0.7623,0.7634,0.7808,0.7749,0.7611,0.7351,0.7373,0.7548,0.7932,0.7496,0.7133,0.7002,0.7007,0.6993,0.6993,0.6993,0.6993,0.6979,0.6958,0.6943,0.6985,0.6943,0.6886,0.6829,0.6637,0.6351,0.5989,0.5689,0.5405,0.5175,0.4942,0.4796,0.4796,0.4796,0.4754,0.4618,0.4587,0.4406,0.3872,0.3418,0.2907,0.2212,0.1918,0.1803,2.3149,2.3071,2.2744,2.2588,2.2559,2.2197,2.1768,2.1278,2.1278,2.082,2.0059,1.9629,1.9443,1.948,1.9385,1.9365,1.9346,1.888,1.8656,1.8578,1.8217,1.8066,1.8008,1.8008,1.7822,1.7471,1.7494,1.7236,1.6794,1.6721,1.6519,1.6162,1.6112,1.5927,1.5556,1.5042,1.4771,1.4675,1.397,1.3418,1.3047,1.3062,1.3042,1.2983,1.2861,1.2426,1.1645,1.1547,1.1105,1.0273,0.9874,0.964,0.9515,0.8857,0.8287,0.0,0.7461,0.0,0.0,0.0,0.0,0.0,0.0,0.0,0.0,0.648,0.6877,0.7573,0.789,0.8354,0.9106,0.9235,0.9121,0.8782,0.8797,0.8571,0.7865,0.7668,0.7942,0.8844,0.7917,0.7332,0.7439,0.7261,0.712,0.7153,0.7166,0.716,0.7058,0.6961,0.688,0.6943,0.6838,0.6738,0.6708,0.666,0.6529,0.6204,0.5911,0.559,0.5139,0.4895,0.4796,0.4796,0.4796,0.479,0.4796,0.479,0.4605,0.4043,0.3709,0.3312,0.2566,0.2083,0.1833,2.3457,2.3091,2.3013,2.2974,2.2964,2.2896,2.2461,2.1758,2.1768,2.1475,2.0927,2.0518,2.0361,2.0331,1.9951,1.9757,1.9775,1.9355,1.8975,1.8588,1.852,1.8305,1.8018,1.8008,1.7969,1.7891,1.7891,1.7676,1.7266,1.6971,1.6718,1.6423,1.6268,1.6229,1.6268,0.0,0.0,0.0,1.4416,1.3948,1.388,1.387,1.3704,1.3389,1.2715,0.0,1.1626,1.1221,1.0635,0.9806,1.001,0.0,0.0,0.0,0.0,0.0,0.0,0.0,0.0,0.0,0.0,0.0,0.8564,0.8083,0.6931,0.7913,0.8704,0.8854,0.9161,0.9418,0.9574,0.9877,0.9912,0.9569,0.9858,0.9931,0.9361,0.9234,0.8825,0.756,0.8019,0.8202,0.7638,0.7629,0.7719,0.7699,0.7732,0.7659,0.7515,0.7204,0.6878,0.6581,0.6581,0.659,0.6666,0.656,0.6462,0.6328,0.6121,0.5871,0.5614,0.5117,0.4802,0.4796,0.4796,0.4796,0.4796,0.4796,0.459,0.3886,0.3832,0.3628,0.2684,0.2208,0.1921,2.3652,0.0,2.3188,2.3101,0.0,2.3101,2.2857,2.248,2.2285,2.1953,2.1533,2.1094,2.0898,2.0869,2.043,2.0234,2.0215,1.9795,1.9482,1.9212,1.8802,1.849,1.8276,1.8115,1.8008,1.8008,1.8008,1.79,1.7695,1.7528,1.7282,1.6931,1.6838,1.6635,1.6303,1.5927,1.5527,1.5107,1.4678,1.4258,1.3812,1.3828,1.3633,1.3203,0.0,0.0,0.0,0.0,0.0,0.0,0.0,0.0,0.0,0.0,0.0,0.9648,0.9824,0.9825,0.9546,0.9565,0.9606,0.9639,0.9761,0.9413,0.8401,0.9189,0.9763,0.9803,1.0104,1.0229,1.0024,1.018,1.0135,0.9776,0.9942,0.9824,0.9235,0.9658,0.9553,0.8392,0.8468,0.8541,0.8014,0.7903,0.7905,0.7905,0.7905,0.7912,0.7866,0.7564,0.7205,0.6805,0.6579,0.6526,0.6575,0.6496,0.641,0.638,0.6173,0.5973,0.5811,0.5245,0.4796,0.4796,0.4796,0.4796,0.4796,0.4796,0.4678,0.4317,0.403,0.371,0.3092,0.2599,0.2175,2.3975,2.3857,2.3437,2.3252,2.3198,2.313,2.3101,2.3062,0.0,0.0,0.0,2.1543,2.1268,2.1171,2.085,2.0683,2.0586,2.0195,1.998,1.9883,1.9143,1.8744,1.8588,1.8281,1.8052,1.8008,1.8008,1.8008,1.8008,1.7974,1.7798,1.7519,1.7389,1.6943,1.6134,1.5703,1.5312,1.4922,1.4893,1.4561,1.3867,1.3769,1.3545,1.314,1.2983,1.2715,1.233,1.2252,1.1872,1.1182,1.1143,1.0957,1.0567,1.084,1.1025,1.1035,1.1389,1.1418,1.1055,1.1005,1.0815,1.0443,1.0531,1.0417,0.9932,1.0204,1.0434,1.0479,1.0794,1.091,1.064,1.0612,1.0484,1.0162,0.9997,0.9653,0.9173,1.0009,1.0521,0.982,0.9361,0.8926,0.8594,0.8382,0.8156,0.8096,0.8112,0.8112,0.82,0.795,0.7527,0.7163,0.6815,0.6557,0.6489,0.6468,0.641,0.6404,0.6201,0.6025,0.5854,0.5444,0.5087,0.4984,0.4881,0.4802,0.4796,0.4796,0.4764,0.4726,0.4296,0.3784,0.3461,0.3055,0.2553,2.4658,2.4287,2.3877,2.3701,2.3672,2.3247,2.3101,2.3062,2.2695,2.2471,2.2393,2.1982,2.1592,2.12,2.1122,2.0928,2.0605,2.0537,2.0273,0.0,1.9795,1.9309,1.8617,1.8539,1.8325,1.8027,1.8008,1.8008,1.7974,1.7828,1.7789,1.7847,1.7416,1.6805,1.6163,1.6036,1.5791,1.5332,1.5322,1.5235,1.5146,1.4795,1.4394,1.3929,1.3252,1.2886,1.2793,1.2408,1.2155,1.2028,1.2018,1.1846,1.1438,1.1479,1.1496,1.1518,1.1555,1.1577,1.1496,1.1407,1.141,1.1552,1.1532,1.1161,1.0342,1.0597,1.0818,1.0837,1.1182,1.1526,1.1788,1.1788,1.1706,1.1641,1.1131,1.0926,1.1304,1.1613,1.1695,1.1454,1.0926,0.9987,0.9234,0.9195,0.9099,0.8787,0.8616,0.8671,0.8572,0.8119,0.7629,0.7299,0.6978,0.6698,0.6569,0.6453,0.6428,0.641,0.6374,0.6319,0.6274,0.6147,0.5904,0.5566,0.5178,0.4899,0.4832,0.4796,0.4706,0.449,0.4409,0.4274,0.3518,0.3292,0.3035,2.4998,2.4687,2.4062,2.3789,2.376,2.332,2.3101,2.3081,2.2886,2.2818,2.2812,2.2412,2.2109,2.1853,2.1405,2.1083,2.0928,2.0713,2.0498,2.0254,2.0019,1.9707,1.928,1.8822,1.85,1.8305,1.8105,1.8008,1.8008,1.7896,1.793,1.7944,1.7512,1.7103,1.6777,1.633,1.5997,1.5771,1.5537,1.5303,1.5068,1.4883,1.4463,1.3792,1.3408,1.314,1.2915,1.2686,1.2457,1.2213,1.2213,1.2031,1.1636,1.1809,1.1934,1.1934,1.2171,1.2299,1.2322,1.2122,1.2044,1.2168,1.2028,1.1657,1.1007,1.1311,1.154,1.154,1.1724,1.1807,1.1798,1.1779,1.1673,1.1458,1.1232,1.1288,1.1614,1.1954,1.176,1.1065,1.0698,1.0259,0.9521,0.9526,0.9536,0.923,0.9001,0.8804,0.8778,0.8462,0.8081,0.7734,0.7375,0.7007,0.6716,0.6645,0.6568,0.6431,0.6416,0.641,0.641,0.641,0.628,0.6086,0.5815,0.5511,0.5196,0.5038,0.4871,0.4625,0.4441,0.4215,0.3829,0.353,0.2942,2.5215,2.5146,2.4394,2.3975,2.375,2.3276,2.3101,2.3101,2.3091,2.3101,2.3052,2.274,2.2607,2.2441,2.1765,2.1375,2.1161,2.0879,2.0693,2.0576,2.0225,2.0,1.9816,1.9182,1.8792,1.8588,1.8266,1.8096,1.8018,1.8008,1.8008,1.7969,1.7686,1.7471,1.7396,1.6731,1.629,1.6095,1.5723,1.5352,1.497,1.4872,1.45,1.3857,1.3675,1.3486,1.3208,1.3066,1.2861,1.2525,1.2408,1.2217,1.1927,1.2187,1.235,1.2389,1.2695,1.2881,1.2856,1.2676,1.2529,1.2495,1.2274,1.2012,1.1748,1.1917,1.2055,1.1991,1.2009,1.1972,1.1742,1.1669,1.1504,1.1232,1.1347,1.1504,1.1531,1.1853,1.171,1.0617,1.0635,1.0568,0.9969,0.9788,0.9658,0.938,0.9061,0.8804,0.8778,0.8718,0.8502,0.8152,0.7759,0.7344,0.6974,0.6823,0.672,0.6498,0.6431,0.6422,0.641,0.641,0.641,0.6346,0.6386,0.6128,0.5643,0.5323,0.5152,0.4908,0.465,0.4344,0.4167,0.3608,0.2934,2.5615,2.5605,2.5127,2.4538,2.3769,2.3286,2.311,2.3101,2.3101,2.3101,2.3081,2.3052,2.2818,2.2539,2.2412,2.1963,2.1259,2.1151,2.0957,2.0635,2.0566,2.0293,1.9961,1.9777,1.9385,1.8695,1.8549,1.8315,1.8027,1.8008,1.8008,1.8008,1.7969,1.7754,1.7412,1.7295,1.6887,1.6114,1.6046,1.5821,1.5361,1.498,1.4774,1.4705,1.425,1.4046,1.3929,1.3627,1.3437,1.3369,1.3042,1.2827,1.2788,1.2827,1.2846,1.2837,1.2886,1.2856,1.2725,1.27,1.2637,1.2505,1.2372,1.2264,1.2209,1.2147,1.1945,1.177,1.1926,1.2055,1.2055,1.2003,1.1957,1.1899,1.1945,1.2027,1.2,1.2049,1.2026,1.1952,1.1719,1.1535,1.055,1.0295,0.9909,0.9133,0.891,0.8778,0.8778,0.8778,0.8712,0.8489,0.812,0.7654,0.726,0.6928,0.6848,0.6763,0.6568,0.6459,0.6434,0.641,0.641,0.641,0.641,0.6337,0.6119,0.5747,0.5244,0.511,0.4875,0.4624,0.4258,0.375,0.3127,2.5684,2.5645,2.5254,2.4617,2.3809,2.3594,2.3335,2.3101,2.3101,2.3101,2.3101,2.3101,2.3003,2.2871,2.2627,2.2272,2.1921,2.1424,2.1143,2.0947,2.0693,2.0507,2.0293,2.0019,1.959,1.9033,1.8734,1.8383,1.8066,1.8008,1.8008,1.8008,1.8008,1.792,1.7744,1.751,1.708,1.6475,1.6222,1.588,1.5449,1.5244,1.5029,1.4833,1.4609,1.4358,1.4124,1.3938,1.386,1.3821,1.3477,1.3252,1.3252,1.3042,1.2915,1.2915,1.2915,1.2832,1.27,1.27,1.2652,1.2529,1.2382,1.2308,1.2308,1.2175,1.211,1.2202,1.2156,1.2076,1.211,1.2076,1.2076,1.2076,1.2076,1.2076,1.2076,1.2076,1.1993,1.1694,1.1628,1.1494,1.0998,1.0601,1.009,0.9387,0.9041,0.8844,0.8804,0.8778,0.8745,0.862,0.8391,0.8075,0.7641,0.7413,0.7151,0.689,0.6726,0.6623,0.6453,0.6416,0.641,0.641,0.641,0.6337,0.6143,0.5967,0.5608,0.5353,0.499,0.4694,0.4291,0.4167,0.3853,2.5684,2.5615,2.5264,2.4717,2.4141,2.4004,2.3711,2.3296,2.3276,2.3208,2.3101,2.3101,2.3101,2.3052,2.2769,2.2637,2.2432,2.1707,2.1298,2.1161,2.0771,2.0605,2.0576,2.0254,1.9873,1.9453,1.9023,1.8545,1.8066,1.8008,1.8008,1.8008,1.8008,1.8008,1.7978,1.7686,1.7344,1.6914,1.6465,1.6035,1.5644,1.5469,1.5264,1.499,1.4961,1.4756,1.4309,1.4289,1.4221,1.4104,1.3812,1.3682,1.3662,1.3389,1.3223,1.3232,1.3223,1.3139,1.2933,1.2899,1.28,1.2666,1.2566,1.2523,1.2565,1.2508,1.2586,1.2781,1.2606,1.2459,1.2432,1.2432,1.2406,1.2397,1.2275,1.2165,1.2413,1.2285,1.1997,1.1726,1.1707,1.1452,1.1285,1.0877,1.034,0.9669,0.936,0.903,0.8877,0.8778,0.8778,0.8685,0.8626,0.8417,0.8011,0.7734,0.7444,0.7158,0.6957,0.6698,0.6516,0.6474,0.6416,0.641,0.641,0.6374,0.6246,0.6088,0.5863,0.5444,0.5093,0.4845,0.4626,0.4634,0.4372,2.5684,2.5674,2.5254,2.5086,2.5008,2.456,2.4141,2.3721,2.374,2.3525,2.312,2.3101,2.3101,2.3091,2.3042,2.2847,2.2457,2.207,2.166,2.1249,2.082,2.0615,2.0595,2.0576,2.0293,1.9824,1.9443,1.8838,1.8076,1.8008,1.8008,1.8008,1.8008,1.8008,1.7998,1.7969,1.7764,1.7305,1.6882,1.6484,1.6075,1.5635,1.542,1.5391,1.5371,1.5156,1.4814,1.4756,1.458,1.4143,1.4104,1.4075,1.4075,1.4036,1.3997,1.4007,1.4016,1.3841,1.3474,1.3339,1.3212,1.3099,1.3029,1.3105,1.3165,1.3284,1.3303,1.3286,1.3222,1.3195,1.3231,1.3131,1.3131,1.3103,1.2551,1.2533,1.3121,1.2588,1.234,1.2472,1.2302,1.1912,1.1403,1.1107,1.0643,1.0061,0.9938,0.9872,0.9185,0.8924,0.8884,0.8778,0.8666,0.8514,0.8224,0.7976,0.7777,0.7505,0.7151,0.6819,0.6698,0.6601,0.648,0.6422,0.6416,0.6398,0.6343,0.6179,0.5918,0.5602,0.5316,0.5078,0.4916,0.4537,0.4356,2.5684,2.5674,2.5566,2.5332,2.5106,2.4893,2.4443,2.3809,2.3789,2.3545,2.3149,2.3101,2.3101,2.3101,2.3101,2.3013,2.2838,2.2471,2.2197,2.1931,2.1328,2.0996,2.0977,2.0752,2.0332,1.9904,1.9756,1.9248,1.8422,1.8154,1.8008,1.8008,1.8008,1.8008,1.8008,1.8008,1.7803,1.7412,1.7207,1.6934,1.6504,1.6055,1.586,1.582,1.5557,1.5342,1.5186,1.5186,1.5079,1.4923,1.4679,1.4551,1.4521,1.425,1.4114,1.4114,1.4114,1.3915,1.3601,1.3704,1.3583,1.3159,1.3254,1.338,1.344,1.3552,1.3626,1.3672,1.3671,1.3791,1.3901,1.3616,1.3296,1.325,1.3057,1.2965,1.3158,1.303,1.2946,1.3038,1.292,1.2554,1.1931,1.1828,1.1572,1.0769,1.0841,1.0696,1.0198,0.9865,0.9468,0.8957,0.8752,0.8666,0.8474,0.8232,0.8002,0.7765,0.7481,0.7255,0.7067,0.6686,0.6526,0.658,0.6522,0.641,0.6362,0.6228,0.5979,0.5875,0.5571,0.5335,0.5184,0.4864,0.4772,2.5684,2.5684,2.5684,2.5566,2.5303,2.5283,2.4873,2.4219,2.4053,2.375,2.3344,2.3159,2.3101,2.3101,2.3101,2.3101,2.3042,2.2662,2.251,2.2389,2.159,2.12,2.1122,2.0781,2.041,2.0127,1.9961,1.9531,1.8841,1.8418,1.8223,1.8213,1.8052,1.8008,1.8008,1.8008,1.7852,1.7617,1.7494,1.7236,1.6914,1.6504,1.6232,1.6075,1.5781,1.5547,1.543,1.542,1.542,1.5371,1.5137,1.498,1.4951,1.4679,1.4513,1.4523,1.4523,1.433,1.3975,1.4155,1.4104,1.3668,1.3738,1.3873,1.3877,1.3978,1.4069,1.4085,1.4084,1.4231,1.4323,1.4011,1.369,1.369,1.369,1.3681,1.3671,1.3525,1.3406,1.3286,1.313,1.276,1.2343,1.2431,1.2041,1.1214,1.1442,1.1453,1.1068,1.0443,0.9805,0.901,0.8811,0.8752,0.8639,0.8475,0.8244,0.8003,0.7771,0.7567,0.7352,0.6927,0.669,0.6716,0.6619,0.6489,0.6349,0.6234,0.6161,0.6094,0.5882,0.562,0.5438,0.5241,0.5141,2.5684,2.5684,2.5684,2.5674,2.5625,2.5625,2.5449,2.4998,2.458,2.416,2.3701,2.3305,2.3149,2.3101,2.3101,2.3101,2.3023,2.2744,2.2578,2.2448,2.1648,2.1249,2.1229,2.0801,2.0595,2.0517,2.0107,1.9707,1.9287,1.8783,1.8539,1.85,1.8149,1.8008,1.8008,1.8008,1.7998,1.7891,1.7617,1.7412,1.7334,1.6963,1.6562,1.6232,1.6124,1.5928,1.5508,1.5439,1.542,1.542,1.5391,1.54,1.5361,1.5284,1.5361,1.5303,1.5352,1.5098,1.4696,1.4725,1.4717,1.4535,1.4588,1.457,1.4551,1.4622,1.4601,1.4462,1.4451,1.4476,1.4467,1.4403,1.4387,1.4458,1.4339,1.433,1.4323,1.4002,1.3617,1.3369,1.3094,1.2753,1.2698,1.272,1.2394,1.1774,1.1782,1.1993,1.1688,1.0925,0.9783,0.9096,0.8844,0.8778,0.8752,0.8692,0.848,0.8251,0.8016,0.779,0.7658,0.7346,0.7073,0.7031,0.6601,0.6431,0.6416,0.6313,0.6331,0.6252,0.6046,0.5869,0.5731,0.5548,0.5416,2.5684,2.5684,2.5684,2.5684,2.5684,2.5684,2.5478,2.5125,2.4912,2.4473,2.3857,2.3643,2.3428,2.3149,2.3101,2.3101,2.3081,2.2955,2.2896,2.274,2.207,2.168,2.1543,2.0957,2.0615,2.0537,2.0117,1.9853,1.9619,1.8968,1.8598,1.851,1.8188,1.8018,1.8008,1.8008,1.8008,1.7964,1.7891,1.7822,1.7773,1.7402,1.7109,1.6995,1.6689,1.6445,1.6268,1.5712,1.543,1.543,1.542,1.542,1.542,1.542,1.542,1.542,1.542,1.5371,1.5205,1.5166,1.5186,1.5146,1.5137,1.4984,1.4737,1.4645,1.4595,1.4506,1.4485,1.4485,1.4485,1.4485,1.4485,1.4485,1.4485,1.4485,1.4476,1.435,1.4093,1.3772,1.358,1.3314,1.29,1.2863,1.2775,1.2328,1.2501,1.268,1.2544,1.173,1.0721,0.9695,0.9323,0.891,0.891,0.9036,0.9003,0.8732,0.841,0.8061,0.7926,0.7754,0.7491,0.7152,0.6744,0.6489,0.6447,0.641,0.641,0.6349,0.6149,0.6054,0.5986,0.5874,0.5739,2.5684,2.5684,2.5684,2.5684,2.5684,2.5684,2.5586,2.5312,2.5127,2.4803,2.4307,2.4092,2.3789,2.3447,2.3335,2.3237,2.311,2.3101,2.3101,2.3003,2.2461,2.2119,2.2002,2.1221,2.0703,2.0586,2.0293,2.0156,2.0107,1.9473,1.9007,1.8838,1.8422,1.8154,1.8027,1.8008,1.8008,1.8008,1.7998,1.8008,1.7959,1.7754,1.7539,1.7406,1.7119,1.6872,1.6677,1.6151,1.583,1.5664,1.5518,1.542,1.542,1.542,1.542,1.542,1.542,1.541,1.542,1.5391,1.542,1.542,1.542,1.5235,1.4902,1.4714,1.4595,1.4515,1.4485,1.4485,1.4485,1.4485,1.4485,1.4485,1.4485,1.4485,1.4485,1.4485,1.4313,1.3984,1.3717,1.3369,1.2974,1.2689,1.279,1.2569,1.2698,1.2846,1.2731,1.2298,1.1376,1.0592,1.0056,0.9658,0.9225,0.9313,0.9501,0.9214,0.8895,0.8495,0.8213,0.7964,0.7705,0.734,0.6941,0.6683,0.6603,0.6468,0.6404,0.6307,0.6294,0.6269,0.6231,0.6172,0.606,2.5684,2.5684,2.5684,2.5684,2.5684,2.5684,2.5664,2.5596,2.5312,2.5135,2.4932,2.46,2.418,2.3848,2.3721,2.355,2.3247,2.3309,2.3309,2.3211,2.2876,2.266,2.2227,2.1473,2.0996,2.0693,2.0605,2.0576,2.0498,2.0019,1.9717,1.9307,1.8887,1.8432,1.8184,1.8057,1.8066,1.8018,1.8008,1.8008,1.8008,1.7988,1.7832,1.7471,1.7422,1.7256,1.6941,1.6746,1.6523,1.6153,1.5723,1.5518,1.5469,1.5439,1.542,1.542,1.542,1.542,1.542,1.542,1.542,1.542,1.5391,1.5303,1.5039,1.4862,1.4704,1.4565,1.4515,1.4485,1.4485,1.4485,1.4485,1.4485,1.4485,1.4485,1.4485,1.4485,1.4313,1.3975,1.3552,1.3186,1.2845,1.2514,1.2312,1.2239,1.2257,1.2257,1.2232,1.2141,1.2106,1.1536,1.0776,1.0221,0.9751,0.9743,0.9866,0.9508,0.9276,0.9066,0.8527,0.8209,0.7917,0.7555,0.7391,0.7074,0.6745,0.6649,0.6523,0.6459,0.6474,0.6498,0.6489,0.6417,0.6388,2.5684,2.5684,2.5684,2.5684,2.5684,2.5684,2.5684,2.5674,2.5567,2.5409,2.5155,2.4998,2.4585,2.3893,2.3889,2.389,2.4095,2.4122,2.4112,2.4102,2.4063,2.3173,2.2185,2.1523,2.1191,2.1055,2.086,2.0615,2.0566,2.0156,1.9873,1.9746,1.9316,1.8906,1.85,1.8422,1.8256,1.8047,1.8008,1.8008,1.8008,1.8008,1.7969,1.7881,1.7822,1.7773,1.7637,1.7373,1.7012,1.6572,1.6133,1.5898,1.582,1.5615,1.5488,1.5449,1.5439,1.542,1.543,1.542,1.542,1.542,1.542,1.5332,1.5156,1.495,1.4754,1.4645,1.4565,1.4485,1.4485,1.4485,1.4485,1.4485,1.4485,1.4485,1.4485,1.4476,1.435,1.3984,1.3801,1.3543,1.3167,1.2808,1.2551,1.2505,1.234,1.2085,1.2094,1.2076,1.2076,1.1877,1.1301,1.0778,1.037,1.0306,1.0167,0.9766,0.9684,0.9788,0.9093,0.8448,0.817,0.7829,0.8068,0.7911,0.7325,0.6956,0.6831,0.6662,0.6667,0.6701,0.67,0.665,0.6687,2.5684,2.5684,2.5684,2.5684,2.5684,2.5684,2.5684,2.5684,2.5674,2.5875,2.5924,2.5979,2.5868,2.5581,2.542,2.53,2.5348,2.5115,2.5041,2.4946,2.4648,2.3598,2.251,2.2134,2.21,2.172,2.1548,2.1327,2.1049,2.0484,2.0145,1.9902,1.9678,1.9326,1.8916,1.8666,1.85,1.8281,1.8115,1.8008,1.8008,1.8008,1.8008,1.8008,1.8008,1.8008,1.7959,1.7764,1.7383,1.6836,1.6475,1.6191,1.588,1.5957,1.5839,1.5752,1.5713,1.5693,1.5644,1.5537,1.542,1.542,1.542,1.5332,1.5205,1.5009,1.4843,1.4686,1.4586,1.4515,1.4485,1.4485,1.4485,1.4485,1.4485,1.4485,1.4485,1.4485,1.4313,1.4029,1.3855,1.3736,1.336,1.3102,1.2992,1.29,1.268,1.2395,1.2174,1.2138,1.2076,1.1927,1.1821,1.136,1.1005,1.0875,1.051,1.0128,0.9969,1.0115,0.9555,0.8758,0.8417,0.8274,0.86,0.8579,0.7863,0.7282,0.7055,0.6941,0.6915,0.6881,0.6886,0.6836,0.6865,2.5771,2.5684,2.583,2.5781,2.5732,2.5684,2.5684,2.5684,2.5684,2.6225,2.6911,2.7169,2.7258,2.8095,2.7048,2.702,2.6667,2.6195,2.5988,2.5704,2.5147,2.4123,2.3309,2.3348,2.3115,2.2651,2.2691,2.2415,2.1942,2.1195,2.0582,2.0307,2.0113,1.9746,1.9346,1.8955,1.8676,1.849,1.8149,1.8018,1.8008,1.8008,1.8008,1.8008,1.8008,1.8008,1.8008,1.7939,1.7623,1.6882,1.6794,1.6416,1.584,1.6326,1.6328,1.6026,1.5889,1.5909,1.5938,1.5566,1.542,1.542,1.542,1.5362,1.5235,1.5088,1.497,1.4843,1.4643,1.4655,1.4616,1.457,1.4506,1.4536,1.4515,1.4485,1.4485,1.4485,1.4359,1.4049,1.3956,1.3763,1.3543,1.3378,1.3351,1.3323,1.302,1.2551,1.2349,1.2312,1.2211,1.2076,1.2013,1.1975,1.1668,1.1447,1.0952,1.0478,1.031,1.0218,0.9788,0.9171,0.8765,0.8613,0.8752,0.8546,0.8072,0.763,0.7405,0.7225,0.7215,0.7141,0.7052,0.6947,0.6943,2.6418,2.5781,2.6542,2.6418,2.5781,2.5684,2.5732,2.5732,2.5732,2.6418,2.7094,2.7226,2.7632,2.8151,2.7767,2.7445,2.7637,2.719,2.6887,2.6753,2.5966,2.5462,2.4829,2.4419,2.3753,2.3573,2.3506,2.3421,2.3047,2.2133,2.1497,2.128,2.06,2.0215,1.9775,1.9355,1.8955,1.8598,1.8217,1.8057,1.8047,1.8018,1.8008,1.8008,1.8008,1.8008,1.8008,1.8008,1.792,1.7705,1.7393,1.6973,1.6492,1.6348,1.6172,1.5869,1.5684,1.5635,1.5566,1.5586,1.5439,1.5508,1.5537,1.5381,1.5362,1.5283,1.5185,1.5096,1.5104,1.5139,1.5108,1.475,1.4648,1.466,1.4621,1.4513,1.4485,1.4485,1.4442,1.4378,1.4341,1.4332,1.4183,1.3882,1.3782,1.369,1.3323,1.2735,1.2634,1.2652,1.2652,1.2661,1.2443,1.2413,1.2169,1.1852,1.1345,1.092,1.0727,1.0499,1.0072,0.9769,0.9432,0.908,0.8752,0.8479,0.8156,0.8194,0.7995,0.7762,0.7527,0.7454,0.737,0.7213,0.7066,2.7189,2.7173,2.7709,2.7332,2.6552,2.6887,2.6839,2.6552,2.6935,2.7662,2.8448,2.8588,2.9033,2.9677,2.9033,2.8773,2.8719,2.8187,2.7805,2.7592,2.6917,2.6453,2.64,2.5785,2.5319,2.5076,2.5036,2.4819,2.4033,2.297,2.2032,2.1728,2.1011,2.0526,2.0195,1.9822,1.9502,1.9143,1.8578,1.8266,1.8301,1.8096,1.8008,1.8008,1.8008,1.8008,1.8008,1.8008,1.8008,1.7949,1.7783,1.7408,1.7058,1.6953,1.6748,1.6426,1.6338,1.6338,1.6338,1.6152,1.6024,1.5985,1.6005,1.5995,1.5965,1.5893,1.5832,1.5779,1.5778,1.5714,1.5704,1.5364,1.5133,1.499,1.4927,1.479,1.4558,1.4485,1.4485,1.4485,1.4458,1.4467,1.4396,1.4222,1.4203,1.4102,1.4112,1.3607,1.3671,1.3681,1.3607,1.3488,1.3121,1.2884,1.2605,1.2235,1.1696,1.1379,1.1183,1.0947,1.0617,1.0413,1.0208,0.9621,0.8923,0.8677,0.8424,0.8496,0.8429,0.8032,0.7792,0.7782,0.7675,0.7459,0.7348,2.8075,2.8727,2.8866,2.8355,2.7652,2.8251,2.8168,2.7615,2.8308,2.9004,3.0034,3.0215,3.0463,3.1189,3.0402,3.0074,2.9539,2.8987,2.8351,2.8219,2.7713,2.7418,2.7325,2.7215,2.7025,2.6736,2.6556,2.6097,2.5196,2.3799,2.3019,2.2292,2.1433,2.1096,2.0786,2.0317,2.0086,1.9964,1.937,1.9013,1.8934,1.8626,1.8374,1.8008,1.8008,1.8008,1.8008,1.8008,1.8008,1.8008,1.8008,1.7711,1.7506,1.7568,1.7734,1.7256,1.7061,1.6992,1.6904,1.6775,1.6609,1.6697,1.6668,1.6629,1.6539,1.6488,1.6483,1.6459,1.637,1.6224,1.6236,1.5925,1.5672,1.5486,1.5392,1.5145,1.4763,1.4558,1.4485,1.4485,1.4485,1.4485,1.4485,1.4423,1.4449,1.4485,1.4485,1.4485,1.4485,1.4449,1.4258,1.4167,1.3791,1.3286,1.2977,1.2814,1.228,1.1948,1.173,1.1541,1.1285,1.1158,1.0828,0.9647,0.9013,0.8811,0.8707,0.8715,0.856,0.8194,0.8076,0.807,0.7929,0.7736,0.7609,2.9326,2.8773,2.9612,2.9372,2.8541,2.8669,2.868,2.8495,2.8727,2.928,3.017,3.026,3.0824,3.1221,3.0567,2.9677,2.9076,2.8631,2.851,2.851,2.8219,2.8179,2.8139,2.8087,2.8108,2.8044,2.7731,2.7287,2.6706,2.5474,2.4332,2.4086,2.3101,2.2262,2.1614,2.1155,2.0876,2.0882,2.038,2.0068,2.0087,1.9629,1.896,1.8296,1.8144,1.8081,1.8042,1.8042,1.8008,1.8008,1.8008,1.7939,1.7803,1.7656,1.7383,1.7087,1.7009,1.709,1.6989,1.6853,1.6726,1.6697,1.6785,1.667,1.6582,1.6619,1.6879,1.6883,1.6761,1.6542,1.6661,1.6407,1.607,1.5856,1.5728,1.5538,1.517,1.4955,1.4595,1.4552,1.4504,1.4485,1.4485,1.4485,1.4485,1.4485,1.4485,1.4485,1.4485,1.4485,1.4421,1.4423,1.4405,1.3855,1.3378,1.3232,1.2951,1.2627,1.2405,1.2325,1.2123,1.1974,1.1378,1.0368,0.9577,0.9207,0.9129,0.9053,0.8958,0.8763,0.86,0.8395,0.823,0.8063,0.7822,3.0215,3.0306,3.0767,3.0407,2.9658,3.0068,2.9943,2.9601,3.0022,3.0498,3.0869,3.1015,3.1238,3.14,3.0879,2.9917,2.9088,2.8595,2.8522,2.851,2.851,2.851,2.851,2.851,2.851,2.8398,2.8234,2.7918,2.7627,2.6356,2.5535,2.4739,2.3846,2.3047,2.2408,2.1784,2.1787,2.1792,2.1318,2.1056,2.1275,2.0649,1.9688,1.9061,1.8508,1.8385,1.8458,1.811,1.8008,1.8008,1.8008,1.8008,1.7949,1.7822,1.7617,1.7402,1.7321,1.734,1.735,1.736,1.7389,1.7369,1.7373,1.7344,1.7256,1.7363,1.7412,1.7424,1.7344,1.7196,1.7408,1.703,1.6802,1.6557,1.6389,1.6063,1.5712,1.5652,1.5267,1.4753,1.457,1.4552,1.4485,1.4485,1.4485,1.4485,1.4485,1.4485,1.4485,1.4485,1.4485,1.4485,1.4497,1.4203,1.3754,1.3634,1.3543,1.3248,1.3074,1.2994,1.2923,1.2768,1.2143,1.1268,1.0555,0.9932,0.9614,0.9573,0.9458,0.9342,0.9137,0.8897,0.8619,0.8383,0.8143,3.0958,3.1705,3.1705,3.1238,3.0689,3.1339,3.1238,3.0767,3.1294,3.1617,3.1705,3.1661,3.1661,3.1536,3.0983,3.02,2.928,2.8739,2.8534,2.851,2.851,2.851,2.851,2.851,2.851,2.851,2.8462,2.8254,2.7864,2.7101,2.6287,2.5672,2.4695,2.3898,2.3389,2.2782,2.2841,2.2689,2.2351,2.2103,2.2113,2.1332,2.0504,2.0063,1.9384,1.9147,1.936,1.9083,1.8596,1.8411,1.8236,1.8168,1.8042,1.8008,1.8008,1.8008,1.8008,1.8008,1.7978,1.7949,1.7871,1.7852,1.7959,1.7978,1.7959,1.7842,1.7939,1.7974,1.7857,1.7707,1.776,1.7696,1.7441,1.7221,1.7075,1.6887,1.6425,1.6138,1.59,1.5395,1.4894,1.4628,1.4579,1.4485,1.4485,1.4485,1.4485,1.4485,1.4485,1.4485,1.4485,1.4485,1.4478,1.4359,1.4148,1.4047,1.3927,1.377,1.3685,1.3649,1.3606,1.3506,1.2806,1.2148,1.152,1.093,1.0507,1.0072,0.9917,0.9795,0.9614,0.9292,0.8846,0.8636,0.8482,3.1572,3.1705,3.1705,3.1605,3.1516,3.1661,3.1661,3.1528,3.1617,3.1705,3.1705,3.1705,3.1705,3.15,3.0706,2.9905,2.9316,2.8847,2.857,2.8522,2.851,2.851,2.851,2.851,2.851,2.851,2.851,2.8498,2.8242,2.7738,2.7448,2.6978,2.6151,2.546,2.4674,2.3939,2.3866,2.3938,2.3797,2.3559,2.3147,2.1941,2.1425,2.1185,2.0744,2.038,2.0593,2.0371,1.9995,1.9111,1.8972,1.8617,1.8134,1.8008,1.8008,1.8008,1.8008,1.8008,1.8008,1.8008,1.8008,1.8008,1.8008,1.8008,1.8008,1.8008,1.8008,1.8008,1.7964,1.7896,1.7862,1.7862,1.7721,1.7658,1.758,1.7364,1.7008,1.6551,1.6312,1.6015,1.5464,1.4958,1.4692,1.4579,1.4485,1.4485,1.4485,1.4485,1.4485,1.4485,1.4485,1.4485,1.4485,1.4414,1.4368,1.4295,1.4249,1.4147,1.4147,1.4176,1.4093,1.3947,1.3745,1.3077,1.2491,1.187,1.1345,1.092,1.0506,1.0167,0.9943,0.9439,0.8896,0.879,0.8755,3.1705,3.1705,3.1705,3.1705,3.1705,3.1705,3.1705,3.1705,3.1705,3.1705,3.1705,3.1705,3.1705,3.1524,3.0874,3.0254,2.9713,2.9184,2.8775,2.8558,2.8522,2.851,2.851,2.851,2.851,2.851,2.851,2.851,2.8414,2.8294,2.8053,2.763,2.7222,2.6675,2.588,2.5032,2.4945,2.4999,2.4908,2.447,2.3844,2.3167,2.2725,2.2634,2.1931,2.1763,2.1776,2.1484,2.1179,2.0531,2.0531,2.0041,1.9305,1.8984,1.8787,1.8008,1.8008,1.8008,1.8008,1.8018,1.8008,1.8008,1.8008,1.8008,1.8008,1.8008,1.8008,1.8008,1.8008,1.7974,1.7896,1.7964,1.7906,1.7881,1.7906,1.7803,1.7495,1.7038,1.6688,1.6382,1.6057,1.5545,1.5069,1.4895,1.4724,1.4515,1.4515,1.4485,1.4485,1.4485,1.4485,1.4485,1.4485,1.4467,1.4478,1.4412,1.4385,1.4339,1.4339,1.4348,1.4405,1.4268,1.4029,1.3966,1.3569,1.2942,1.2253,1.1685,1.1243,1.0735,1.0218,0.9769,0.9316,0.8956,0.8947,3.1705,3.1705,3.1705,3.1705,3.1705,3.1705,3.1705,3.1705,3.1705,3.1705,3.1705,3.1705,3.1705,3.1585,3.1151,3.0615,3.0296,2.9605,2.9124,2.8799,2.8582,2.851,2.851,2.851,2.851,2.851,2.851,2.851,2.851,2.845,2.8258,2.7921,2.7693,2.7438,2.689,2.6127,2.571,2.584,2.5649,2.5135,2.4528,2.4146,2.3962,2.3684,2.3228,2.287,2.3017,2.2777,2.2456,2.1876,2.1842,2.13,2.0488,2.0252,1.9996,1.9342,1.9095,1.8854,1.8641,1.8429,1.8091,1.8008,1.8008,1.8008,1.8008,1.8008,1.8008,1.8008,1.8008,1.8008,1.8008,1.8008,1.7974,1.7974,1.7974,1.8008,1.794,1.752,1.7148,1.6881,1.6542,1.6109,1.5666,1.5345,1.5032,1.466,1.4536,1.4515,1.4485,1.4485,1.4485,1.4485,1.4485,1.4485,1.4485,1.4485,1.4485,1.4485,1.4485,1.4485,1.4497,1.446,1.4295,1.4277,1.4286,1.3835,1.3041,1.2499,1.1926,1.1268,1.066,1.0277,0.9847,0.9439,0.9133,3.1705,3.1705,3.1705,3.1705,3.1705,3.1705,3.1705,3.1705,3.1705,3.1705,3.1705,3.1705,3.1705,3.1597,3.1259,3.0946,3.079,2.9802,2.9376,2.9088,2.8787,2.8595,2.8534,2.851,2.851,2.851,2.851,2.851,2.851,2.851,2.8474,2.8414,2.8029,2.7801,2.7486,2.695,2.6375,2.6346,2.6081,2.5781,2.5147,2.4742,2.4528,2.4803,2.44,2.4083,2.4369,2.415,2.3733,2.288,2.2857,2.2445,2.1759,2.1576,2.1305,2.0853,2.0359,2.0149,1.9961,1.8914,1.8149,1.8037,1.8086,1.8193,1.8242,1.8105,1.8047,1.8135,1.8193,1.8086,1.8066,1.8008,1.8008,1.8008,1.8008,1.8008,1.8008,1.7974,1.7628,1.741,1.7043,1.6623,1.6341,1.5987,1.5535,1.5158,1.4563,1.4485,1.4485,1.4485,1.4485,1.4485,1.4485,1.4485,1.4485,1.4485,1.4485,1.4485,1.4485,1.4485,1.4485,1.4469,1.4433,1.4442,1.4396,1.413,1.3883,1.3268,1.2596,1.1737,1.1108,1.0719,1.0354,0.9917,0.9543,3.1705,3.1705,3.1705,3.1705,3.1705,3.1705,3.1705,3.1705,3.1705,3.1705,3.1705,3.1705,3.1705,3.1633,3.1536,3.1199,3.0922,3.053,2.9929,2.9424,2.9076,2.8811,2.8667,2.8534,2.851,2.851,2.851,2.851,2.851,2.851,2.851,2.8414,2.8246,2.8258,2.8041,2.7657,2.714,2.6767,2.6562,2.6334,2.5865,2.5577,2.5337,2.517,2.5123,2.4898,2.4988,2.4999,2.4693,2.4411,2.4224,2.3619,2.2982,2.2855,2.251,2.1996,2.152,2.1369,2.1055,1.9853,1.8844,1.8799,1.8809,1.8769,1.8756,1.8769,1.8789,1.875,1.8525,1.8398,1.8389,1.8184,1.8008,1.8008,1.8008,1.8008,1.8008,1.8008,1.7964,1.7677,1.7445,1.7125,1.6902,1.6655,1.6166,1.566,1.5022,1.4513,1.4595,1.4632,1.4708,1.4696,1.4705,1.4595,1.4586,1.454,1.4504,1.4515,1.4515,1.4515,1.4506,1.4485,1.4458,1.4485,1.4545,1.442,1.419,1.3876,1.3222,1.2356,1.1693,1.1209,1.0812,1.0474,1.0226,3.1705,3.1705,3.1705,3.1705,3.1705,3.1705,3.1705,3.1705,3.1705,3.1705,3.1705,3.1705,3.1705,3.1705,3.1681,3.1536,3.1211,3.091,3.0398,2.9977,2.9629,2.9232,2.8907,2.8739,2.8727,2.8582,2.851,2.851,2.851,2.851,2.851,2.851,2.851,2.8486,2.8402,2.815,2.7642,2.7258,2.709,2.6849,2.6418,2.6285,2.6045,2.5673,2.5529,2.5361,2.5288,2.5228,2.524,2.5145,2.5074,2.4778,2.4343,2.3921,2.3548,2.2992,2.2541,2.2425,2.2004,2.1048,1.9935,1.9692,1.9665,1.9564,1.9458,1.9392,1.9232,1.9603,1.9205,1.8899,1.8986,1.8869,1.8414,1.8389,1.8066,1.8008,1.8008,1.8008,1.8008,1.792,1.7697,1.747,1.7451,1.7168,1.6599,1.613,1.5607,1.5155,1.5084,1.5093,1.5056,1.5056,1.5038,1.4891,1.4735,1.4781,1.4781,1.4586,1.4586,1.4556,1.4526,1.4506,1.4515,1.4515,1.4565,1.4684,1.452,1.4232,1.3643,1.2939,1.2289,1.1613,1.166,1.1367,1.1166,3.1705,3.1705,3.1705,3.1705,3.1705,3.1705,3.1705,3.1705,3.1705,3.1705,3.1705,3.1705,3.1705,3.1705,3.1705,3.1645,3.1524,3.1175,3.0838,3.0591,3.0206,2.9761,2.9448,2.9232,2.9063,2.8619,2.8595,2.8643,2.851,2.851,2.851,2.851,2.851,2.851,2.851,2.8498,2.821,2.7789,2.769,2.7354,2.6994,2.6861,2.6598,2.6226,2.5973,2.5757,2.5552,2.5348,2.5324,2.5312,2.5312,2.5134,2.5015,2.4991,2.4873,2.4814,2.4234,2.4018,2.3921,2.249,2.1531,2.0794,2.0746,2.0524,1.9935,1.9698,1.9819,2.0414,1.9881,1.9811,1.9827,1.9746,1.9181,1.8672,1.8359,1.8076,1.8086,1.8203,1.8252,1.8066,1.7852,1.7731,1.7808,1.7658,1.704,1.6543,1.6141,1.5854,1.5684,1.5514,1.5431,1.5444,1.5376,1.5232,1.5103,1.5105,1.5032,1.481,1.4719,1.4821,1.4678,1.4565,1.4545,1.4545,1.4743,1.4931,1.479,1.4572,1.4043,1.3531,1.2635,1.2102,1.2221,1.2215,1.1959,3.1705,3.1705,3.1705,3.1705,3.1705,3.1705,3.1705,3.1705,3.1705,3.1705,3.1705,3.1705,3.1705,3.1705,3.1705,3.1705,3.1657,3.1609,3.1356,3.0922,3.0718,3.0302,2.9965,2.9761,2.9544,2.916,2.9015,2.8823,2.851,2.8619,2.8558,2.851,2.8546,2.851,2.851,2.851,2.8366,2.827,2.821,2.7966,2.7486,2.7378,2.7162,2.6645,2.6358,2.6081,2.5841,2.5624,2.5444,2.5396,2.5384,2.536,2.5324,2.5312,2.5312,2.5312,2.4898,2.4933,2.4874,2.4167,2.3484,2.2623,2.2013,2.1739,2.12,2.1056,2.1182,2.1197,2.0812,2.0787,2.0699,2.0427,1.9895,1.9216,1.8779,1.8379,1.8301,1.8516,1.8584,1.8193,1.793,1.7896,1.793,1.794,1.7437,1.714,1.6793,1.6525,1.6318,1.6007,1.583,1.583,1.5774,1.5607,1.5492,1.5612,1.5542,1.5317,1.5259,1.5331,1.5111,1.4803,1.4595,1.4595,1.4902,1.5206,1.5013,1.4831,1.4628,1.4099,1.3342,1.2701,1.2653,1.2709,1.2627,3.1705,3.1705,3.1705,3.1705,3.1705,3.1705,3.1705,3.1705,3.1705,3.1705,3.1705,3.1705,3.1705,3.1705,3.1705,3.1705,3.1705,3.1693,3.1633,3.1199,3.1199,3.0862,3.0506,3.0314,3.0037,2.9701,2.9544,2.9376,2.9184,2.9088,2.8991,2.8847,2.8619,2.8534,2.851,2.8498,2.8498,2.845,2.8402,2.833,2.8026,2.7882,2.769,2.7234,2.6873,2.6622,2.637,2.6033,2.5733,2.5661,2.5576,2.5492,2.5408,2.5324,2.5312,2.5312,2.5312,2.5276,2.5205,2.5205,2.4495,2.3933,2.361,2.3095,2.2547,2.2264,2.2162,2.2105,2.1871,2.1797,2.1686,2.1373,2.0953,2.0265,1.9775,1.9364,1.8799,1.9043,1.8721,1.832,1.8037,1.8027,1.8008,1.7974,1.7818,1.7663,1.7485,1.7211,1.6915,1.6595,1.637,1.6389,1.6379,1.6262,1.621,1.6224,1.6087,1.582,1.5826,1.5886,1.5569,1.5268,1.495,1.4675,1.4941,1.5157,1.5187,1.508,1.4886,1.4651,1.4227,1.3685,1.3223,1.3052,1.2983,3.1705,3.1705,3.1705,3.1705,3.1705,3.1705,3.1705,3.1705,3.1705,3.1705,3.1705,3.1705,3.1705,3.1705,3.1705,3.1705,3.1705,3.1705,3.1669,3.1645,3.156,3.1259,3.1023,3.091,3.0567,3.0278,3.0074,3.0013,3.0037,2.9821,2.9605,2.9304,2.8883,2.8739,2.8667,2.857,2.8546,2.851,2.8498,2.845,2.8342,2.8378,2.8138,2.775,2.7486,2.7222,2.6982,2.6717,2.6453,2.6261,2.6117,2.5793,2.554,2.5348,2.5336,2.5312,2.5312,2.5312,2.5312,2.5312,2.5276,2.4791,2.4456,2.4095,2.3658,2.3206,2.3058,2.3021,2.29,2.2955,2.2911,2.2644,2.2377,2.1781,2.122,2.0538,1.9669,1.929,1.8867,1.8486,1.8184,1.8076,1.8018,1.8008,1.7974,1.7901,1.7765,1.7653,1.7407,1.7247,1.7086,1.7139,1.7096,1.7,1.6963,1.6802,1.6664,1.6415,1.6449,1.6432,1.6087,1.5832,1.5657,1.5415,1.5123,1.5098,1.5235,1.5264,1.5186,1.4923,1.466,1.4211,1.3643,1.3213,1.3066,3.1705,3.1705,3.1705,3.1705,3.1705,3.1705,3.1705,3.1705,3.1705,3.1705,3.1705,3.1705,3.1705,3.1705,3.1705,3.1705,3.1705,3.1705,3.1705,3.1705,3.1705,3.1609,3.1512,3.1392,3.1127,3.0862,3.0615,3.0494,3.017,3.0122,3.0098,2.9785,2.9328,2.9136,2.8955,2.8715,2.8619,2.8546,2.8558,2.851,2.851,2.851,2.8354,2.8222,2.7882,2.7642,2.7498,2.715,2.6873,2.6717,2.6657,2.6393,2.5937,2.5853,2.5793,2.5348,2.5312,2.5312,2.5312,2.5324,2.5324,2.5324,2.5016,2.46,2.4204,2.3902,2.3793,2.3683,2.3768,2.3768,2.3731,2.3517,2.3216,2.2743,2.2239,2.1644,2.0771,1.9977,1.9478,1.8633,1.833,1.8066,1.8008,1.8008,1.8008,1.8008,1.7974,1.7906,1.7755,1.7556,1.7545,1.7613,1.7455,1.7244,1.7312,1.7197,1.7134,1.7052,1.7058,1.7048,1.6915,1.6686,1.6452,1.6006,1.5397,1.5254,1.5352,1.5323,1.5303,1.5215,1.4961,1.4531,1.4092,1.3672,1.334,3.1705,3.1705,3.1705,3.1705,3.1705,3.1705,3.1705,3.1705,3.1705,3.1705,3.1705,3.1705,3.1705,3.1705,3.1705,3.1705,3.1705,3.1705,3.1705,3.1705,3.1705,3.1693,3.1705,3.1693,3.15,3.1296,3.1199,3.1103,3.0718,3.0446,3.0386,3.035,2.9881,2.9665,2.9472,2.916,2.8883,2.8775,2.8679,2.8558,2.851,2.851,2.851,2.845,2.8126,2.8053,2.7993,2.757,2.7438,2.7258,2.721,2.6946,2.655,2.6418,2.6382,2.6009,2.6009,2.5889,2.5757,2.5661,2.5516,2.5384,2.53,2.5052,2.4826,2.4612,2.4348,2.4168,2.4348,2.4492,2.442,2.4276,2.3902,2.3514,2.311,2.2713,2.1838,2.0904,1.9936,1.8916,1.8447,1.8125,1.8008,1.8008,1.8008,1.8008,1.8008,1.7974,1.7789,1.7509,1.7625,1.7765,1.7567,1.7346,1.7413,1.7456,1.7431,1.7402,1.76,1.7595,1.7588,1.7291,1.6876,1.6205,1.5458,1.54,1.54,1.542,1.5371,1.5283,1.5234,1.499,1.459,1.4124,1.3841,3.1705,3.1705,3.1705,3.1705,3.1705,3.1705,3.1705,3.1705,3.1705,3.1705,3.1705,3.1705,3.1705,3.1705,3.1705,3.1705,3.1705,3.1705,3.1705,3.1705,3.1705,3.1705,3.1705,3.1693,3.1633,3.1681,3.1645,3.1488,3.15,3.1235,3.097,3.0903,3.0398,3.0146,3.0074,2.9617,2.9364,2.9316,2.9039,2.8811,2.857,2.851,2.851,2.851,2.8474,2.8462,2.8474,2.839,2.8294,2.7918,2.7678,2.7474,2.7138,2.6825,2.6801,2.6765,2.6645,2.643,2.619,2.6105,2.5889,2.5661,2.5373,2.5505,2.5517,2.5135,2.4802,2.4647,2.4791,2.4791,2.4719,2.4791,2.4576,2.4384,2.4156,2.3573,2.2713,2.159,2.0339,1.9447,1.8904,1.8586,1.8337,1.8395,1.8395,1.8236,1.8202,1.8202,1.8073,1.7766,1.7705,1.7905,1.7595,1.7387,1.7362,1.7434,1.7589,1.772,1.7769,1.7623,1.7266,1.7207,1.7236,1.6354,1.5488,1.5449,1.5459,1.5439,1.542,1.5391,1.5361,1.5391,1.5088,1.4601,1.4326,3.1705,3.1705,3.1705,3.1705,3.1705,3.1705,3.1705,3.1705,3.1705,3.1705,3.1705,3.1705,3.1705,3.1705,3.1705,3.1705,3.1705,3.1705,3.1705,3.1705,3.1705,3.1705,3.1705,3.1705,3.1705,3.1705,3.1705,3.1705,3.1657,3.1548,3.1488,3.144,3.0939,3.0687,3.0651,3.0158,2.9905,2.9881,2.9653,2.9172,2.8739,2.857,2.851,2.8522,2.8534,2.851,2.851,2.8498,2.845,2.829,2.833,2.8029,2.7534,2.715,2.6946,2.6898,2.6994,2.6789,2.661,2.6574,2.649,2.6286,2.6154,2.6334,2.6177,2.5648,2.5289,2.5171,2.5052,2.5052,2.5052,2.5158,2.5229,2.5194,2.5075,2.4301,2.3514,2.2192,2.0812,2.0135,1.9528,1.9172,1.891,1.8787,1.8744,1.8777,1.8787,1.879,1.8765,1.8524,1.7985,1.7999,1.7553,1.734,1.7324,1.7194,1.7291,1.7223,1.7165,1.7019,1.6934,1.6931,1.6902,1.623,1.5605,1.5615,1.5566,1.543,1.542,1.542,1.542,1.542,1.5449,1.5097,1.4813,3.15,3.1693,3.1705,3.1705,3.1705,3.1705,3.1705,3.1705,3.1705,3.1705,3.1705,3.1705,3.1705,3.1705,3.1705,3.1705,3.1705,3.1705,3.1705,3.1705,3.1705,3.1705,3.1705,3.1705,3.1705,3.1705,3.1705,3.1705,3.1705,3.1693,3.1669,3.1669,3.1356,3.1223,3.1175,3.0778,3.0489,3.0465,3.0266,2.9797,2.9148,2.9027,2.8895,2.8847,2.8679,2.8595,2.851,2.851,2.851,2.851,2.8474,2.8414,2.8077,2.7861,2.7654,2.7642,2.7594,2.7366,2.7115,2.7043,2.7114,2.6947,2.6502,2.6526,2.6729,2.6249,2.6081,2.5888,2.5301,2.5218,2.5206,2.5276,2.5276,2.5229,2.5123,2.4671,2.3729,2.2557,2.157,2.0938,2.0398,1.9963,1.9731,1.9507,1.9497,1.9497,1.9507,1.9365,1.9325,1.9349,1.8788,1.8361,1.8106,1.755,1.7314,1.71,1.6863,1.6746,1.6668,1.6736,1.6794,1.6746,1.6551,1.6465,1.6221,1.5889,1.5811,1.5566,1.543,1.542,1.542,1.5449,1.5478,1.5526,1.5278,3.1235,3.1681,3.1705,3.1705,3.1705,3.1705,3.1705,3.1705,3.1705,3.1705,3.1705,3.1705,3.1705,3.1705,3.1705,3.1705,3.1705,3.1705,3.1705,3.1705,3.1705,3.1705,3.1705,3.1705,3.1705,3.1705,3.1705,3.1705,3.1705,3.1705,3.1705,3.1705,3.1705,3.1693,3.1573,3.132,3.1019,3.0922,3.0711,3.0422,3.0062,2.9713,2.9496,2.922,2.8931,2.8643,2.8619,2.8534,2.8546,2.851,2.851,2.8474,2.845,2.8306,2.8342,2.8282,2.8258,2.7993,2.7753,2.7705,2.7693,2.7476,2.6923,2.6839,2.7114,2.709,2.6923,2.6466,2.5877,2.5408,2.5396,2.5312,2.5312,2.5276,2.517,2.4945,2.3961,2.3156,2.2588,2.1889,2.1358,2.0919,2.0588,2.0358,2.0237,2.0237,2.0161,2.002,1.9966,2.0019,1.9803,1.9458,1.9169,1.8538,1.7576,1.6968,1.6605,1.656,1.6531,1.6629,1.6716,1.6785,1.7028,1.748,1.7187,1.6486,1.5968,1.5654,1.5547,1.542,1.5488,1.5546,1.5614,1.5633,1.5598,3.1223,3.1705,3.1705,3.1705,3.1705,3.1705,3.1705,3.1705,3.1705,3.1705,3.1705,3.1705,3.1705,3.1705,3.1705,3.1705,3.1705,3.1705,3.1705,3.1705,3.1705,3.1705,3.1705,3.1705,3.1705,3.1705,3.1705,3.1705,3.1705,3.1705,3.1705,3.1705,3.1705,3.1705,3.1693,3.1512,3.1452,3.1368,3.138,3.1211,3.1019,3.0567,3.0025,2.9725,2.9424,2.9244,2.9063,2.8715,2.857,2.851,2.851,2.851,2.851,2.851,2.851,2.851,2.851,2.8414,2.821,2.8198,2.8138,2.815,2.7789,2.7861,2.8041,2.8053,2.7729,2.721,2.6573,2.5829,2.5636,2.5384,2.5312,2.5312,2.5241,2.4862,2.4172,2.4187,2.4073,2.3282,2.2571,2.2059,2.158,2.1297,2.0969,2.099,2.0944,2.0837,2.1135,2.0996,2.0773,2.0499,2.0215,1.8851,1.7593,1.6806,1.6434,1.6421,1.6517,1.6779,1.6916,1.6973,1.7256,1.7402,1.7324,1.6758,1.6299,1.5713,1.5537,1.5449,1.5575,1.5672,1.574,1.5768,1.5783]}]]